GFSSE_sfc_thetae_000.txt.gz
Theta_e
324 330 353 352 348 346 344 344 341 336 334 333 331 330 329 331 335 337 338 339 338 338 338 340 340 340 344 347 348 352 353 353 355 358 358 356 357 357 359 359 358 354 358
325 329 353 352 348 345 344 342 338 336 335 333 332 330 330 331 334 336 337 339 339 338 338 339 340 340 342 344 347 350 352 351 353 355 357 355 354 357 358 357 357 355 357
320 330 343 352 347 345 344 342 341 338 335 334 333 331 330 331 334 335 337 338 338 339 338 338 340 340 340 343 345 349 350 352 353 353 354 350 350 355 356 356 356 355 355
324 328 337 351 350 346 344 344 343 338 337 335 334 332 331 332 334 335 336 336 337 339 339 338 339 339 340 342 343 348 349 351 352 354 349 348 347 352 354 355 355 354 354
322 328 335 349 349 346 343 343 343 338 338 337 335 333 332 332 333 334 335 335 336 337 338 338 339 339 340 341 343 348 348 350 353 349 345 347 346 350 351 353 353 354 353
318 328 335 346 348 345 342 342 342 339 338 337 336 334 333 332 333 333 333 333 335 336 337 339 339 339 340 341 343 348 348 350 350 344 345 345 348 350 352 353 353 353 353
315 326 333 344 345 344 342 341 342 340 340 337 334 334 333 333 333 333 333 333 333 335 337 337 339 342 343 345 343 347 350 349 343 343 343 344 346 350 350 352 352 353 352
321 323 326 337 343 345 341 341 339 338 338 336 336 336 334 333 333 333 334 333 332 333 336 336 339 342 344 346 344 347 347 348 346 341 342 344 346 350 350 352 352 353 351
311 313 314 313 320 327 329 331 332 332 333 333 333 334 333 333 333 333 333 332 332 333 335 336 338 339 342 344 343 347 347 347 345 342 342 343 349 349 351 351 352 352 351
306 307 307 312 315 316 317 327 329 329 329 330 332 332 332 332 333 333 333 332 332 333 335 336 337 339 340 343 345 346 346 347 344 344 342 343 348 350 351 352 353 351 351
310 310 310 314 315 316 317 319 323 325 328 328 326 327 326 322 323 327 330 332 332 333 335 336 337 339 340 341 342 343 345 342 343 344 343 344 345 347 350 351 351 350 350
308 311 312 313 314 315 318 316 315 318 319 320 321 319 322 320 321 323 328 331 331 333 335 335 337 339 339 337 339 342 339 341 342 343 341 346 345 349 350 349 349 350 350
309 312 311 312 314 314 314 315 314 316 320 322 321 319 323 324 321 322 324 325 326 329 329 333 335 334 333 336 336 339 339 339 343 342 342 345 347 350 350 349 349 349 348
309 311 312 313 313 313 314 314 314 318 321 321 319 320 319 320 320 318 319 321 323 324 326 328 328 331 333 333 336 337 338 338 341 341 343 347 348 349 348 349 348 347 348
309 311 311 314 314 314 314 315 315 318 320 320 317 317 318 317 317 318 319 321 322 324 325 326 329 330 331 333 336 336 336 337 341 340 343 346 346 348 349 348 348 346 347
311 311 312 313 315 314 313 314 315 316 316 319 316 316 318 317 317 318 319 320 321 323 325 326 328 330 332 334 335 336 335 338 339 340 341 341 343 346 348 348 348 347 348
310 312 311 315 315 314 313 314 315 316 316 316 317 318 319 319 318 321 320 319 321 323 325 326 328 330 332 332 334 334 335 337 337 338 338 337 340 346 346 348 348 349 348
310 312 311 315 316 315 314 315 316 318 318 318 318 318 320 321 321 320 319 319 321 324 325 326 329 329 330 331 332 332 334 336 335 336 337 337 337 342 346 347 347 347 348
311 312 312 312 315 315 315 316 318 318 319 320 321 321 322 325 325 321 322 324 325 326 326 327 328 328 328 330 330 331 332 333 333 334 335 335 336 336 338 345 344 345 347
312 311 312 311 314 314 316 317 318 318 319 320 320 322 324 325 324 325 324 326 326 326 326 326 327 328 329 329 329 329 330 331 331 332 332 334 335 337 337 338 341 341 344
314 312 311 310 311 311 314 314 315 316 318 318 321 323 324 325 324 326 326 325 328 326 327 327 327 327 327 330 326 326 328 329 330 330 331 332 334 334 334 335 338 337 340
311 313 312 311 312 312 313 314 315 316 320 320 322 323 325 326 326 326 327 327 327 327 327 327 326 325 327 328 324 323 318 322 326 328 330 330 331 333 332 333 335 337 340
309 310 314 312 310 309 313 316 317 319 321 322 322 322 324 327 327 326 327 327 326 327 326 326 327 327 324 327 327 323 317 316 318 323 324 326 327 329 330 331 333 335 334
310 312 312 312 311 312 312 317 316 316 317 320 322 323 324 325 327 327 326 326 326 327 325 326 327 327 326 322 325 327 326 324 315 313 317 319 322 324 325 327 331 331 334
312 312 313 313 313 313 314 318 319 318 319 320 321 321 323 325 327 328 327 327 327 326 326 326 326 326 327 324 324 323 323 322 321 318 312 313 315 317 323 326 327 325 324
311 313 312 314 315 313 315 317 317 314 314 315 317 319 322 324 326 328 327 327 327 326 327 326 326 326 325 326 325 324 322 320 319 316 315 310 311 310 315 319 323 323 322

GFSSE_sfc_thetae_003.txt.gz
Theta_e
334 335 353 353 351 347 347 346 346 343 339 337 335 333 332 331 332 334 337 338 340 340 339 339 342 341 344 347 350 352 356 354 355 358 356 357 360 357 358 359 357 354 357
333 336 352 354 351 349 347 346 346 344 341 337 336 334 332 332 332 334 336 338 340 341 340 340 341 341 342 345 348 352 352 350 351 356 354 355 356 354 358 358 358 353 356
330 337 343 355 352 350 349 349 348 346 342 338 336 335 333 332 333 335 337 339 340 340 341 340 340 341 341 344 345 351 352 351 351 351 353 354 350 353 356 356 356 354 355
329 339 339 352 354 351 350 349 348 345 343 339 338 337 335 333 333 335 337 338 338 340 341 341 340 341 342 343 344 348 350 352 350 351 351 350 349 349 353 354 355 353 353
330 335 340 347 353 351 350 348 345 343 341 340 339 338 337 335 334 335 336 337 338 339 339 341 340 340 341 342 344 347 351 352 352 350 350 343 346 346 349 353 354 353 353
323 330 337 343 349 351 347 345 345 343 342 341 339 338 338 336 335 335 335 336 336 337 339 339 341 342 341 342 343 347 351 351 350 351 346 345 345 344 349 350 353 353 353
322 333 337 341 347 347 346 345 343 342 341 340 337 339 337 337 335 335 335 335 335 335 336 339 340 342 344 345 343 346 350 349 347 347 348 345 344 344 345 350 351 351 351
323 335 338 339 343 344 343 344 341 338 336 337 337 336 338 337 335 335 335 335 335 334 334 337 340 339 344 346 344 346 348 349 349 344 346 346 345 345 348 348 351 352 350
322 323 328 329 328 327 329 331 331 332 333 333 333 334 335 335 335 335 335 335 335 334 334 335 339 340 340 343 344 346 347 348 349 343 345 343 347 348 347 349 350 352 352
317 318 321 322 324 327 327 327 328 329 330 330 331 331 333 333 333 334 335 334 334 334 334 335 338 339 339 341 342 345 347 348 350 343 343 344 347 346 348 346 350 351 351
319 321 323 323 325 325 325 325 326 327 328 328 328 328 329 331 331 332 332 333 333 334 335 335 337 339 339 340 341 344 346 350 349 346 345 346 348 349 345 345 350 350 349
319 321 323 323 323 325 324 326 327 326 326 326 327 327 328 330 329 326 330 332 332 334 334 335 336 337 339 340 338 342 346 348 347 348 347 346 347 349 347 347 349 350 349
320 322 322 323 323 325 324 326 326 325 322 323 324 326 327 328 330 327 327 329 335 333 334 335 336 339 340 339 339 341 347 347 348 348 349 345 344 343 345 345 348 349 349
320 321 322 322 324 326 325 326 327 324 325 325 324 327 326 325 327 324 326 329 332 334 333 334 337 340 340 340 340 342 344 346 349 349 349 342 341 343 347 347 349 348 349
320 321 322 323 325 326 327 326 327 327 325 326 324 326 323 325 325 325 325 328 329 329 331 333 336 336 337 338 339 343 342 345 347 349 349 345 344 348 350 347 348 348 347
321 322 323 325 326 327 326 327 328 328 327 324 323 327 328 327 328 327 325 325 327 329 332 336 337 336 335 337 338 342 341 345 346 348 349 344 346 345 349 349 349 347 347
322 323 323 325 328 327 327 327 328 329 328 327 328 329 328 329 328 328 329 328 328 332 334 335 334 335 334 338 336 340 343 343 345 345 342 345 343 346 345 349 350 349 348
323 323 324 325 328 328 328 328 328 330 329 329 330 331 330 331 330 330 329 331 330 331 332 332 330 330 332 334 334 338 342 343 341 342 341 341 340 341 346 348 348 348 349
323 323 323 325 327 328 329 329 329 331 330 330 331 331 331 332 332 331 329 330 332 330 331 332 332 331 331 333 333 339 339 341 342 335 337 337 338 338 339 344 346 347 347
324 323 323 324 325 325 327 329 329 332 330 331 331 330 330 333 331 332 330 328 329 330 330 331 332 332 333 333 334 333 334 336 334 335 339 339 337 338 338 344 348 344 345
325 325 324 325 326 325 326 325 326 326 326 330 329 325 326 329 329 332 332 332 332 327 329 332 332 332 333 336 329 328 329 331 333 334 335 334 335 335 336 337 338 338 340
322 323 326 323 324 322 324 327 323 327 328 328 328 329 329 327 329 330 330 329 331 330 330 332 333 332 332 335 326 324 319 323 328 333 333 333 333 335 334 335 339 338 338
320 320 324 325 324 323 325 328 329 330 328 326 326 325 325 327 328 331 330 332 332 333 332 333 335 332 326 332 335 328 319 316 321 327 329 331 332 333 335 336 337 336 337
321 321 321 323 325 323 327 330 329 327 324 326 327 329 330 328 328 328 328 328 328 331 333 333 336 332 329 326 333 330 329 328 318 315 320 324 328 329 331 334 336 338 337
322 324 326 325 326 325 329 330 327 326 327 329 330 328 332 330 333 331 329 331 329 328 329 333 331 329 331 330 325 327 327 328 325 324 314 316 317 322 327 332 336 339 341
323 323 325 327 325 326 328 328 327 325 326 326 327 326 327 328 332 333 332 332 330 332 330 333 335 335 334 334 333 328 326 324 322 322 317 316 314 314 323 331 331 330 334

GFSSE_sfc_thetae_006.txt.gz
Theta_e
339 338 354 353 352 349 347 347 347 346 344 341 337 335 335 335 334 333 334 337 339 340 341 340 340 343 343 347 350 352 355 356 358 358 358 360 359 358 357 359 359 355 357
336 338 351 355 353 349 349 348 348 347 345 341 338 336 336 335 334 333 334 337 339 340 343 341 340 343 343 345 348 351 354 355 354 358 358 357 356 356 357 358 358 355 357
332 338 342 354 353 352 351 351 350 350 346 341 339 338 337 336 334 334 335 337 339 341 342 342 341 342 343 344 346 349 352 352 353 355 355 352 354 355 355 357 356 355 357
331 336 336 352 355 354 353 351 348 348 346 343 340 340 339 337 336 335 335 337 339 340 341 342 342 341 343 343 344 347 351 351 349 350 352 352 353 352 352 355 355 355 354
329 330 333 348 354 354 353 348 349 348 346 344 341 341 341 339 338 336 335 337 338 339 340 341 342 341 342 343 343 346 350 351 350 349 352 350 347 347 347 347 353 352 354
325 326 334 338 345 350 351 348 349 345 344 342 340 341 339 339 338 338 336 336 337 338 339 340 340 341 341 343 343 345 349 351 351 351 348 346 345 346 346 343 345 351 353
324 327 329 340 343 347 348 346 346 343 343 339 338 338 339 340 338 337 337 336 336 336 337 338 340 340 342 345 345 344 348 349 349 351 346 343 342 345 345 347 348 351 352
325 331 332 337 341 339 341 340 337 336 336 336 336 336 336 336 337 336 336 336 336 336 336 336 338 340 340 344 347 344 347 348 351 349 347 345 342 344 345 346 346 350 351
326 325 327 329 330 332 328 328 330 330 331 333 333 333 334 334 335 336 336 336 336 335 335 335 335 339 339 341 345 344 347 349 351 351 345 345 344 346 346 346 346 349 350
322 322 325 328 327 330 331 329 329 330 330 330 331 332 333 333 334 335 336 335 335 335 335 335 335 338 339 339 343 344 347 348 351 350 342 341 345 346 348 346 347 350 350
322 323 326 326 329 331 330 329 329 330 329 329 329 329 330 332 332 334 334 334 335 334 334 335 335 337 338 338 341 343 346 350 349 349 345 344 346 346 344 343 344 349 351
320 322 323 329 330 330 329 332 333 331 328 327 328 328 329 330 333 330 330 331 334 334 334 334 335 337 338 340 337 340 343 348 349 348 347 343 346 347 344 343 343 344 347
322 322 322 329 331 331 330 331 330 329 329 329 328 330 328 328 333 332 329 329 332 333 333 334 334 336 337 339 336 333 337 348 349 350 348 347 346 344 340 343 341 342 348
320 321 326 329 331 333 332 330 329 329 330 328 331 329 331 329 329 330 330 328 332 332 334 336 333 336 339 340 336 335 339 347 350 352 350 348 346 346 345 344 343 344 347
319 326 329 330 333 333 332 331 330 330 330 330 330 330 332 329 330 328 328 329 330 332 334 335 334 336 339 339 337 337 340 346 349 351 353 347 345 344 344 345 345 347 348
320 327 328 331 334 334 333 333 332 332 332 331 330 330 333 331 331 331 328 330 334 331 331 333 333 335 337 336 335 337 342 344 347 349 350 345 342 339 344 345 346 347 347
323 328 328 330 333 334 334 333 333 332 332 331 330 332 332 333 334 332 330 327 329 335 335 334 336 337 336 335 335 337 342 345 346 347 350 344 342 343 343 340 347 348 348
325 324 328 330 332 334 335 334 333 335 334 334 334 333 333 334 334 334 334 334 336 335 334 331 332 332 332 333 333 334 343 345 345 346 348 347 337 338 340 343 344 347 348
323 324 327 330 332 333 334 334 335 336 334 336 335 335 333 334 334 336 336 336 337 334 334 332 330 332 330 332 332 335 343 344 345 346 339 339 339 337 337 341 343 345 347
323 325 327 331 333 333 333 333 335 336 337 336 331 327 332 335 333 336 337 336 336 332 334 334 334 332 332 332 331 337 341 343 344 340 338 338 339 338 337 337 339 347 344
322 324 328 328 332 329 330 330 332 331 329 334 331 328 327 332 333 333 333 334 334 333 334 335 335 333 332 334 332 332 337 340 338 339 339 338 336 336 336 336 337 343 341
319 322 328 328 329 328 331 334 333 331 331 326 327 327 329 330 333 333 335 333 334 330 334 334 335 331 334 337 328 329 321 326 335 336 336 333 333 334 334 335 337 337 337
320 321 324 327 329 331 336 338 336 335 332 333 329 329 329 330 332 333 333 333 333 333 332 336 336 334 330 335 334 327 319 318 323 331 330 331 332 332 333 334 336 339 337
321 324 324 327 331 332 336 332 333 332 328 330 334 334 330 333 329 330 334 334 335 333 338 337 341 336 335 330 335 332 334 330 319 316 326 329 331 330 333 335 335 335 336
323 324 329 328 330 334 335 333 330 331 336 335 336 332 333 335 334 333 333 334 335 337 337 336 337 338 336 329 331 331 330 328 328 321 316 318 322 328 333 334 335 334 337
323 324 327 327 327 332 334 333 332 328 329 328 329 329 329 333 335 333 332 332 337 338 338 340 339 339 339 340 335 335 325 327 324 322 320 320 317 318 329 332 333 335 339

GFSSE_sfc_thetae_009.txt.gz
Theta_e
335 344 354 354 353 349 348 348 347 346 346 344 341 338 337 337 336 334 333 334 336 340 341 342 341 343 344 344 349 352 354 354 354 355 352 356 358 358 360 359 359 355 358
331 341 354 355 352 349 349 348 348 349 348 346 342 339 338 338 337 336 334 334 336 339 341 344 342 341 344 344 347 349 352 353 354 357 358 357 357 356 356 359 359 355 358
330 337 344 355 353 351 352 351 351 350 349 347 343 340 339 338 338 336 336 335 336 339 341 343 343 342 344 344 344 348 351 352 353 356 356 350 351 355 353 353 356 356 356
330 335 335 353 355 354 353 353 352 350 348 346 344 342 340 340 339 339 338 337 336 338 340 342 343 343 343 344 343 346 349 349 351 352 351 350 353 354 352 354 355 355 354
330 332 337 354 355 353 353 353 353 350 348 346 344 344 342 341 341 340 339 338 337 337 339 341 342 342 343 344 344 344 347 349 350 351 349 351 351 351 352 351 353 353 353
326 327 340 343 342 346 351 351 350 347 346 342 340 342 341 340 342 340 339 339 338 337 339 340 341 341 342 343 345 344 345 349 350 348 348 349 352 349 348 347 347 347 349
325 327 329 342 341 343 346 346 344 342 341 340 340 339 340 340 340 339 338 338 339 338 336 338 340 341 341 343 346 344 344 348 349 349 347 346 345 345 343 343 341 343 343
326 329 330 339 341 340 336 334 334 335 335 335 336 336 336 336 336 336 337 338 338 337 337 337 337 338 340 340 345 346 344 348 349 349 347 346 346 344 342 341 339 343 345
327 326 328 329 335 335 335 331 328 330 331 332 333 333 333 334 335 335 336 338 338 338 337 336 336 336 338 339 341 345 344 348 348 351 343 342 346 346 343 341 343 343 346
325 325 327 328 326 329 331 334 329 330 331 331 332 332 332 333 334 335 335 336 337 337 336 335 336 335 337 338 340 344 344 347 348 345 347 342 345 346 346 344 344 346 347
324 325 327 325 329 332 332 333 330 334 333 332 331 331 331 331 333 333 335 336 336 337 336 335 336 336 337 338 339 341 344 344 349 347 347 345 346 348 345 344 345 344 347
322 324 324 326 332 334 331 333 333 332 333 332 331 331 330 331 332 332 331 332 334 336 335 334 335 336 336 336 337 340 338 343 348 348 346 345 345 347 347 344 344 344 346
324 325 324 330 334 334 332 331 331 332 331 331 330 331 331 329 331 335 333 330 333 334 333 332 333 333 331 335 337 335 332 342 349 350 347 344 345 345 341 343 343 343 345
323 323 328 332 334 336 334 331 331 331 332 330 331 334 331 330 334 332 331 331 334 333 335 337 332 333 334 339 338 336 331 342 348 352 348 347 345 344 343 342 341 342 343
323 324 330 334 336 336 335 333 333 332 330 332 331 332 332 333 333 330 330 332 331 331 334 337 333 333 336 336 339 336 332 342 346 351 351 346 344 343 343 341 341 341 343
322 327 331 333 335 335 334 336 334 336 333 333 331 330 333 332 333 331 333 331 333 335 332 337 335 333 333 338 337 336 336 343 346 349 352 348 343 342 342 342 343 342 344
323 329 330 332 332 334 336 335 336 337 338 334 334 334 332 335 335 334 334 334 336 339 338 339 332 334 335 336 336 336 336 343 346 347 350 348 344 343 342 343 343 344 344
325 325 329 330 331 334 335 335 335 337 337 337 333 332 334 334 334 335 333 334 336 338 334 331 330 330 333 333 332 332 337 343 345 347 348 346 343 343 341 341 343 342 344
325 326 327 331 331 334 336 335 337 338 339 338 334 332 332 335 334 336 337 335 336 339 333 331 331 333 334 331 331 334 339 343 346 346 344 343 341 338 337 337 338 340 342
325 329 328 331 334 334 334 334 338 337 337 338 332 328 329 334 334 336 338 336 337 336 333 334 335 336 331 330 328 336 340 344 345 341 336 339 335 334 336 336 335 336 340
325 329 329 328 333 332 331 331 337 337 332 334 335 330 331 333 333 335 338 337 337 335 335 337 334 334 332 332 333 336 338 341 336 338 335 336 336 334 335 334 335 335 340
325 327 328 328 331 333 335 335 334 335 334 331 334 334 332 332 333 334 335 332 334 332 335 335 337 329 328 335 328 328 323 329 331 335 334 337 335 335 333 334 334 334 335
323 327 328 328 332 336 338 338 337 337 336 335 334 332 333 332 333 334 334 333 333 334 333 338 335 333 329 336 335 329 320 319 324 330 332 335 334 333 333 334 334 334 335
323 328 329 330 333 335 337 334 334 334 332 337 335 336 334 334 333 334 334 334 335 333 336 336 340 337 335 329 334 339 335 330 321 318 329 330 330 331 331 332 333 334 335
323 327 330 332 333 334 336 336 335 335 335 337 336 333 335 335 333 333 334 335 336 340 340 337 338 336 341 331 336 336 333 329 329 321 317 321 327 330 331 332 333 334 334
323 327 329 331 331 333 334 334 334 333 333 333 329 332 331 334 333 334 334 335 337 338 338 340 339 339 338 338 339 333 331 326 323 325 319 320 321 322 330 332 332 334 334

GFSSE_sfc_thetae_012.txt.gz
Theta_e
341 342 354 355 354 352 350 349 348 346 346 345 343 342 340 339 337 335 333 333 334 335 338 341 342 342 342 344 344 349 353 353 354 354 354 357 356 355 355 358 359 355 360
343 346 354 355 354 352 351 350 350 350 349 347 346 344 342 340 338 338 336 334 334 335 337 340 345 343 341 344 344 348 350 352 354 354 354 355 356 356 355 356 357 355 358
339 348 348 355 354 353 352 352 351 351 351 349 347 345 342 340 339 339 338 337 335 335 337 339 343 344 343 343 344 346 349 352 351 354 356 349 349 356 355 354 354 355 355
333 345 347 354 354 354 354 353 352 352 351 348 347 345 342 341 340 340 340 339 338 337 337 338 342 343 344 343 344 345 347 350 351 353 350 347 349 355 353 355 349 351 353
335 337 349 354 354 355 354 354 354 352 350 348 346 345 345 343 342 341 341 340 340 339 338 338 339 342 343 344 346 347 347 348 350 350 347 347 349 353 353 353 353 354 353
326 336 350 354 353 351 350 351 351 349 348 346 343 342 343 341 342 342 339 340 340 340 339 338 340 341 342 342 346 347 347 347 348 347 347 348 348 352 352 352 351 350 352
330 332 337 346 343 344 344 345 344 341 340 340 340 340 339 340 340 340 339 339 339 340 340 338 339 340 341 341 343 346 347 344 345 344 346 347 347 350 351 349 348 347 348
329 335 338 343 344 343 344 343 339 334 333 334 335 335 336 337 337 337 336 336 337 338 339 339 338 339 341 341 341 345 347 344 345 343 345 343 348 349 347 344 344 342 343
330 331 333 334 340 343 342 337 333 331 330 331 332 333 333 334 334 335 335 336 337 339 339 339 339 340 340 341 340 343 346 344 342 343 345 343 346 346 345 342 342 339 339
325 325 332 335 332 336 336 337 334 332 333 332 333 333 333 332 333 334 335 336 337 338 338 338 338 339 339 339 340 340 343 344 342 344 343 344 346 346 344 342 342 340 344
324 330 332 327 333 335 335 335 336 335 334 334 334 332 331 330 330 332 334 336 337 337 337 337 338 339 338 339 339 339 341 338 341 344 342 346 347 348 346 342 342 343 344
325 327 329 332 335 337 332 337 337 336 336 336 333 333 331 331 331 331 332 333 334 336 337 337 336 336 335 332 335 338 337 335 341 343 343 347 346 348 347 345 344 344 344
327 328 328 335 339 338 335 335 333 334 335 335 334 334 334 330 329 330 332 332 333 334 333 334 332 332 331 329 332 334 335 334 340 344 344 347 347 346 345 344 343 342 343
327 330 333 338 338 342 338 333 333 334 334 332 333 335 332 330 332 332 331 331 332 332 331 333 330 331 331 331 334 336 333 332 340 340 345 346 345 345 346 344 342 342 342
329 328 334 337 341 343 341 337 337 336 332 334 333 331 332 332 331 331 331 331 331 330 331 330 331 332 328 333 334 337 334 336 342 342 343 346 345 344 344 344 343 340 340
329 332 335 338 341 341 338 339 337 337 334 334 333 328 333 332 331 332 332 331 330 330 332 331 331 331 332 334 335 336 336 338 342 342 342 342 344 343 343 342 342 341 344
330 335 336 336 338 340 339 338 337 336 337 334 336 332 334 333 332 334 331 331 330 330 331 331 331 332 332 335 335 335 335 337 340 341 342 340 341 343 343 341 343 343 344
332 334 336 331 335 340 340 339 338 339 338 337 337 333 332 333 334 333 330 331 332 332 328 330 330 330 330 332 332 333 334 338 340 342 341 340 338 339 341 341 341 341 343
333 335 334 337 336 339 339 333 339 339 339 338 338 332 330 331 334 334 330 332 333 330 329 330 328 328 330 330 332 331 335 336 340 342 339 339 338 337 337 340 338 341 342
332 335 337 337 339 339 337 339 340 339 337 339 335 330 330 330 333 335 332 331 333 329 328 328 328 330 330 330 330 331 334 336 340 336 337 338 337 335 334 336 335 337 339
332 334 337 337 340 338 336 335 336 337 336 337 337 333 331 332 332 334 332 329 333 330 328 329 329 328 328 330 327 327 331 336 334 333 335 332 332 333 333 333 333 334 335
330 333 336 337 339 340 338 338 338 336 336 335 336 334 333 331 333 335 332 330 332 331 330 329 329 326 327 328 326 324 320 325 329 331 332 330 330 332 331 332 333 333 334
329 331 334 336 340 341 341 340 338 337 335 332 333 330 331 333 333 334 334 331 331 333 331 329 330 327 325 327 329 326 319 317 323 328 329 330 330 330 330 331 332 332 333
327 331 334 337 340 340 340 337 335 332 330 332 328 333 330 333 333 333 334 332 332 332 331 331 330 327 325 324 330 332 330 325 319 318 327 328 330 330 329 330 331 332 334
327 330 334 337 340 341 341 339 335 333 334 335 332 331 329 328 334 333 333 334 332 332 332 333 330 329 327 327 328 328 328 327 325 320 316 322 327 329 330 331 331 332 334
325 329 334 336 338 340 340 339 334 332 331 331 329 329 331 332 332 334 333 335 335 332 334 336 333 330 330 331 331 329 327 323 321 321 320 320 321 326 330 331 331 331 331

GFSSE_sfc_thetae_015.txt.gz
Theta_e
333 342 354 355 353 352 350 347 346 345 345 343 341 341 340 338 335 334 332 331 331 332 334 337 339 342 341 341 343 346 349 351 352 355 354 355 356 353 353 359 359 355 359
336 343 354 354 354 352 351 350 349 349 348 346 345 344 342 340 339 337 335 333 333 333 335 336 338 344 343 340 342 344 346 351 352 353 354 355 355 354 353 357 357 356 358
338 343 350 354 354 353 353 352 351 351 350 348 347 346 343 341 340 339 339 337 336 336 336 336 337 342 345 342 341 343 346 349 351 351 353 348 351 356 354 354 356 356 355
341 344 346 354 354 354 353 352 352 352 351 349 348 347 344 342 341 341 340 340 340 339 338 338 337 340 343 345 341 343 345 347 350 351 347 348 348 354 353 355 354 354 353
339 340 344 354 354 355 354 353 353 353 351 348 346 345 345 344 344 343 341 342 341 341 340 339 338 337 341 343 344 345 345 345 348 348 345 344 346 352 354 351 351 349 350
327 341 350 353 354 355 353 353 353 351 349 347 344 344 341 340 344 343 340 340 340 341 341 340 339 338 339 342 343 346 346 344 346 345 343 345 346 355 355 354 352 352 351
330 340 347 353 352 350 347 347 348 344 342 340 340 340 340 340 339 340 340 340 340 340 340 340 340 340 341 341 341 343 346 343 341 342 342 344 344 350 355 354 354 354 353
327 331 336 347 347 347 348 348 346 342 338 336 336 335 335 337 337 338 338 338 338 338 338 339 340 341 341 339 340 341 344 343 341 341 342 342 346 350 352 351 350 350 350
323 328 330 334 340 348 347 346 342 337 334 334 333 333 333 334 334 335 335 336 336 337 337 339 340 340 341 340 339 340 342 343 338 339 343 340 350 351 351 349 348 347 345
318 318 320 328 331 331 333 342 338 335 335 335 334 334 334 333 333 333 334 334 336 337 337 339 339 338 340 339 340 339 341 343 338 340 343 342 349 350 349 346 344 342 342
317 315 316 319 322 325 326 331 338 338 337 336 335 335 331 325 325 328 331 334 337 337 337 338 338 338 339 338 338 339 340 336 337 341 344 348 349 350 347 345 342 342 345
316 318 319 322 324 326 330 327 328 328 329 328 327 325 323 323 323 328 330 334 335 336 337 337 338 337 336 328 329 337 333 334 337 342 342 348 349 349 347 344 342 344 344
316 318 320 322 326 325 325 326 325 325 325 325 325 325 324 325 323 323 324 325 325 332 329 333 332 330 329 326 325 330 332 332 336 342 344 347 347 348 347 345 343 345 342
315 319 324 326 325 326 327 325 324 325 324 323 325 326 324 323 323 323 324 323 324 325 325 326 326 326 326 326 324 330 332 329 335 339 342 347 345 346 347 346 344 344 341
315 319 323 324 325 328 327 325 325 325 325 325 325 325 326 324 323 322 323 323 322 323 325 324 325 326 325 325 325 331 329 330 336 338 338 347 346 345 346 345 344 342 341
315 320 322 324 326 326 325 324 326 327 327 326 325 326 327 327 322 322 322 322 322 322 324 324 325 326 325 323 326 331 331 333 336 337 339 343 345 345 345 345 343 343 344
315 321 322 322 324 324 324 326 327 327 328 327 326 327 326 327 323 322 323 323 322 322 323 324 324 325 325 327 327 329 330 333 334 337 339 340 341 345 344 343 344 343 341
318 320 322 326 322 325 325 326 327 327 327 327 327 326 326 328 325 323 323 324 323 322 322 323 323 324 326 326 325 324 329 331 334 334 339 339 339 338 341 342 341 340 342
318 319 321 323 323 325 324 326 326 328 327 327 327 324 324 326 327 324 323 324 323 323 321 323 322 323 322 323 324 324 328 328 331 334 337 337 337 337 337 341 341 341 342
320 321 322 322 323 324 324 326 326 327 327 327 326 324 324 323 326 325 324 323 323 321 321 321 321 322 322 321 327 327 329 328 329 332 336 337 337 336 336 335 336 337 340
319 321 322 322 321 322 324 323 323 322 325 327 328 327 325 325 326 324 324 323 324 320 320 321 320 322 321 321 320 321 325 330 330 333 336 335 334 334 335 333 335 336 335
317 319 323 321 322 324 325 326 326 326 327 326 326 328 328 327 326 325 325 323 323 322 323 321 320 318 319 322 319 319 318 323 327 329 331 331 331 332 332 332 333 332 333
317 319 321 322 324 326 326 326 325 325 325 324 324 326 325 329 327 326 325 323 323 323 322 321 320 319 318 322 322 321 317 315 321 327 327 329 329 329 330 331 331 332 333
318 319 322 324 325 328 326 324 322 320 319 323 325 326 325 329 327 327 325 324 323 322 322 323 323 320 320 319 321 326 322 322 318 318 325 326 328 327 328 329 330 331 332
318 320 321 323 325 326 326 325 323 322 323 323 321 321 321 323 327 328 326 324 323 323 323 325 322 321 322 323 320 320 321 321 323 321 317 321 326 327 327 328 329 331 332
318 319 323 323 324 325 325 325 323 322 323 321 319 320 321 325 326 327 327 325 323 323 324 325 323 322 318 322 322 322 321 320 321 320 319 320 321 323 327 329 329 331 333

GFSSE_sfc_thetae_018.txt.gz
Theta_e
331 339 354 354 352 350 348 346 346 345 344 342 340 340 339 338 337 335 333 332 331 331 333 333 335 338 340 339 341 343 344 349 351 353 355 356 354 354 357 358 357 353 357
333 342 354 353 353 351 350 349 348 347 346 343 342 342 342 340 339 338 337 334 333 333 333 335 335 337 342 342 339 342 342 347 351 351 354 354 355 354 356 356 355 353 355
333 343 350 354 354 353 352 351 350 349 347 345 345 345 344 343 340 339 339 338 337 336 336 336 336 336 341 344 340 341 342 344 349 351 353 348 349 355 354 358 355 356 357
335 341 346 354 354 353 353 352 352 350 348 347 347 346 346 344 341 340 340 340 339 340 339 339 338 336 339 343 344 341 342 343 347 349 347 347 349 354 354 356 354 356 355
335 340 344 354 353 354 352 353 352 350 349 348 347 345 345 344 343 344 341 342 341 341 340 339 339 339 337 341 344 344 343 343 345 347 345 344 344 351 355 355 353 353 354
337 340 347 354 353 354 354 353 352 349 349 348 347 345 343 342 344 344 342 341 341 341 340 340 340 339 339 339 342 343 343 343 343 342 342 344 344 352 355 355 353 353 351
334 338 347 354 354 354 353 352 352 351 350 347 345 343 342 342 342 342 340 340 340 340 340 340 340 341 342 341 342 342 343 343 338 339 341 341 345 350 352 352 351 352 352
337 341 345 352 353 354 353 351 350 350 346 344 342 341 339 339 338 338 338 339 338 338 339 339 340 341 341 340 340 340 342 343 339 339 340 340 344 350 352 353 353 351 346
332 334 337 341 345 350 348 349 348 345 343 340 337 335 334 334 335 335 335 336 336 337 337 338 339 342 339 340 339 340 341 342 336 337 341 340 347 350 351 352 352 353 352
326 326 327 329 334 336 338 346 345 343 339 338 336 335 334 335 335 334 334 334 335 336 335 337 338 339 339 340 340 339 340 342 335 337 339 340 348 350 351 350 350 350 349
316 314 320 324 326 327 328 333 342 339 337 337 335 336 335 327 326 327 330 333 334 337 336 337 338 338 338 339 337 338 339 334 335 336 341 345 349 349 350 348 348 345 344
311 313 317 320 321 323 328 324 329 328 328 328 328 326 322 322 321 326 330 333 334 335 336 336 337 338 337 329 329 335 331 333 333 337 342 347 349 350 349 348 345 343 343
314 317 317 320 322 323 323 323 322 322 322 324 325 323 322 323 322 322 321 324 322 329 327 331 331 331 329 326 325 327 330 332 331 340 342 348 348 348 348 347 344 346 346
313 317 319 322 322 322 324 324 322 323 322 322 323 324 321 321 321 321 322 322 321 323 324 325 326 326 327 326 324 324 330 330 331 339 340 347 347 347 347 346 344 345 345
316 320 322 322 323 325 324 323 322 323 324 323 322 323 323 321 321 322 321 320 320 320 322 322 323 324 324 325 324 325 329 329 332 337 337 347 346 346 347 347 345 345 343
317 320 320 322 324 325 323 322 322 323 325 324 324 324 325 323 323 323 320 320 320 320 321 322 323 322 322 323 322 325 330 328 333 335 337 341 345 345 345 346 345 344 342
318 319 320 321 322 322 321 321 323 324 326 324 324 324 325 323 322 321 320 320 320 321 320 321 321 322 322 324 322 325 328 330 333 333 335 337 342 344 344 344 344 343 343
318 318 321 326 320 322 321 322 324 325 324 325 324 324 326 325 323 320 320 321 322 320 319 320 320 320 321 325 321 323 325 329 332 333 335 335 338 339 342 344 343 342 343
318 318 320 320 321 322 322 321 323 324 324 325 325 325 324 324 324 321 321 321 322 320 318 320 319 320 323 323 321 322 324 326 328 335 336 337 336 336 337 342 343 341 341
317 319 319 319 322 321 320 323 323 323 325 325 325 324 325 323 324 321 321 321 321 319 318 318 317 320 321 323 324 322 322 323 326 331 333 335 335 335 334 337 338 338 339
318 319 318 319 320 320 322 320 321 321 321 323 324 327 326 322 322 321 321 321 320 318 318 318 318 320 318 319 318 318 322 325 325 332 332 335 333 334 334 333 335 336 337
317 319 320 318 320 322 323 322 323 323 323 323 324 327 328 325 324 323 322 320 320 318 318 318 318 317 316 319 316 318 318 321 327 332 334 333 333 334 332 333 333 333 334
315 318 319 320 321 324 323 323 322 321 322 321 321 325 325 328 326 325 324 321 320 318 320 318 318 318 316 318 321 317 315 313 321 325 328 330 330 331 331 331 330 332 331
314 319 319 321 323 324 324 321 318 317 317 319 319 321 321 325 327 325 323 321 320 319 319 319 319 318 318 317 320 323 320 323 317 316 324 326 328 328 329 329 329 330 330
316 317 320 321 324 324 323 322 319 317 319 320 318 319 320 323 326 326 323 322 321 320 320 321 319 318 320 320 318 319 318 321 321 320 316 320 325 326 328 329 329 330 331
315 317 319 321 322 323 322 321 319 317 318 317 316 317 319 322 323 325 324 321 322 320 322 320 319 318 320 320 320 323 320 317 319 318 319 319 319 323 326 328 329 330 331

GFSSE_sfc_thetae_024.txt.gz
Theta_e
326 332 354 354 350 347 346 344 342 341 341 339 338 337 336 335 334 333 332 331 330 331 332 332 332 332 333 334 335 336 340 342 347 352 352 353 355 356 356 357 358 354 358
329 333 354 354 351 348 348 346 345 345 343 341 340 339 338 338 337 336 335 334 333 334 335 335 334 334 333 336 336 336 337 340 343 349 352 352 354 354 355 356 357 355 357
326 334 349 354 352 350 350 350 349 347 345 343 341 340 340 340 339 339 339 338 337 336 337 337 337 337 335 335 339 339 337 338 340 346 350 350 351 354 354 356 357 357 357
328 335 346 354 352 352 351 350 349 348 346 344 342 340 340 341 341 341 340 339 339 338 339 339 339 339 339 336 337 343 340 338 339 341 347 349 346 353 354 356 356 357 356
329 337 343 354 353 352 352 351 350 349 348 344 343 343 343 343 344 343 340 339 339 340 340 340 339 340 340 340 337 341 344 340 340 339 344 346 347 350 352 354 355 356 357
331 337 344 353 353 353 353 352 351 349 348 346 345 345 345 344 343 343 342 341 340 340 341 340 340 339 341 341 340 341 342 343 341 338 341 344 347 349 353 355 353 353 356
330 335 341 352 353 353 353 352 352 351 350 349 346 346 346 344 343 342 342 342 341 340 341 339 339 341 342 342 342 343 340 343 341 338 339 342 345 347 351 354 354 354 353
329 333 338 351 353 353 353 353 352 351 350 350 348 349 347 346 343 342 341 340 340 339 339 340 340 342 342 342 341 343 340 342 341 338 338 341 343 347 350 351 353 352 351
330 333 336 344 350 353 353 352 352 351 351 351 351 349 346 342 339 338 337 337 337 337 338 339 339 340 341 341 340 341 341 341 339 338 337 340 343 347 350 351 352 351 348
329 332 334 339 345 343 346 353 352 352 351 351 347 344 342 338 337 336 337 336 336 336 336 337 336 338 340 340 340 339 340 340 340 337 338 339 344 347 349 349 350 352 351
325 329 331 334 337 337 338 343 351 348 346 345 342 341 338 330 330 333 334 335 333 334 335 336 336 338 339 339 338 338 340 336 337 337 338 340 344 348 348 351 350 349 348
320 320 326 328 331 331 334 331 332 333 331 331 331 329 330 329 327 329 331 334 332 333 334 335 336 337 336 333 333 338 336 334 335 336 338 341 343 347 349 349 349 346 340
319 318 321 324 325 325 323 322 322 324 325 325 327 327 326 325 324 325 325 325 325 328 327 328 328 331 332 331 331 332 332 333 334 335 338 340 343 346 348 349 349 346 343
311 315 317 320 320 320 321 321 322 322 322 321 323 325 323 321 321 321 321 322 322 323 323 324 326 329 330 330 330 330 329 331 332 334 337 339 343 345 348 349 350 347 346
309 312 316 318 318 319 320 321 320 320 322 322 322 323 322 321 320 321 321 322 322 322 321 322 324 326 327 328 328 327 328 328 331 333 336 337 342 344 346 349 349 348 346
310 313 316 318 319 320 321 321 320 320 321 322 322 322 324 322 321 321 321 322 321 321 322 321 323 325 326 327 326 327 327 328 330 332 335 334 341 343 346 347 347 348 346
311 315 318 318 320 321 321 321 320 320 322 322 323 324 324 323 322 322 321 321 321 322 322 321 322 324 324 324 325 325 326 327 329 331 334 335 339 342 344 346 346 347 346
315 317 318 323 321 321 320 320 320 321 322 322 323 324 325 325 324 322 321 320 321 321 321 321 321 321 322 323 324 324 325 327 329 330 333 336 338 341 343 344 346 345 345
317 317 319 321 320 320 319 319 320 322 322 323 324 324 325 326 326 322 321 321 321 321 320 320 319 321 320 321 323 324 324 326 329 332 333 334 337 339 342 343 343 343 344
318 319 319 319 319 319 319 319 320 321 322 323 324 324 326 326 326 322 321 322 322 320 319 319 319 321 322 323 325 322 324 326 328 331 330 332 337 337 338 339 342 340 343
318 318 317 318 318 317 318 319 319 320 321 322 323 325 325 327 325 322 321 322 322 320 319 319 320 321 321 323 319 320 322 323 325 329 334 332 333 335 336 338 339 340 339
318 317 317 318 317 318 320 319 321 321 321 322 323 324 326 327 325 322 320 322 321 319 318 319 320 319 321 322 318 318 316 320 325 328 331 332 331 335 334 336 337 338 337
315 316 316 317 318 321 321 320 320 319 319 320 321 322 323 325 326 326 324 322 321 319 318 318 320 321 319 321 321 319 314 312 320 327 328 330 330 331 331 334 335 336 336
315 317 317 318 320 321 321 319 317 316 315 318 319 320 321 323 326 326 324 323 320 319 318 319 320 321 322 318 322 324 322 323 316 316 326 327 330 329 329 331 333 334 333
316 316 317 319 320 320 321 319 317 316 317 318 318 319 320 322 325 325 323 321 320 319 319 320 320 321 322 321 321 322 322 323 323 319 317 321 326 328 329 329 330 332 330
315 316 318 319 320 320 320 319 317 316 316 316 317 318 319 322 323 324 323 321 321 320 320 321 321 321 321 323 323 321 323 323 320 321 319 320 320 323 327 328 329 330 330

GFSSE_sfc_thetae_027.txt.gz
Theta_e
328 334 355 353 351 347 345 343 343 341 340 339 338 337 336 335 335 333 331 331 331 331 332 332 331 331 331 333 334 335 338 340 344 350 353 353 355 357 359 358 358 354 358
333 336 355 353 351 349 349 347 346 345 344 340 339 339 338 337 336 336 335 334 334 334 334 335 335 333 332 333 335 335 335 338 340 346 351 352 354 356 356 357 357 355 358
332 339 350 354 352 351 350 350 348 347 346 344 341 340 339 339 339 338 338 337 337 337 337 338 338 337 336 334 336 339 337 337 338 341 348 353 353 354 356 356 357 358 357
334 342 345 354 352 352 351 351 350 349 347 345 343 341 340 340 341 341 341 340 339 339 338 338 339 340 339 338 335 339 342 337 337 339 346 352 354 354 356 356 356 357 357
336 343 348 354 353 352 352 352 351 350 348 345 342 342 342 342 342 343 342 341 339 339 338 338 340 342 341 340 340 338 341 342 339 338 339 349 354 352 355 356 356 356 356
335 341 347 353 353 353 352 352 351 350 349 347 345 345 344 343 346 346 344 343 341 340 340 340 343 341 340 340 342 340 340 343 342 339 339 344 351 353 353 355 356 356 353
335 339 344 353 354 353 353 352 352 351 350 349 348 346 346 347 345 345 343 342 342 341 340 340 341 343 344 343 342 342 340 341 343 341 341 339 349 349 351 354 354 353 353
337 340 344 351 354 353 353 353 352 351 351 350 349 349 348 348 346 344 343 342 341 341 341 340 341 342 342 343 343 342 341 340 340 342 342 339 345 346 350 353 353 351 351
340 340 345 347 352 353 353 352 352 352 351 351 350 350 350 348 346 342 339 338 338 338 338 339 339 340 341 340 340 341 341 341 339 340 341 341 342 346 349 350 351 350 349
338 340 343 347 348 348 349 353 353 352 352 351 350 350 350 345 341 338 339 337 337 336 337 337 338 340 340 340 340 339 340 341 341 339 341 341 341 344 348 351 350 351 350
334 338 340 341 346 347 347 348 353 351 351 351 348 347 344 339 337 337 337 337 336 335 335 335 336 337 339 339 338 338 339 338 339 339 339 342 342 343 348 349 350 350 350
332 335 338 341 344 346 345 348 348 346 344 345 343 342 340 339 339 336 336 335 335 334 334 335 335 337 337 338 335 338 336 337 338 338 337 341 343 343 347 348 349 348 348
331 334 336 341 344 345 343 344 342 341 341 340 342 342 340 337 338 337 336 335 335 333 333 333 333 333 333 336 335 336 336 337 337 337 338 341 342 342 345 348 348 348 349
328 332 335 340 342 344 341 338 336 334 335 335 337 339 338 336 336 335 333 333 334 332 333 333 332 333 335 336 336 336 336 336 337 336 337 340 340 342 345 348 348 348 346
326 328 331 337 340 339 337 334 334 334 333 335 335 336 335 334 335 335 334 332 332 332 331 331 331 332 333 336 336 335 336 336 337 336 336 339 339 341 344 347 349 348 347
326 325 330 334 337 335 334 336 335 336 335 334 334 334 336 334 334 333 332 332 332 333 332 331 330 331 332 334 334 336 335 336 336 334 334 339 337 339 343 346 348 348 346
325 325 328 332 334 334 334 335 336 334 334 333 334 336 336 336 336 335 333 333 333 333 333 332 332 332 332 333 333 334 335 335 333 332 336 338 339 339 343 344 346 347 347
324 324 328 328 331 333 335 335 334 334 334 334 335 336 337 337 337 335 333 333 332 333 332 330 330 328 330 331 332 333 333 333 333 333 335 339 339 341 343 344 346 346 347
324 327 327 330 330 333 335 334 335 335 334 335 335 336 337 337 336 335 334 331 333 331 330 330 330 329 329 330 331 332 333 332 333 334 338 339 341 343 345 344 344 344 344
325 329 330 331 333 334 333 333 334 334 334 335 335 336 336 336 335 335 332 333 332 330 329 329 330 329 330 331 330 330 333 335 337 337 337 338 337 344 346 346 348 344 343
326 328 330 331 333 332 330 330 331 331 334 334 335 336 335 335 335 334 332 331 330 329 330 330 328 327 329 331 327 324 326 329 333 337 336 336 336 341 344 347 348 345 344
325 327 329 332 332 332 332 333 335 336 335 334 335 335 335 335 336 334 331 327 330 329 330 328 328 326 328 329 326 327 319 326 329 334 333 334 335 338 342 343 344 342 340
325 327 330 331 332 332 335 334 334 334 332 332 333 333 335 333 334 333 330 329 330 331 328 328 328 329 326 328 331 326 317 318 323 332 331 334 337 335 335 338 341 341 340
325 329 331 331 332 334 335 334 333 329 328 331 331 332 332 332 332 333 333 332 332 330 330 328 329 330 330 326 327 332 332 329 321 319 329 332 335 333 334 338 337 339 336
326 327 330 331 333 334 334 334 330 329 330 331 330 330 332 334 332 331 333 332 332 330 330 329 329 330 330 330 330 330 331 331 331 326 320 326 330 331 332 333 335 333 333
326 327 329 331 332 334 334 333 330 328 328 329 330 331 331 331 331 333 331 332 332 330 330 329 330 328 327 332 333 333 332 329 329 329 322 324 323 326 329 332 333 332 331

GFSSE_sfc_thetae_030.txt.gz
Theta_e
334 344 355 353 351 350 348 345 345 344 342 340 339 337 337 336 334 333 331 331 332 332 332 332 332 331 332 333 334 335 338 341 343 350 352 353 356 357 358 360 359 356 358
338 344 355 354 352 350 349 348 347 346 345 342 340 339 337 337 337 336 335 334 334 333 333 333 335 334 333 334 336 336 336 338 341 344 351 353 355 357 357 359 359 355 357
337 344 351 353 352 351 351 350 349 348 347 344 341 340 339 339 338 338 338 337 337 337 336 336 337 338 337 335 335 338 338 337 339 341 347 354 353 355 356 356 357 357 358
337 345 346 354 352 352 352 351 350 349 347 344 343 342 341 341 340 340 340 340 340 340 339 339 339 339 340 339 337 337 342 340 338 339 340 349 353 356 355 357 357 357 358
339 343 347 354 352 353 352 352 351 350 348 345 344 343 342 341 341 343 342 342 341 340 340 339 339 340 342 341 341 338 339 343 341 339 331 342 352 354 357 356 357 357 356
339 341 348 354 353 353 353 353 352 351 349 347 344 344 343 343 345 346 343 344 343 341 341 340 340 341 343 340 340 342 340 340 344 341 335 337 348 355 354 356 356 356 354
339 340 346 354 354 354 353 353 353 352 351 350 347 346 345 346 348 346 345 344 343 343 343 342 341 342 342 342 341 342 342 340 340 339 339 337 337 351 350 353 355 354 353
338 342 347 353 354 353 354 353 352 352 351 350 350 349 349 349 349 346 345 344 343 342 342 341 341 343 342 342 341 343 341 341 339 338 340 340 342 345 349 351 352 352 352
340 341 347 351 354 354 353 353 352 351 351 351 351 350 350 349 348 346 344 341 339 339 339 339 340 341 341 340 340 340 341 341 340 339 339 340 346 343 347 351 349 351 350
340 340 342 349 348 350 350 354 353 353 352 352 352 351 350 349 347 343 342 339 338 337 337 337 338 339 340 341 341 339 340 340 340 338 339 339 341 340 345 349 350 350 350
335 340 341 343 346 348 347 348 353 352 352 352 350 349 349 343 341 341 342 338 337 336 336 336 336 336 338 339 338 338 339 337 337 338 338 346 342 342 342 348 349 349 350
332 336 339 344 346 347 343 347 352 347 347 346 345 346 345 342 341 339 339 336 337 336 336 335 335 336 337 338 337 338 336 336 336 337 338 343 342 343 341 346 348 348 350
332 335 337 345 347 347 344 345 346 345 344 344 346 346 344 340 340 339 339 337 339 338 336 335 335 335 334 334 336 334 336 334 334 335 338 342 342 343 342 344 347 348 349
330 334 338 342 347 349 344 344 344 341 341 340 339 343 342 339 340 339 337 336 339 336 336 335 332 335 335 335 337 336 335 335 334 334 339 340 341 341 342 343 346 348 349
330 333 338 342 347 349 349 344 342 339 336 338 337 340 341 338 339 339 338 337 337 334 333 334 332 333 334 335 335 335 334 335 335 336 337 341 340 340 341 343 347 348 349
333 334 338 341 347 348 349 347 341 340 338 337 336 338 342 340 340 338 337 336 335 336 335 337 332 332 332 333 334 336 334 336 338 337 337 338 340 339 340 343 346 348 348
334 336 337 340 345 347 346 343 340 338 338 335 336 341 341 342 341 340 338 336 337 338 339 338 335 334 332 333 335 336 336 337 337 337 336 334 339 339 340 343 346 347 348
335 335 337 336 342 345 344 341 338 337 337 336 338 340 342 342 342 341 338 335 338 337 337 337 334 331 329 334 333 333 335 335 336 335 333 334 339 336 341 344 345 346 347
335 336 334 337 339 342 342 340 340 341 337 337 339 339 341 341 341 340 338 337 339 335 335 335 333 331 333 332 331 332 335 333 333 330 333 337 341 338 344 346 345 344 346
333 335 335 336 339 341 339 339 337 336 336 338 338 339 341 341 340 338 338 338 338 334 334 334 331 333 331 332 332 333 333 331 330 332 337 338 341 343 346 348 348 345 344
332 333 335 336 340 337 335 333 332 331 334 337 338 340 340 340 338 339 339 336 335 333 333 332 334 331 331 334 332 330 332 336 335 338 338 340 340 343 347 348 352 351 342
332 334 335 337 339 338 335 336 334 334 336 337 339 339 340 339 337 337 336 335 334 330 332 332 332 332 330 334 329 328 319 328 331 336 337 337 337 342 344 345 347 344 341
331 334 335 338 339 339 339 337 338 338 337 334 335 336 337 338 338 338 334 335 331 332 332 334 333 330 329 333 333 328 319 315 321 335 336 337 340 339 342 344 345 342 338
331 334 336 338 339 338 339 337 336 331 329 335 333 338 336 337 336 336 335 333 334 335 334 334 334 332 333 330 330 330 332 327 318 321 333 337 338 339 339 344 344 342 341
332 333 336 338 337 339 339 338 334 333 333 335 336 334 338 338 334 334 336 336 335 337 335 334 331 333 333 334 333 331 332 331 333 326 321 328 336 337 337 343 338 338 339
332 333 335 335 337 339 339 339 335 334 333 333 334 335 336 339 337 336 335 336 337 337 334 332 333 334 336 335 336 335 334 331 329 330 328 328 326 329 334 336 337 332 333

GFSSE_sfc_thetae_033.txt.gz
Theta_e
337 349 354 353 351 349 347 344 344 343 341 340 338 337 335 333 332 332 331 332 332 332 332 333 332 332 332 333 334 335 337 342 344 350 353 354 356 357 358 359 358 355 359
338 351 353 353 352 350 349 348 347 347 344 341 340 339 337 336 335 334 334 333 333 333 334 334 335 335 335 334 336 337 336 337 341 345 350 354 355 356 357 360 359 356 357
337 352 349 353 352 352 351 350 349 348 347 344 341 340 339 338 337 337 337 336 336 336 335 336 337 337 338 337 336 338 339 338 338 340 344 350 352 356 357 356 358 357 358
338 352 344 353 352 352 352 351 350 349 347 344 342 341 341 340 339 339 339 340 340 340 338 338 338 339 340 340 340 338 339 343 341 339 334 341 348 359 356 357 356 356 357
339 350 348 353 352 353 353 352 351 350 348 345 344 344 342 342 342 342 342 342 342 342 341 340 339 339 340 342 342 342 339 340 345 342 331 329 341 354 358 355 356 356 356
337 343 353 353 353 353 354 353 352 351 349 347 345 345 344 343 344 344 343 343 343 344 342 342 341 341 341 343 342 341 343 340 341 340 335 331 334 354 353 355 354 356 355
337 340 350 354 354 353 354 353 353 352 351 350 348 346 345 345 346 346 345 345 345 344 344 343 343 343 344 343 342 343 342 343 340 336 337 337 335 349 351 352 354 353 353
337 340 345 355 353 353 353 353 353 352 352 351 350 349 349 348 348 347 347 346 345 343 343 342 342 342 342 341 341 341 341 341 341 339 338 339 345 347 348 350 350 352 352
338 339 341 354 354 354 353 353 352 352 352 351 351 350 350 349 349 348 347 345 343 341 339 339 340 340 341 340 340 341 341 341 340 339 337 337 348 344 343 347 350 351 351
339 338 340 347 353 352 349 354 353 353 352 352 351 351 350 349 348 348 346 344 341 338 338 337 337 338 339 341 340 340 340 341 339 337 338 340 345 343 341 345 349 349 350
335 339 340 339 345 349 346 348 353 352 351 351 350 349 349 343 342 345 345 345 341 339 337 337 336 336 337 338 339 339 339 335 335 337 337 346 344 342 339 341 348 349 350
332 336 339 341 345 346 343 350 352 347 346 345 345 345 347 347 343 340 343 338 339 339 338 337 337 336 336 334 333 340 336 334 334 335 336 345 344 341 339 339 346 348 349
330 333 337 351 353 348 344 344 348 347 345 347 347 352 351 343 340 340 340 339 339 340 338 337 336 336 336 332 333 335 337 335 333 334 339 346 343 342 341 341 344 348 348
327 333 336 343 353 355 346 342 345 345 346 343 344 350 348 341 342 342 339 339 344 338 339 342 335 339 339 335 335 336 336 336 335 332 340 346 343 341 341 342 343 347 348
327 330 335 345 353 355 357 346 347 348 342 344 341 343 342 339 343 341 341 339 339 339 336 335 336 335 336 334 332 332 334 337 337 337 336 342 341 341 341 341 343 347 348
333 334 337 346 356 352 353 358 352 352 343 339 338 339 343 342 345 339 340 340 339 341 338 341 338 333 332 333 335 334 337 337 336 340 336 342 343 341 341 341 342 347 348
335 339 340 350 354 356 354 354 351 344 341 338 338 342 341 344 344 343 338 338 338 346 341 341 337 339 334 333 335 338 336 336 335 338 336 335 340 341 341 341 342 347 348
341 341 342 337 345 352 355 352 346 341 340 337 338 339 343 344 344 342 339 338 339 342 342 338 335 334 332 337 338 337 335 337 337 337 337 335 334 340 341 341 344 347 348
340 340 340 344 342 348 353 348 347 350 340 338 338 338 342 343 342 342 341 340 343 341 338 337 334 337 332 334 334 335 335 336 335 335 335 335 339 340 338 343 345 346 348
337 341 343 342 348 351 347 347 340 338 339 337 337 338 341 341 341 341 340 341 342 339 338 336 335 334 333 332 332 332 334 335 332 334 333 334 336 339 339 344 347 343 346
336 340 341 340 349 346 340 336 336 334 336 335 338 340 341 340 341 342 340 340 340 338 336 336 336 333 334 335 332 332 333 336 334 335 334 334 337 339 340 346 346 351 345
336 338 339 339 344 344 340 342 337 337 334 337 338 341 341 340 342 340 340 339 339 338 336 333 335 332 333 335 328 330 322 324 327 332 337 339 338 338 340 345 347 347 348
335 337 338 340 342 345 346 342 340 339 339 335 335 336 339 339 339 340 338 338 338 338 334 335 336 331 330 332 334 330 323 317 320 331 335 336 337 338 343 345 346 346 344
335 337 340 341 341 341 343 343 343 333 330 333 336 334 338 337 337 337 338 337 336 335 338 334 337 334 333 329 335 331 332 329 318 319 333 337 342 340 342 347 347 344 341
336 337 339 341 340 341 341 342 337 335 331 334 334 336 339 340 339 336 337 336 336 341 335 335 334 334 333 334 329 332 331 328 332 321 320 326 337 340 342 344 342 342 344
335 337 338 339 339 340 339 340 339 336 334 333 334 334 337 342 340 337 335 337 338 337 336 334 334 335 336 337 335 336 332 328 326 329 329 329 330 331 338 340 337 336 336

GFSSE_sfc_thetae_036.txt.gz
Theta_e
342 343 352 352 351 350 348 346 346 344 344 343 341 339 339 339 337 335 334 334 334 333 333 333 332 332 332 332 334 336 338 340 344 348 352 355 356 356 359 359 357 353 358
345 343 352 352 351 350 349 348 348 347 345 344 342 340 338 337 335 335 335 335 334 333 333 333 334 335 335 334 334 337 337 339 341 342 346 350 355 355 356 359 358 356 357
346 344 347 351 351 351 350 349 348 348 346 345 344 342 340 338 337 336 336 336 335 335 334 334 335 336 338 338 337 336 339 341 341 340 340 339 347 357 356 355 357 356 356
348 347 344 352 352 352 351 350 350 349 348 346 345 344 342 339 338 337 338 338 337 338 337 337 337 338 339 340 340 340 338 340 343 342 333 329 342 358 358 356 356 357 356
350 348 345 352 352 352 352 351 350 350 349 347 345 345 344 342 341 341 341 341 341 341 341 341 340 340 340 341 343 343 342 340 340 343 336 327 326 337 357 355 354 355 356
343 348 351 352 352 353 353 352 351 350 350 349 347 347 346 344 345 345 343 342 342 343 343 343 342 342 342 344 346 344 343 343 341 335 337 335 333 355 355 355 354 353 354
336 345 352 352 353 353 353 353 352 351 350 349 349 348 347 346 346 346 345 344 344 345 344 344 344 343 343 344 343 342 344 342 340 336 334 338 332 352 355 353 351 353 351
338 343 353 353 352 353 353 353 352 351 350 350 350 349 348 348 348 348 347 347 347 345 343 343 342 344 342 342 343 344 343 341 337 337 337 334 346 352 352 351 350 351 351
340 341 354 352 352 353 353 352 352 351 351 351 350 350 350 350 349 349 349 347 347 345 343 340 339 340 342 343 342 342 342 341 336 334 336 336 348 351 349 349 350 349 349
338 337 352 353 350 350 350 353 353 352 352 352 352 351 351 350 349 349 348 349 347 345 341 339 338 338 341 342 342 342 342 342 337 335 334 337 346 344 344 346 349 349 349
332 338 341 351 352 350 347 350 354 353 352 352 352 351 349 344 341 344 345 347 346 345 341 340 338 338 338 338 339 340 341 336 335 334 334 343 346 343 341 343 347 349 349
327 330 337 340 348 350 345 346 350 349 348 348 345 345 345 343 344 343 344 349 345 345 341 340 339 339 336 332 330 339 335 334 332 332 334 347 346 344 341 340 343 348 348
329 329 335 342 346 347 343 344 350 348 346 344 344 345 347 346 346 343 339 340 340 342 337 339 337 335 334 333 330 334 335 334 331 331 334 347 347 344 343 341 341 347 348
327 334 334 344 349 346 345 345 349 348 345 343 344 348 347 347 345 343 340 343 338 338 338 339 335 335 335 337 333 331 334 334 332 333 338 346 346 344 343 342 341 345 348
331 335 337 346 346 350 351 345 346 347 346 345 347 348 347 344 342 344 343 342 341 340 339 336 336 335 335 333 330 331 332 334 335 337 337 345 344 344 342 342 342 344 348
336 339 342 348 349 350 346 353 350 352 350 348 346 346 346 344 344 343 344 341 340 342 340 338 336 335 334 333 330 332 333 334 335 335 335 337 342 342 343 342 342 343 348
337 345 348 350 352 351 352 350 359 352 351 346 344 348 346 345 345 346 343 341 339 341 340 338 337 336 334 333 331 331 333 333 334 334 335 335 337 342 342 342 342 342 348
342 345 349 338 352 352 353 352 350 351 348 348 344 346 345 347 346 345 341 339 340 341 340 336 335 333 332 332 330 330 331 333 335 334 336 334 334 335 340 344 344 343 348
345 347 347 348 350 351 354 353 352 353 344 344 346 344 345 344 344 342 340 341 342 339 337 336 334 333 331 330 331 331 332 332 333 333 333 334 334 336 339 341 343 345 348
342 346 353 350 351 351 351 353 349 346 345 346 344 343 346 345 344 341 340 341 340 338 336 333 333 333 331 327 331 330 331 332 332 333 333 334 331 332 338 336 338 342 347
343 346 350 349 351 349 347 343 341 338 341 341 343 344 344 344 342 342 340 340 338 336 333 333 332 330 328 330 327 326 328 330 330 330 331 331 333 335 336 336 338 338 341
342 345 346 346 351 348 346 344 341 340 338 339 341 344 344 343 343 340 340 338 336 335 333 332 331 328 328 331 324 323 318 322 327 329 331 333 332 334 336 341 338 338 340
339 341 342 345 347 346 346 345 349 345 346 342 340 340 342 341 341 341 339 337 336 335 332 331 331 329 326 329 328 322 316 313 319 326 328 330 330 333 334 337 338 339 341
337 340 341 345 344 345 348 345 344 339 335 338 340 338 340 341 339 339 338 336 336 335 333 333 333 330 329 323 327 328 327 323 316 315 325 327 331 331 333 336 337 339 336
338 338 341 343 342 346 346 344 343 342 341 341 339 339 341 341 338 338 337 336 335 335 335 333 333 329 330 327 325 324 325 325 322 318 316 322 326 329 335 334 335 336 337
337 338 340 340 342 343 344 346 345 341 340 338 338 337 338 339 340 337 336 336 337 336 333 335 333 332 331 331 329 327 325 322 321 318 317 320 321 327 331 334 333 334 336

GFSSE_sfc_thetae_039.txt.gz
Theta_e
338 345 353 352 351 350 348 347 347 345 344 343 341 339 339 340 338 335 334 334 335 334 334 334 333 333 332 332 332 334 335 335 338 342 347 350 354 352 355 357 357 353 358
339 345 353 352 351 351 349 349 348 347 346 344 342 341 339 340 337 336 336 336 335 335 334 334 334 335 335 334 333 336 337 337 336 337 340 344 347 355 353 355 357 356 359
337 343 348 352 352 351 350 350 349 348 347 346 344 342 340 339 337 337 337 337 336 335 335 334 334 335 336 337 337 336 337 340 340 339 336 332 335 347 354 354 358 358 357
337 341 344 352 352 351 350 350 349 348 347 346 344 342 340 340 338 338 338 338 338 338 338 337 336 336 337 338 340 340 338 338 340 343 337 332 328 341 356 354 354 355 357
337 340 342 352 351 351 351 350 349 349 348 346 344 344 342 341 341 342 340 340 340 340 341 340 340 339 339 339 341 342 341 341 340 339 337 333 325 331 347 355 354 354 353
340 339 346 352 352 352 352 351 350 349 349 347 345 345 344 343 343 345 343 342 342 342 343 343 342 342 342 342 345 344 343 343 343 335 332 334 336 338 358 355 354 354 353
341 337 346 351 352 353 353 352 351 350 349 349 348 346 346 347 347 346 344 342 343 344 344 344 344 345 343 343 343 343 342 341 338 336 335 334 333 347 355 353 350 352 352
341 338 345 351 352 352 353 352 351 350 350 350 350 349 349 348 348 348 345 344 345 346 345 343 343 342 343 342 342 345 342 341 337 332 334 334 337 353 355 354 351 350 351
341 340 344 345 348 353 352 352 351 350 350 349 349 349 349 349 349 349 348 347 347 348 347 345 342 340 342 342 342 344 341 341 335 333 333 332 344 351 352 353 353 352 351
336 344 343 343 343 345 347 353 352 351 350 350 350 350 349 349 350 350 348 349 349 348 346 345 341 340 341 342 343 343 341 342 335 334 333 332 345 348 349 349 350 350 350
328 344 344 343 343 343 344 349 352 353 352 351 350 350 347 342 343 344 347 347 349 349 347 345 343 342 341 339 339 340 341 333 333 333 333 337 348 346 345 346 349 350 349
316 338 344 343 343 342 344 343 346 346 346 346 345 344 343 340 336 340 343 349 349 349 346 344 344 341 338 330 329 336 333 332 332 330 331 341 346 345 344 344 347 349 349
317 319 343 343 343 342 341 342 345 344 343 344 342 339 341 339 337 339 334 340 342 346 338 340 337 335 331 329 327 324 331 332 332 330 333 342 346 346 344 343 343 348 349
315 317 322 341 344 343 341 340 343 342 341 341 341 337 338 338 338 335 331 333 333 335 332 330 332 331 330 331 330 328 333 331 331 330 329 343 343 345 345 343 342 346 349
316 318 320 334 342 342 337 340 342 342 341 339 338 338 339 339 335 333 330 332 332 331 332 331 331 332 330 330 330 329 330 331 331 332 334 343 346 343 345 344 343 343 349
322 319 321 331 338 339 337 340 342 342 341 339 339 339 341 338 334 333 334 332 331 331 330 330 329 328 327 328 328 329 327 329 331 331 332 334 342 342 344 344 343 342 347
320 322 325 335 338 339 337 340 341 342 341 340 339 341 340 335 332 335 332 331 330 331 331 329 328 329 327 328 327 327 330 331 331 331 331 334 335 342 344 343 343 343 346
318 322 329 342 340 341 338 340 342 341 338 335 333 338 338 335 334 333 331 330 331 330 330 328 328 326 326 325 323 325 329 327 330 329 329 328 331 332 339 342 344 345 346
320 323 330 339 341 341 341 340 340 339 334 333 333 333 337 337 337 333 332 330 331 330 328 328 327 326 324 324 324 324 325 325 327 330 328 330 329 332 334 339 342 344 345
329 332 333 341 341 342 342 341 339 336 332 332 333 332 335 335 337 334 332 331 331 329 326 327 325 326 325 323 326 325 324 325 326 326 327 330 329 329 333 333 336 338 345
330 333 336 340 340 343 341 337 333 331 330 329 331 332 335 336 336 333 330 330 330 326 326 327 325 325 323 323 320 320 320 323 324 324 326 325 327 328 331 333 334 335 340
330 333 334 337 339 338 338 334 332 331 329 329 330 331 333 334 332 332 330 330 327 327 326 325 324 322 321 324 319 315 311 315 320 324 325 326 326 329 331 332 333 334 336
330 330 332 336 337 336 336 334 332 331 330 328 328 330 332 333 333 331 331 329 327 328 325 324 323 321 318 320 321 316 310 308 313 320 323 323 325 324 327 330 333 333 335
329 331 333 336 335 335 333 331 329 325 323 325 325 329 331 332 331 332 333 330 328 327 324 323 325 322 321 318 319 323 319 316 310 310 318 320 323 325 325 328 330 333 333
330 331 334 334 333 334 331 331 329 326 327 326 326 328 328 329 331 333 332 329 327 326 324 324 324 323 322 319 318 317 318 318 318 313 309 315 320 322 324 327 328 334 335
331 332 333 332 331 331 332 331 327 325 325 325 324 325 325 327 328 331 331 328 327 326 325 326 324 322 323 322 322 320 317 317 316 313 311 311 313 318 326 329 329 332 331

GFSSE_sfc_thetae_042.txt.gz
Theta_e
335 345 356 354 352 350 349 346 346 345 343 342 340 338 338 338 336 335 334 334 334 334 334 333 333 332 332 331 332 334 334 333 334 337 342 347 350 354 356 357 356 353 358
336 346 355 353 352 350 350 348 347 346 345 343 341 339 338 338 337 336 336 336 336 336 334 333 333 334 334 334 333 335 336 336 335 333 334 338 341 347 354 355 356 353 358
335 344 349 353 352 351 350 349 348 347 346 345 343 340 338 338 337 337 337 336 336 335 335 335 334 334 334 335 336 336 336 337 339 339 336 328 331 338 350 352 353 356 357
336 341 343 352 352 352 351 350 348 347 346 345 343 342 340 339 338 338 338 337 337 337 337 337 337 336 336 336 337 339 339 338 339 339 336 336 330 334 341 352 353 354 356
336 339 341 352 352 352 352 351 349 348 347 345 343 342 341 340 341 341 339 339 339 339 340 340 339 339 339 338 339 341 341 341 341 339 333 333 330 335 341 350 353 353 353
334 338 346 352 352 352 352 351 349 349 348 347 345 345 344 342 343 344 341 341 341 341 342 343 343 342 342 342 344 344 344 343 342 336 333 332 332 339 344 356 355 354 352
333 334 342 352 352 352 352 351 350 350 348 348 348 347 346 345 345 343 342 342 342 343 343 344 344 344 344 344 344 345 343 342 336 335 334 333 332 342 350 356 354 353 353
333 332 338 350 351 351 352 351 350 349 349 349 348 348 348 347 347 345 344 343 343 344 345 345 344 346 344 342 343 343 342 342 338 332 331 330 336 345 354 354 353 353 353
336 332 336 341 347 352 351 351 350 349 348 348 348 348 348 348 349 348 347 345 345 346 346 346 346 345 343 342 342 342 342 341 334 333 333 330 338 343 352 353 352 352 352
338 334 337 338 341 344 345 352 351 349 349 348 349 349 349 349 349 348 347 348 347 347 347 347 346 345 343 342 342 342 342 342 334 333 332 331 340 343 350 352 350 350 351
334 335 338 338 337 340 342 346 350 351 350 349 348 349 347 342 342 344 347 347 347 348 348 348 347 344 343 340 339 339 340 333 333 332 332 337 340 344 347 348 350 350 349
328 336 338 339 338 338 340 341 344 344 343 343 343 342 343 339 338 343 345 348 348 349 350 348 346 344 340 331 330 336 330 331 331 332 332 339 340 343 345 347 347 348 349
315 334 339 339 339 338 337 339 343 342 341 342 341 340 341 339 337 338 335 338 340 347 341 343 339 337 332 330 328 325 326 330 331 332 334 338 341 342 344 346 346 349 348
314 326 339 339 339 338 338 338 340 340 340 340 341 340 339 337 333 331 334 332 334 336 336 332 332 331 330 330 328 326 325 328 330 330 329 338 342 343 345 344 344 345 349
313 315 336 339 338 339 337 338 339 339 339 340 340 338 338 336 332 333 332 329 331 331 331 329 329 329 329 329 329 329 328 330 331 330 328 337 342 344 344 343 344 344 347
314 316 317 337 339 339 338 336 339 339 338 337 337 337 337 336 335 333 331 328 329 329 330 329 330 328 328 327 327 328 325 326 329 329 331 331 343 344 344 343 344 343 345
318 318 316 327 337 339 338 336 339 339 339 337 336 336 337 336 335 333 331 331 329 329 329 332 328 327 328 328 327 327 326 328 329 328 329 330 332 342 343 343 344 344 344
315 316 317 331 332 336 336 335 339 340 339 337 336 337 338 338 335 332 330 329 329 328 329 327 326 325 326 323 323 323 324 326 328 328 328 327 332 333 339 341 342 343 343
317 316 319 332 333 333 333 337 337 336 337 332 335 337 338 336 334 331 330 329 329 328 327 326 325 323 322 322 323 323 323 323 324 328 326 327 329 331 330 336 340 343 344
317 316 323 333 333 335 337 336 334 331 329 330 332 335 335 334 334 330 330 329 328 326 325 325 324 324 323 322 325 324 321 323 323 324 325 327 327 329 330 330 332 337 344
325 326 329 334 335 338 337 334 329 326 327 328 329 332 333 332 332 330 329 328 327 326 325 324 323 323 323 324 321 319 320 323 321 322 323 324 326 327 326 330 330 332 337
326 329 333 334 335 336 334 331 330 328 326 327 328 329 333 333 332 330 329 327 327 326 326 325 322 322 322 323 316 315 312 312 318 321 321 323 323 325 327 331 331 331 333
328 329 333 334 335 335 334 331 328 327 327 326 325 325 328 332 331 330 328 326 326 327 325 323 323 321 317 318 318 314 308 306 310 316 320 321 323 321 325 328 330 330 331
326 328 333 335 334 334 332 329 327 324 322 323 324 325 329 331 330 330 328 328 328 325 323 322 323 320 318 315 317 321 316 313 308 310 316 319 320 322 322 324 327 330 331
327 328 333 332 332 330 330 328 325 322 322 322 325 326 325 326 329 331 330 327 325 324 323 322 321 321 319 317 316 316 316 315 314 310 307 313 317 319 321 323 325 327 331
329 331 332 330 329 329 328 327 325 324 322 322 322 322 323 324 325 327 330 325 325 324 322 322 323 321 319 319 317 317 315 313 314 312 309 310 311 316 324 326 328 331 331

GFSSE_sfc_thetae_045.txt.gz
Theta_e
331 343 355 353 350 348 347 346 346 345 344 343 341 339 338 339 337 336 335 335 334 333 333 333 332 332 332 332 332 333 333 333 333 336 340 345 348 351 353 355 356 353 356
333 345 355 353 351 349 348 347 346 346 345 344 340 339 338 338 337 336 335 336 336 336 335 334 334 333 333 333 333 333 334 334 334 335 335 336 339 343 350 353 353 352 356
334 345 350 353 352 350 350 349 348 346 345 344 342 340 338 338 337 337 337 337 336 336 335 334 334 333 333 333 335 335 335 335 336 337 336 332 332 337 342 351 351 351 355
337 344 345 353 351 351 350 349 348 347 346 345 343 341 339 338 338 338 338 337 336 336 336 336 335 334 334 334 334 336 337 338 337 338 333 335 334 337 338 344 351 352 351
336 342 343 352 352 351 351 350 349 347 346 344 342 342 341 340 340 340 338 338 338 338 338 339 338 337 338 338 337 338 339 341 341 339 332 329 329 336 342 343 352 353 353
335 339 345 352 352 352 352 351 349 348 347 345 343 343 342 340 342 342 339 339 339 340 340 341 341 341 341 341 341 340 340 343 342 335 334 333 333 338 343 346 347 354 354
333 335 340 352 352 352 352 351 349 349 348 347 346 344 343 344 343 342 340 340 341 342 342 343 343 343 344 343 343 344 341 343 337 333 333 332 332 340 346 352 355 354 354
331 332 335 350 351 351 352 351 349 349 348 347 347 347 346 346 345 343 342 342 343 343 344 344 344 344 345 343 342 343 342 342 339 333 331 329 333 341 344 354 353 351 351
330 330 332 342 348 352 351 350 350 349 348 348 348 347 347 347 347 345 344 343 343 344 344 345 344 345 345 342 341 341 342 342 335 332 333 330 336 340 343 351 352 353 351
330 327 329 337 341 343 344 351 350 350 349 348 348 348 347 348 348 346 346 346 344 344 345 346 346 346 345 343 341 340 340 341 334 332 331 331 339 341 343 351 349 351 352
334 329 327 333 336 339 340 344 350 350 350 349 348 348 346 341 341 342 345 345 345 345 346 347 348 347 345 341 340 339 339 332 332 332 331 338 340 341 344 348 350 350 349
329 332 332 334 332 335 338 337 343 342 342 342 342 341 341 338 337 341 343 346 346 346 348 349 349 346 342 332 331 336 330 330 330 331 331 340 340 340 344 346 347 346 349
325 331 336 335 334 332 334 335 339 341 339 340 339 338 339 338 337 338 336 338 338 345 340 343 342 339 333 331 328 326 326 326 328 330 333 339 339 340 343 343 345 346 348
312 322 335 337 335 333 333 333 335 337 337 337 338 337 337 336 333 332 334 332 331 335 338 336 333 333 331 331 328 327 325 325 326 329 330 338 339 340 341 344 343 346 345
311 314 329 336 336 335 333 332 334 336 336 335 337 338 337 335 332 331 330 329 330 331 335 331 330 330 328 328 329 328 327 327 328 328 327 336 339 341 341 342 343 343 343
315 313 320 335 336 336 335 333 334 335 336 335 337 338 337 334 331 330 330 329 328 329 330 330 330 329 326 327 327 327 327 325 328 328 328 329 338 340 342 342 344 342 342
315 315 313 332 335 335 335 334 334 335 336 335 336 336 336 334 331 330 329 327 329 327 327 328 330 328 328 327 328 328 328 328 325 325 327 328 330 340 343 345 344 342 342
313 314 315 328 334 335 335 335 334 336 336 335 334 335 335 334 333 330 329 328 328 326 327 327 326 327 324 326 324 322 323 325 327 329 329 327 328 331 337 344 342 341 341
314 314 313 317 327 334 334 332 333 334 336 335 334 334 334 335 334 331 329 328 327 326 325 325 325 324 321 322 322 322 322 322 323 327 326 326 325 331 331 337 340 341 343
313 314 313 318 326 328 329 330 331 332 331 333 333 335 336 336 334 331 330 328 326 325 324 323 322 323 322 321 323 323 323 323 321 322 324 325 325 328 331 328 329 333 341
313 315 315 323 328 332 332 330 327 328 326 326 331 335 334 334 332 329 328 327 326 325 325 324 322 323 322 323 321 320 321 321 320 321 322 323 324 326 327 328 328 330 335
316 321 321 327 331 331 332 327 326 325 324 326 327 332 333 333 334 332 327 326 325 324 323 324 324 321 321 323 318 316 311 315 319 320 320 321 322 325 325 326 328 329 331
320 324 327 329 331 332 330 328 325 325 324 323 323 325 329 334 333 329 328 326 325 326 324 323 323 321 316 320 317 314 309 306 308 314 318 319 320 320 323 326 328 329 329
321 327 330 331 332 332 330 328 327 322 321 321 323 324 326 329 329 329 328 326 325 324 323 321 322 318 316 313 317 318 313 311 307 307 314 316 319 319 320 322 325 327 328
325 327 330 331 331 329 329 329 325 322 321 321 322 323 323 325 328 330 328 326 324 322 322 321 319 318 317 315 314 314 313 313 312 308 307 313 316 317 318 320 321 323 327
325 328 329 331 327 328 327 326 324 322 320 321 320 321 322 323 324 327 327 324 323 322 321 320 320 319 317 316 316 315 313 312 311 310 307 308 310 314 323 325 327 325 328

GFSSE_sfc_thetae_048.txt.gz
Theta_e
331 342 356 355 351 350 349 348 349 348 347 347 345 345 344 345 344 341 339 337 336 335 334 333 332 333 333 333 334 335 334 334 334 335 337 341 345 347 352 354 355 353 355
333 345 355 354 352 350 350 350 349 348 347 346 345 343 341 341 339 338 337 336 335 335 335 335 334 334 335 335 335 334 335 335 336 335 335 336 337 338 349 351 353 353 354
334 346 349 353 352 352 351 350 349 348 347 346 346 343 341 341 338 337 338 337 337 337 336 335 334 334 334 334 334 335 335 336 337 337 337 337 335 335 340 350 352 353 353
337 345 346 353 352 352 351 351 349 348 347 347 345 343 343 342 339 339 338 338 338 337 337 336 335 334 334 334 334 334 335 337 337 339 335 335 333 338 340 339 351 352 351
338 344 344 353 352 352 352 351 350 348 347 346 344 343 342 342 342 341 339 338 338 337 337 338 338 337 337 337 336 336 337 339 339 339 336 334 333 336 342 344 344 353 353
336 342 346 352 351 352 352 351 350 349 347 346 345 344 343 341 343 343 340 339 338 339 339 339 340 340 340 339 340 339 339 341 342 338 337 336 337 338 343 346 346 352 353
334 338 342 352 352 352 353 351 350 349 348 347 347 345 344 344 343 342 340 339 340 340 341 342 342 343 343 342 342 343 341 341 341 337 336 336 335 338 343 349 353 352 354
333 335 338 352 352 351 352 352 351 349 348 347 347 346 345 345 345 342 341 341 341 341 342 343 343 344 345 342 342 342 343 343 340 337 336 334 335 339 343 350 352 351 353
330 331 332 344 348 352 352 351 350 349 348 348 347 346 346 346 346 345 344 342 343 344 344 344 345 346 345 343 342 340 340 342 340 337 336 336 337 339 341 344 349 351 352
326 328 328 336 342 344 346 352 351 350 349 348 348 348 347 347 347 346 345 346 344 344 345 345 346 347 346 345 342 340 339 339 337 336 336 336 340 341 340 343 349 350 351
332 325 325 329 337 340 342 345 351 350 350 349 349 348 345 341 342 342 344 345 344 344 345 347 348 348 347 344 341 340 339 335 335 335 335 338 341 342 341 343 348 349 350
328 331 325 327 333 335 338 338 343 343 342 343 343 342 341 338 339 341 343 345 344 345 347 348 349 348 345 338 336 338 335 333 333 334 335 339 340 341 340 343 348 349 349
328 330 331 328 330 332 334 334 336 341 340 341 339 338 339 338 339 341 338 340 341 345 341 344 346 345 340 335 334 332 331 330 330 332 334 337 339 339 340 343 343 346 346
316 323 331 332 330 330 331 332 333 337 337 337 338 338 338 337 335 336 336 335 336 338 339 340 339 339 337 335 333 331 330 329 329 330 331 336 338 340 340 342 342 346 346
313 316 317 332 333 332 330 331 331 332 336 335 336 337 337 336 333 333 334 333 332 333 336 337 336 336 335 334 333 331 331 330 330 330 331 335 338 340 341 341 343 342 343
313 313 314 328 334 334 331 330 330 331 334 333 334 336 337 335 333 332 331 330 329 331 333 335 334 334 333 332 331 331 331 331 331 332 332 334 337 340 341 342 342 343 342
314 315 314 320 332 333 333 332 330 331 334 333 334 336 336 335 332 331 329 328 329 330 332 332 332 332 330 330 329 331 331 331 330 329 330 332 333 337 342 343 343 343 341
313 313 315 317 329 333 334 334 333 332 334 334 334 336 337 335 333 331 329 329 330 329 330 330 330 329 329 329 328 329 330 329 330 331 332 331 332 333 335 342 343 343 341
313 313 313 314 326 331 333 333 331 332 333 333 333 335 336 335 333 331 330 330 331 330 329 329 328 329 326 326 327 327 327 327 327 328 330 331 330 333 334 336 341 341 341
312 313 313 313 319 329 329 328 330 332 332 333 333 334 335 335 334 332 331 330 330 328 327 327 327 326 326 326 325 326 326 327 327 327 329 330 330 331 334 334 337 339 341
313 312 312 313 320 328 328 327 326 329 331 330 332 335 334 335 334 333 331 330 329 328 328 327 326 325 323 324 323 322 324 325 325 325 327 328 329 330 332 334 334 335 337
311 313 315 314 324 327 329 326 328 326 327 329 332 335 336 335 334 333 332 329 329 327 327 325 326 325 325 326 321 320 314 319 321 325 325 326 328 329 330 329 332 333 336
310 313 318 321 326 329 328 326 324 325 325 325 326 328 332 334 334 333 331 329 327 328 326 326 327 325 321 323 323 318 311 311 314 317 321 324 327 327 329 331 331 333 335
309 319 325 327 329 330 328 326 327 324 323 323 324 327 329 332 332 331 329 328 328 327 326 325 325 324 321 319 321 320 318 317 313 314 319 322 324 325 327 329 331 332 334
314 322 327 329 329 329 328 327 324 322 322 323 324 325 326 328 329 331 330 329 328 326 326 325 324 322 321 319 320 319 318 318 318 316 313 318 321 323 325 327 329 331 332
321 325 328 329 327 328 327 326 325 323 322 322 322 322 323 325 327 329 329 328 327 325 325 324 324 322 321 321 321 320 319 318 317 316 313 314 317 320 325 328 330 330 332

GFSSE_sfc_thetae_051.txt.gz
Theta_e
339 346 356 356 355 355 354 353 353 352 352 352 352 352 352 352 351 348 346 344 342 340 338 336 335 335 335 335 336 336 336 336 336 336 338 341 344 347 351 354 353 352 356
342 348 357 355 354 354 353 352 352 351 351 350 349 349 348 348 346 345 342 340 338 337 336 335 335 336 336 336 336 336 336 337 337 337 336 337 336 340 346 352 353 353 355
342 350 353 355 354 353 353 352 351 350 349 349 348 347 346 345 343 341 341 338 337 337 338 337 336 336 336 336 336 336 337 337 338 338 338 332 334 337 339 344 353 353 353
345 351 347 355 353 353 353 352 351 350 349 348 347 346 346 345 344 340 341 339 339 338 337 336 336 335 335 335 335 336 336 337 338 339 338 334 330 335 341 341 348 352 352
346 348 350 355 354 354 353 352 351 350 349 349 347 346 346 346 344 343 343 341 340 338 338 338 337 337 337 337 337 337 337 338 339 338 338 340 336 334 343 344 345 351 350
343 346 349 354 354 354 353 352 351 350 349 349 348 347 346 345 345 345 344 343 340 340 340 340 340 340 340 340 339 339 337 338 342 341 341 338 338 338 342 346 347 346 351
342 345 345 354 353 354 354 353 351 350 349 348 348 347 347 346 346 345 344 341 341 341 342 342 343 342 342 342 342 342 341 340 340 342 343 342 338 338 342 346 352 351 352
341 347 345 353 353 353 353 353 352 350 349 349 348 347 347 347 346 345 345 342 342 342 343 343 344 344 343 343 342 341 341 343 340 341 340 343 338 338 341 345 351 354 352
342 344 345 349 351 352 352 352 351 350 349 348 347 347 347 347 347 346 345 345 343 345 345 345 345 345 345 343 342 341 339 339 340 340 341 340 337 340 340 343 347 350 352
339 340 341 346 347 347 347 353 352 350 349 348 348 348 347 347 347 346 344 345 344 344 345 345 346 347 347 345 343 341 339 339 338 338 339 341 339 341 341 342 345 349 351
336 337 338 337 345 346 346 347 352 352 351 349 349 348 346 341 344 343 344 346 346 345 345 347 348 348 348 345 343 341 339 339 338 337 337 336 339 341 341 341 344 348 351
338 339 336 337 340 344 342 346 348 348 347 346 344 345 344 343 344 341 344 345 347 347 347 348 349 348 347 343 342 341 340 340 338 337 335 336 339 340 340 341 344 347 349
338 340 340 338 339 341 340 341 343 347 347 348 347 350 349 343 343 342 341 343 343 346 342 344 346 346 345 344 341 340 339 338 336 335 335 336 338 340 339 340 344 347 349
332 336 342 343 339 341 341 339 341 341 345 344 346 348 347 343 342 340 339 340 343 341 342 344 344 346 347 346 343 340 340 339 337 338 337 336 337 340 340 339 343 343 347
328 331 337 341 344 344 343 340 341 341 341 343 343 346 345 340 341 340 341 339 339 340 341 341 343 345 345 345 343 341 339 339 339 338 338 336 337 339 341 340 342 342 343
330 332 335 333 346 344 343 344 342 342 341 341 341 343 345 342 342 339 340 338 338 338 338 339 340 342 347 345 343 342 340 340 340 339 338 339 337 339 340 342 342 342 342
331 334 336 335 337 346 346 344 342 341 340 340 341 343 344 345 343 342 338 338 338 341 341 340 339 343 343 343 342 341 339 340 339 339 338 338 337 338 340 341 341 343 343
331 334 336 328 329 343 346 344 342 340 340 340 341 342 343 344 343 341 338 337 339 339 338 337 337 341 340 342 343 341 340 341 339 339 338 338 337 337 337 340 342 344 345
332 334 332 333 329 336 344 343 343 343 340 341 342 342 343 343 342 341 338 338 340 339 337 336 339 340 341 342 340 338 340 339 339 336 337 337 340 338 338 340 341 341 342
333 335 334 332 332 335 339 342 341 341 341 342 342 342 344 344 343 342 340 340 340 339 337 338 340 341 340 338 336 332 334 335 332 336 337 336 338 338 340 340 340 338 341
333 333 336 331 333 335 337 337 338 338 339 341 342 344 344 344 343 342 340 342 340 336 336 342 341 338 334 331 329 329 327 329 331 333 335 335 336 337 338 339 340 345 338
329 332 334 332 332 336 338 341 341 340 338 341 343 344 344 344 343 342 342 338 337 336 341 340 337 333 333 333 328 327 323 324 326 330 329 334 337 337 336 337 339 339 340
327 330 331 333 335 337 340 340 340 340 340 339 341 341 343 344 344 343 342 340 339 341 340 339 337 335 329 327 329 329 321 316 321 326 332 332 335 336 336 338 337 338 342
324 325 327 335 338 338 341 340 341 338 337 339 340 342 343 344 343 344 344 342 342 341 340 339 335 331 329 323 327 327 327 327 318 318 324 327 332 333 337 336 338 338 341
321 321 332 338 340 340 340 342 340 341 340 340 340 342 343 344 344 342 343 342 341 339 339 338 335 329 328 329 328 325 327 329 330 326 319 323 328 332 335 336 337 339 340
319 329 337 340 341 341 341 341 342 340 338 337 339 338 336 338 339 342 341 341 341 340 338 337 337 335 332 332 331 330 327 325 326 327 324 323 325 327 333 336 340 340 343

GFSSE_sfc_thetae_054.txt.gz
Theta_e
342 350 358 358 358 358 357 356 355 355 356 358 360 361 360 359 358 354 351 348 346 344 342 339 337 336 337 337 337 337 336 336 335 335 338 342 344 348 351 354 353 353 356
343 351 357 357 357 358 357 356 355 354 354 355 356 357 356 355 353 352 348 345 343 341 339 337 335 336 336 336 337 337 337 337 336 335 336 337 338 341 346 352 353 353 354
344 351 354 356 356 357 356 356 355 353 353 353 354 353 353 352 350 347 347 343 340 338 338 337 337 337 336 336 336 336 336 337 338 338 336 330 333 340 341 342 351 351 352
347 352 346 355 355 356 355 354 353 353 352 351 351 351 350 349 348 344 344 342 339 340 339 338 337 336 336 335 335 335 336 337 337 339 337 333 327 336 342 343 343 351 351
349 352 349 355 354 354 354 353 352 351 351 351 350 350 348 348 347 345 344 344 341 340 339 338 338 338 339 338 338 336 336 337 338 339 336 338 334 335 341 343 347 349 347
346 349 354 355 354 354 355 353 352 351 350 350 350 349 348 347 347 345 345 345 343 341 341 340 340 341 340 340 340 339 338 339 342 340 337 336 336 338 341 345 347 345 349
344 347 351 355 354 354 355 354 352 351 350 350 350 349 348 348 347 346 346 345 343 342 342 343 343 342 343 343 342 341 342 342 342 343 341 339 336 337 339 344 349 349 349
344 347 347 355 355 354 355 354 352 350 350 350 349 349 348 348 348 347 346 345 345 345 344 344 345 345 344 344 344 342 342 343 342 342 342 343 339 337 338 342 347 349 351
344 347 349 351 353 354 354 353 353 351 349 349 348 348 348 348 348 347 347 346 346 347 347 346 346 346 345 344 343 342 341 339 339 340 341 342 342 338 339 341 345 349 351
345 345 349 351 349 348 347 354 354 352 350 350 349 348 348 348 348 347 346 346 347 347 346 347 347 346 346 345 343 342 340 339 337 339 340 343 341 340 340 340 342 346 348
340 345 347 346 348 348 343 344 353 352 351 350 350 349 347 342 343 343 343 346 347 347 347 348 348 348 346 346 344 343 340 340 341 340 339 342 339 340 341 340 341 344 347
338 341 345 348 347 348 343 346 349 346 348 347 343 344 342 341 342 340 343 347 348 348 348 348 348 347 347 345 345 343 341 342 340 339 340 339 337 339 340 341 341 344 346
338 341 345 349 349 347 346 344 345 346 346 347 346 349 347 339 341 341 340 343 344 347 343 345 346 346 346 344 342 342 341 340 339 337 338 337 338 339 339 339 340 343 347
333 337 342 350 350 350 346 344 345 344 345 346 347 352 349 343 344 342 339 341 342 341 342 342 342 346 346 346 345 342 342 341 338 339 340 338 338 340 341 340 340 344 346
331 334 338 348 354 353 352 347 349 349 345 347 348 349 347 344 346 342 342 338 340 340 340 341 342 344 345 346 344 343 341 341 341 340 339 341 339 340 341 341 340 343 343
334 335 340 343 351 354 353 354 350 350 348 346 346 346 351 346 348 341 341 339 338 339 339 340 341 342 344 345 344 345 344 342 341 341 339 340 340 340 341 342 341 343 343
335 338 339 342 344 349 351 352 352 348 348 345 346 350 349 350 349 348 341 340 338 341 341 341 341 342 342 345 346 346 345 342 340 340 340 339 339 340 340 341 342 343 343
335 336 338 336 338 343 347 349 348 347 346 346 346 347 349 351 349 347 343 341 340 341 339 338 337 335 336 346 346 346 345 341 340 342 340 339 341 339 340 342 342 343 343
334 336 336 341 340 341 346 346 349 351 347 346 347 347 350 350 349 347 345 343 345 339 338 336 335 335 336 344 344 344 342 339 339 339 340 341 343 340 340 342 342 342 344
333 340 343 342 345 345 341 346 344 346 346 346 347 347 350 350 348 348 346 346 344 340 337 336 337 336 344 341 338 337 340 340 338 338 340 339 341 342 342 340 340 338 342
335 337 341 341 348 342 340 340 342 342 345 345 347 350 350 350 349 346 347 346 344 340 340 339 339 340 341 341 336 334 334 338 335 331 336 341 339 341 341 341 339 348 340
331 335 340 341 344 344 341 345 345 346 346 347 348 351 351 351 350 348 348 345 345 341 341 342 343 339 339 339 333 334 326 332 333 334 338 340 339 342 338 339 338 342 342
329 334 336 340 342 345 346 347 348 348 346 345 346 348 350 350 350 350 349 348 347 344 343 347 345 342 338 335 338 333 324 324 327 330 333 334 336 341 340 337 338 341 342
326 328 334 338 341 344 348 348 349 343 341 343 346 348 349 350 350 349 350 349 348 344 345 344 343 341 339 332 333 332 335 332 323 321 328 333 338 337 340 341 340 340 343
323 325 330 335 341 346 348 348 345 347 345 347 347 350 351 350 350 349 351 350 349 345 346 344 342 339 337 336 332 330 330 331 332 329 323 324 332 333 338 341 341 338 342
322 323 328 339 345 348 348 347 349 349 349 346 348 347 347 348 349 350 349 349 348 345 346 344 344 339 338 336 334 334 331 329 331 330 328 328 327 332 338 341 340 343 340

GFSSE_sfc_thetae_057.txt.gz
Theta_e
341 354 360 361 361 360 359 357 358 361 362 363 363 362 361 361 360 359 356 353 350 347 344 342 339 338 337 335 335 335 335 334 334 335 339 342 346 349 353 353 354 353 353
343 355 359 360 360 359 359 357 357 359 361 362 363 362 362 360 359 357 353 350 347 344 342 339 337 336 336 335 335 335 335 335 335 334 335 338 341 345 347 352 352 352 353
341 356 353 358 359 359 358 357 356 356 358 359 361 361 359 357 355 352 350 347 344 342 340 338 337 337 337 337 336 335 336 336 337 338 335 326 340 346 344 344 349 350 351
346 354 349 357 358 358 358 357 355 355 355 357 357 357 356 354 352 349 347 345 342 340 338 338 338 337 337 336 336 335 335 336 337 339 338 331 328 344 344 345 346 348 349
348 352 351 356 356 358 357 356 356 354 354 354 354 354 354 352 351 349 347 345 341 341 341 340 339 338 337 338 337 336 336 337 339 336 336 334 335 340 345 345 346 348 347
346 349 355 355 356 357 357 356 355 354 353 353 353 352 351 349 349 348 346 346 345 342 341 340 340 340 340 341 340 340 339 339 342 343 338 336 333 338 342 344 345 348 347
342 348 355 355 356 356 356 355 354 353 352 351 352 351 349 349 348 347 347 345 345 344 342 341 342 342 342 342 342 342 342 343 342 343 342 341 338 340 340 343 346 348 350
340 347 356 355 355 355 355 355 353 352 351 351 351 351 349 349 348 348 347 347 347 347 346 344 344 344 344 344 344 345 343 344 341 342 342 342 340 339 338 341 346 349 349
341 345 354 356 353 355 355 354 353 352 351 351 350 349 349 349 349 348 348 348 348 348 348 348 348 347 346 345 344 343 342 341 337 338 339 342 344 340 338 340 344 348 351
340 343 345 356 349 348 349 355 353 352 352 351 350 350 349 349 349 349 347 348 348 348 348 349 349 349 348 347 345 343 342 341 337 337 339 343 343 341 339 339 342 346 349
338 342 346 348 350 347 345 348 354 353 352 351 350 350 347 341 342 342 343 345 348 348 349 349 349 349 349 347 346 344 343 339 340 340 338 345 343 341 340 340 341 343 347
335 339 343 347 350 350 344 348 351 346 347 346 344 344 342 341 341 339 342 345 348 349 349 349 349 349 347 343 345 344 342 340 341 339 340 342 340 337 339 342 341 343 347
336 338 341 355 355 351 348 345 346 349 347 348 349 350 348 340 342 339 340 341 343 347 342 345 345 345 344 344 342 346 344 340 338 338 339 340 337 335 338 339 341 343 346
336 339 342 350 359 360 350 347 348 346 348 349 349 355 348 346 346 345 340 340 346 342 343 344 341 346 344 345 344 342 341 340 339 338 340 342 340 340 341 340 341 342 345
333 335 337 343 361 362 360 349 351 352 347 349 350 356 351 345 347 343 346 341 342 342 342 342 341 345 346 344 343 343 342 343 341 339 339 343 341 341 341 342 341 342 344
335 336 338 343 364 359 360 363 358 359 350 349 348 352 356 351 351 343 346 342 342 341 340 341 342 341 343 343 343 344 343 343 342 345 338 343 344 342 342 343 343 342 344
334 338 340 344 353 363 360 359 358 352 351 348 347 360 359 357 355 353 345 343 343 343 350 346 348 344 340 342 344 342 345 344 342 344 341 338 342 344 342 343 343 342 344
336 338 341 337 338 351 359 355 352 348 349 348 348 350 358 360 357 356 345 345 346 344 341 339 338 337 337 337 340 348 347 344 342 339 340 341 341 339 341 343 342 343 344
338 340 339 344 339 345 358 350 352 357 350 348 348 347 357 353 353 353 346 347 354 343 341 339 338 339 337 335 342 346 346 342 341 337 339 340 342 342 340 341 342 343 344
336 347 349 346 353 357 349 354 344 344 347 348 347 347 355 352 351 353 348 352 350 343 341 340 343 339 336 335 340 344 340 344 341 339 340 344 342 342 340 343 340 337 343
340 345 347 346 358 350 342 338 339 342 346 347 348 353 352 352 351 355 348 350 350 347 347 349 341 339 335 342 342 339 335 340 342 342 337 336 337 340 339 341 334 339 339
338 344 346 351 354 354 345 347 345 347 345 348 348 353 352 352 352 351 353 351 350 345 348 344 345 337 341 346 334 335 326 332 335 338 336 335 340 338 336 342 338 342 337
336 340 342 348 351 354 354 349 350 351 352 347 349 350 351 352 352 351 350 352 350 350 343 345 345 344 337 342 340 335 325 322 332 340 335 337 334 336 341 337 338 340 344
330 333 341 345 350 351 358 348 356 346 344 345 348 350 351 352 350 350 351 351 353 347 352 346 345 345 343 338 339 335 337 334 327 325 329 334 336 337 340 345 335 340 341
329 332 337 342 347 352 356 353 348 352 345 346 347 356 357 353 351 350 351 353 351 346 350 349 347 345 342 339 334 335 335 335 336 330 325 329 336 335 336 339 342 338 340
323 326 335 340 345 348 353 351 358 357 356 347 350 348 348 347 348 351 350 352 353 350 347 344 347 343 341 342 340 333 334 329 330 331 329 331 331 337 340 339 344 345 347

GFSSE_sfc_thetae_060.txt.gz
Theta_e
346 353 361 362 361 359 358 359 362 363 363 363 362 361 361 360 360 359 356 354 352 349 346 343 340 339 338 337 337 337 337 336 336 336 338 342 347 351 352 352 352 351 353
348 353 360 360 360 359 358 358 361 362 362 363 362 361 361 361 360 358 355 352 349 345 343 340 338 337 336 335 335 336 336 336 336 335 334 337 342 349 350 351 352 353 350
347 353 356 360 360 359 358 358 359 361 361 362 362 362 361 360 358 356 354 350 346 343 342 339 336 335 336 335 335 335 335 336 337 340 339 329 338 348 349 348 351 352 351
349 351 352 359 359 359 358 357 356 358 359 361 361 361 360 359 357 353 352 348 345 342 339 337 337 337 336 335 335 335 335 335 338 339 333 335 335 348 349 348 348 351 351
351 347 353 359 359 359 358 357 356 356 357 358 359 359 358 357 355 353 351 349 344 341 339 339 338 338 337 336 335 336 336 337 339 337 331 334 334 344 347 348 349 350 351
348 346 355 357 358 358 358 356 355 355 355 356 357 357 356 354 353 351 349 348 346 342 342 341 340 340 339 340 340 340 340 340 341 337 341 334 335 345 345 346 348 351 349
345 346 354 356 358 358 358 357 356 355 353 354 355 354 354 353 352 349 348 348 347 347 344 343 344 344 344 344 342 343 342 344 341 339 341 338 336 343 342 345 346 350 349
344 349 355 355 356 357 357 356 355 354 353 353 353 353 352 351 350 349 348 348 348 348 347 346 346 346 346 346 346 346 345 343 339 337 340 340 342 344 341 343 344 350 350
345 355 355 353 355 356 355 354 353 352 352 351 351 351 350 350 349 349 348 348 348 348 348 347 348 348 347 347 347 347 344 343 337 333 335 338 345 344 342 343 343 348 352
341 355 356 354 349 350 352 355 354 352 351 351 350 350 350 349 349 349 346 347 349 348 348 348 348 349 348 348 347 346 343 343 337 334 334 341 346 343 342 342 343 345 352
337 345 353 353 350 345 344 350 354 353 353 352 351 350 348 344 343 342 345 345 349 349 349 348 349 349 349 349 348 347 344 339 336 337 340 348 348 344 342 341 342 343 350
334 339 343 352 348 345 342 346 350 348 349 348 346 346 346 341 339 340 342 346 348 349 349 349 349 349 348 343 343 346 342 339 336 338 342 348 346 342 341 342 341 343 347
335 336 342 352 351 348 345 347 350 346 345 345 344 343 345 340 338 339 337 340 342 346 342 345 345 345 342 341 340 343 341 341 338 336 342 346 344 339 338 340 342 343 347
334 335 342 352 354 353 350 347 350 349 347 345 344 345 343 341 338 337 336 339 337 339 340 339 339 340 341 342 341 343 343 341 337 338 341 344 342 341 340 339 341 342 346
338 335 340 355 356 360 362 359 352 350 349 348 348 346 344 343 339 340 340 338 340 339 341 338 339 339 340 341 342 342 340 341 341 338 338 346 344 344 343 343 341 341 344
348 348 346 355 359 361 360 362 363 363 352 353 350 350 348 343 345 341 340 342 338 341 340 339 338 338 340 342 342 343 344 341 342 340 339 340 344 344 344 344 344 342 343
345 360 351 357 363 361 359 362 359 356 355 352 355 359 351 348 344 346 343 338 343 342 346 342 340 340 343 342 341 344 341 344 343 341 340 337 340 344 345 344 344 344 343
345 345 352 340 360 363 362 360 358 356 354 353 353 357 357 351 352 349 346 345 342 347 341 342 341 341 340 338 338 341 343 342 339 341 341 337 339 337 342 344 345 344 345
348 348 349 350 349 355 359 355 355 355 354 355 356 352 357 355 351 352 348 347 351 343 344 342 339 340 337 338 337 342 341 340 340 339 339 336 340 340 338 340 342 343 343
346 350 351 354 355 361 353 360 354 351 351 354 354 352 355 353 353 350 351 347 352 346 343 342 341 341 339 337 334 339 337 340 340 337 337 339 337 338 338 337 336 335 341
344 347 350 350 355 354 354 347 343 342 346 351 352 354 356 353 351 352 348 350 350 345 344 346 344 341 338 337 337 334 335 337 337 338 338 337 336 337 337 336 336 336 335
345 346 349 349 351 353 352 350 349 351 347 349 352 353 356 353 353 351 349 348 348 346 347 346 342 336 335 339 333 329 324 328 333 334 335 334 333 335 337 336 335 335 336
339 344 343 347 349 353 350 349 349 353 355 353 352 353 354 353 353 352 349 350 348 346 344 344 343 337 335 338 336 330 321 319 325 332 333 333 333 334 333 335 334 335 336
337 338 340 344 345 347 350 343 345 343 342 348 352 351 352 354 352 350 349 349 348 346 345 342 342 341 338 333 336 336 334 330 321 320 329 331 333 331 330 332 332 332 334
335 334 336 342 345 345 348 346 342 347 347 356 352 354 351 352 352 349 349 350 348 347 348 345 344 340 339 335 333 332 330 331 330 324 319 323 329 331 332 332 331 332 333
329 331 333 334 342 344 348 347 348 348 348 347 349 349 349 349 346 347 347 348 349 348 347 345 344 342 340 337 337 333 330 326 325 325 322 322 323 326 330 331 331 332 333

GFSSE_sfc_thetae_063.txt.gz
Theta_e
342 355 361 360 359 360 362 363 364 364 363 362 362 361 360 360 360 358 356 354 354 350 347 344 342 340 339 338 337 338 337 336 335 334 336 343 350 352 354 354 352 349 353
344 355 360 359 359 359 361 362 363 362 362 362 362 361 360 360 359 358 355 352 350 347 343 341 340 339 338 337 337 337 337 337 335 333 331 332 342 349 351 352 351 349 352
346 352 357 359 359 358 358 361 361 362 362 362 361 361 360 360 358 356 354 351 347 345 342 340 338 336 337 337 337 336 336 336 336 338 337 330 335 348 349 352 351 352 351
347 351 353 359 359 358 357 358 360 361 362 362 361 361 360 359 357 355 352 349 346 344 342 339 337 337 337 336 336 335 335 335 337 339 332 332 332 349 349 350 352 351 349
345 347 352 358 358 358 357 357 358 360 361 361 361 361 360 359 357 355 352 349 345 343 340 339 338 338 337 336 336 336 336 338 339 338 333 329 338 346 350 351 351 351 349
342 346 357 358 358 358 357 356 356 358 359 360 360 359 358 357 356 354 351 350 346 343 341 341 341 339 339 339 340 339 340 341 342 336 334 336 336 348 348 350 351 351 349
338 346 354 358 358 358 357 356 355 355 357 358 359 358 357 356 355 353 351 348 346 346 344 343 344 344 344 344 343 344 343 343 341 339 338 332 338 347 347 348 350 351 349
338 348 350 357 357 356 357 355 354 354 354 355 357 356 356 355 354 352 350 348 348 348 348 347 346 346 346 346 346 346 346 345 339 334 332 334 341 347 345 346 348 352 348
345 347 346 351 354 357 356 355 354 353 353 352 353 353 353 353 352 351 349 349 349 349 348 348 347 347 347 347 347 347 346 345 335 333 332 335 346 346 342 344 348 353 349
347 347 346 345 349 350 351 355 354 353 352 352 352 352 351 351 351 350 347 348 348 349 349 348 348 348 348 348 348 347 345 344 336 334 331 335 347 345 343 344 346 349 351
348 346 346 345 345 345 346 351 353 352 352 352 351 351 348 342 342 343 346 345 349 349 349 349 349 348 349 349 349 347 346 337 336 334 333 347 348 345 343 344 345 347 353
344 347 347 345 343 340 343 343 345 346 346 346 345 343 342 338 336 342 343 348 348 349 349 349 349 349 348 341 341 345 341 338 337 334 338 349 349 346 344 343 344 346 350
342 347 347 345 342 338 338 340 344 343 343 344 342 340 341 339 336 338 334 339 337 346 340 344 344 343 341 340 338 336 340 339 338 336 341 350 349 347 345 343 343 344 347
333 339 346 344 340 337 338 341 342 340 340 340 341 339 339 337 332 330 332 332 333 338 337 334 339 339 338 338 338 336 338 338 339 336 342 349 346 346 342 341 343 342 346
330 337 342 344 342 340 338 342 342 341 340 339 339 339 338 337 333 331 330 331 332 335 336 334 334 336 337 337 338 337 338 339 339 337 339 347 345 344 343 341 341 342 342
330 331 336 334 344 345 345 342 342 343 343 341 341 340 339 338 336 333 331 332 332 332 335 335 332 334 334 335 335 337 338 338 334 337 336 340 345 346 347 344 343 341 342
327 332 330 333 348 348 345 344 346 347 346 343 343 342 341 338 337 335 335 332 332 334 333 336 334 331 333 335 335 337 340 338 338 337 335 336 340 345 346 346 345 344 342
328 331 341 350 350 348 346 347 345 346 343 342 343 345 344 341 339 338 336 334 333 334 335 335 334 332 332 334 335 335 339 340 338 337 337 336 335 336 344 346 346 346 345
328 329 336 350 350 349 349 348 348 347 346 345 342 342 347 344 341 339 340 338 334 334 335 332 331 332 330 330 330 332 336 333 333 337 334 334 334 334 334 342 343 343 344
329 330 332 335 349 350 346 344 341 340 340 339 342 343 347 347 345 341 340 339 340 334 334 333 331 330 329 328 331 335 332 332 333 332 333 335 334 336 334 333 334 338 342
332 331 330 333 338 334 336 336 335 334 333 338 340 343 342 348 348 345 342 341 339 338 335 334 333 330 328 328 328 326 327 331 331 332 331 332 333 333 332 334 334 334 333
331 330 329 330 333 334 337 335 333 332 333 335 339 341 344 346 347 344 341 340 340 338 336 335 334 329 327 329 325 322 318 321 326 329 330 329 328 331 332 332 332 333 332
331 332 333 333 334 332 336 337 335 336 338 339 338 339 345 346 346 346 343 340 340 340 336 335 333 328 325 328 328 323 319 313 317 323 326 328 327 327 327 329 332 334 334
330 331 332 334 333 335 336 336 334 333 331 333 338 342 344 346 345 345 343 342 341 339 337 336 335 330 330 326 331 330 325 322 315 313 321 325 326 327 325 329 331 333 332
328 329 330 333 333 335 339 338 334 333 335 334 340 341 341 343 344 345 342 341 341 338 338 336 334 333 331 327 325 324 322 322 321 317 314 317 323 325 325 327 330 330 333
325 327 327 328 330 331 334 337 333 331 334 337 338 341 341 341 341 343 344 341 344 341 338 337 336 332 331 329 328 325 322 319 318 318 316 316 316 320 324 326 326 328 329

GFSSE_sfc_thetae_066.txt.gz
Theta_e
340 352 360 362 362 363 363 363 362 362 361 361 360 360 360 360 359 358 356 355 355 352 349 346 342 340 339 338 337 336 336 335 333 333 337 345 351 352 354 352 351 350 351
341 352 359 360 361 363 363 363 362 361 360 360 360 360 359 359 358 356 355 353 351 348 344 342 341 340 338 337 336 336 336 335 335 335 332 333 345 349 351 352 352 349 351
344 352 356 358 360 361 362 362 362 361 360 360 360 359 359 359 356 355 354 352 349 345 343 341 340 338 338 338 337 336 335 335 335 336 336 329 333 348 349 350 353 351 351
347 351 353 358 359 360 361 361 361 361 361 360 360 360 359 359 356 355 352 350 347 345 342 340 338 338 338 338 336 335 334 335 337 337 331 331 335 349 350 352 352 350 349
345 350 350 358 357 358 360 360 360 360 360 361 361 360 359 358 358 355 352 350 346 344 342 339 339 339 338 338 337 336 336 337 339 338 333 330 329 347 350 352 352 351 347
344 346 353 358 357 357 358 359 359 360 360 361 361 360 359 358 357 355 352 350 347 345 342 341 340 340 339 338 338 339 339 340 342 337 334 336 337 350 352 352 352 351 348
340 344 353 357 356 356 356 357 358 359 360 360 360 360 359 358 356 354 351 348 346 346 343 342 342 343 343 342 342 342 341 342 340 337 336 335 336 349 350 351 351 350 349
338 344 351 357 356 355 355 355 356 357 358 359 359 359 358 357 356 354 352 349 348 348 347 347 347 346 345 346 346 346 344 344 341 334 332 331 338 350 347 349 353 350 348
338 346 349 351 354 356 354 353 353 354 355 356 356 356 356 357 355 354 352 350 349 348 349 348 347 347 346 346 346 347 345 346 338 333 333 332 344 349 346 347 350 350 348
342 342 346 348 350 350 350 354 353 352 352 353 354 355 355 355 354 353 350 350 349 348 349 348 348 347 347 347 347 347 346 345 336 334 332 333 347 345 344 347 348 351 349
342 340 341 345 345 345 346 350 353 353 352 352 352 352 350 345 346 346 347 346 348 348 349 349 348 348 348 348 347 346 346 337 336 334 332 338 347 345 345 346 349 350 351
339 341 340 340 342 342 347 345 346 345 346 345 344 343 342 337 337 342 345 347 347 348 348 349 349 349 347 340 341 345 339 338 336 335 332 342 348 346 346 346 346 347 350
341 342 342 338 339 339 339 343 344 343 342 342 340 339 338 338 335 339 335 339 338 344 339 344 343 343 339 339 338 336 337 338 337 336 337 347 348 348 347 346 345 345 348
340 342 342 340 338 336 335 339 340 340 340 340 340 338 337 335 333 331 333 333 333 334 335 334 337 338 337 339 338 336 334 336 337 337 337 347 348 350 349 346 344 344 346
336 343 343 341 339 336 333 335 338 337 337 337 338 338 337 335 332 331 331 329 332 332 335 332 334 336 337 337 337 336 335 335 337 338 338 348 348 347 349 345 344 343 343
330 339 344 341 339 335 334 336 337 339 336 336 336 337 337 335 333 330 329 328 330 332 334 333 332 332 333 335 334 335 335 335 337 338 338 343 346 346 346 345 343 342 342
329 338 341 341 339 337 336 338 339 340 339 337 337 337 337 335 334 331 329 328 329 331 331 332 330 329 330 332 332 333 334 336 338 337 337 338 341 345 345 345 346 344 343
326 329 333 340 342 340 340 340 341 341 340 340 339 339 338 337 335 333 331 330 330 331 330 332 331 328 328 329 330 332 333 335 337 335 335 335 335 337 342 344 345 345 345
327 330 332 335 342 342 342 341 341 342 342 341 340 340 340 339 337 336 334 333 330 331 331 331 331 330 327 327 331 332 332 337 334 334 332 333 332 335 333 341 343 343 345
326 328 335 339 340 342 342 341 341 341 340 340 339 339 342 341 340 337 337 334 334 329 331 330 328 329 328 330 330 330 331 333 331 330 331 335 332 334 334 333 334 337 343
320 324 331 342 341 342 339 339 336 338 336 336 338 341 341 344 342 337 337 337 336 333 331 332 329 327 326 326 325 324 325 328 328 329 330 329 330 332 333 333 332 332 335
319 326 326 338 343 344 342 341 335 336 331 331 335 338 340 345 343 341 338 338 337 336 333 331 331 327 325 326 322 319 316 319 322 326 327 328 325 329 330 331 331 331 331
315 325 327 333 340 342 340 332 330 331 332 333 333 333 338 343 345 343 342 340 338 336 334 332 331 327 325 326 326 322 317 313 315 320 323 325 325 325 326 328 329 331 331
316 325 327 328 335 336 333 332 327 326 326 328 331 336 339 343 345 344 341 340 338 337 334 333 333 327 326 325 325 327 323 319 314 312 318 321 323 324 324 325 327 330 331
318 325 328 328 330 332 331 331 329 327 328 329 334 335 339 340 343 344 341 339 338 336 335 336 331 329 327 325 322 322 321 321 319 315 312 315 320 323 323 324 326 328 329
316 324 327 327 328 329 330 330 328 327 329 331 333 334 336 337 339 341 341 339 339 337 336 335 333 334 330 326 325 323 320 318 316 316 314 314 314 318 322 323 325 327 328

GFSSE_sfc_thetae_069.txt.gz
Theta_e
335 348 363 363 362 362 361 361 360 360 359 360 360 360 359 359 359 359 357 356 355 353 350 347 343 340 339 338 337 336 335 334 334 334 340 349 351 353 353 352 352 348 347
338 351 362 362 363 362 361 361 360 360 359 359 359 360 359 358 358 357 356 354 352 350 347 343 341 340 339 337 336 336 335 335 335 333 332 336 348 350 351 352 352 348 348
338 350 357 362 362 362 362 361 360 359 359 359 359 359 359 358 356 355 355 352 350 347 344 343 341 339 338 337 337 336 335 335 335 335 335 326 336 348 350 350 352 350 349
341 349 352 360 361 362 361 360 359 359 359 359 359 359 358 357 356 354 352 350 348 345 344 342 340 339 339 338 336 335 334 334 335 337 329 329 332 348 350 351 352 350 349
341 346 349 359 360 362 362 360 359 359 359 359 359 359 358 357 356 355 353 351 347 345 343 341 339 340 339 338 337 336 335 337 338 336 332 329 327 346 350 352 352 350 349
342 344 352 357 359 360 361 360 359 359 359 359 359 359 358 357 357 355 353 351 348 346 343 341 340 340 340 338 338 338 338 340 341 336 336 336 329 347 349 352 352 350 348
341 342 350 356 357 359 360 360 359 359 358 359 359 359 358 358 356 355 353 349 347 346 344 342 341 343 343 341 341 340 341 341 338 335 333 331 336 348 351 352 351 351 349
338 341 348 355 356 357 358 359 358 358 358 358 359 359 358 358 356 355 352 350 348 348 347 346 346 345 345 344 343 342 342 343 340 334 331 329 338 346 350 351 351 350 349
336 340 346 349 353 356 356 357 357 357 357 357 357 357 357 357 356 355 353 350 349 349 348 348 348 347 346 345 344 344 344 345 338 333 334 330 338 345 347 350 350 350 347
335 340 343 346 348 347 348 355 357 357 357 357 357 357 356 356 356 355 352 351 349 349 348 349 349 348 347 346 346 345 344 345 336 334 333 330 340 345 347 349 348 350 348
337 338 342 344 345 344 344 349 354 355 356 356 356 356 353 350 350 349 350 349 349 348 348 349 349 348 347 346 345 345 345 336 335 334 333 338 341 345 346 348 346 349 349
333 335 341 342 343 342 345 343 344 344 346 347 347 347 346 340 340 344 346 348 347 348 348 349 349 348 346 338 339 344 338 336 336 335 334 340 342 345 346 349 347 346 348
333 336 338 340 341 341 340 342 343 342 340 341 339 339 338 336 336 340 336 339 337 344 337 342 342 341 338 337 336 335 335 335 335 336 337 343 344 347 347 351 348 347 347
335 336 336 337 339 338 337 340 341 340 340 338 338 336 335 332 331 332 334 332 333 333 333 333 335 336 336 337 336 335 334 334 334 335 336 344 346 348 348 351 348 347 346
335 337 338 335 335 335 333 336 337 336 337 337 336 336 334 332 331 330 331 330 330 330 331 330 331 334 334 335 336 335 334 333 333 335 336 344 347 349 348 348 347 346 344
332 339 341 337 334 331 330 331 333 334 334 333 335 336 335 333 331 330 328 328 328 331 331 331 330 331 332 333 334 335 333 333 333 334 336 337 345 348 346 343 342 346 343
324 338 342 340 338 334 331 332 331 332 332 332 333 334 336 334 330 328 326 325 328 330 329 330 328 328 328 330 331 331 331 332 334 337 338 335 339 346 346 343 344 343 344
323 330 341 343 339 335 333 334 335 336 335 334 334 335 336 335 332 329 327 327 327 327 328 329 327 325 326 327 327 329 330 330 333 336 337 333 334 337 343 345 345 345 344
322 326 332 340 338 336 334 335 336 337 337 337 336 336 336 336 334 333 330 330 327 327 327 328 327 327 324 324 327 328 328 329 332 338 334 332 332 334 332 339 343 342 343
320 323 327 332 338 338 338 338 338 339 339 338 338 338 337 337 336 334 333 331 328 327 327 327 327 327 326 326 328 328 327 329 330 331 328 332 331 332 331 333 334 336 342
318 320 323 327 330 339 338 336 337 337 339 337 338 339 339 339 338 335 334 331 331 327 329 329 327 326 325 325 323 322 323 326 328 331 327 328 328 331 330 331 331 331 334
311 320 321 326 332 335 337 337 335 338 333 338 338 338 339 339 340 337 335 334 333 331 327 328 328 324 324 325 321 319 315 320 320 324 324 326 326 328 329 331 330 330 330
307 311 320 324 332 338 339 333 328 330 331 330 329 331 335 338 341 340 335 335 335 335 331 329 329 327 323 323 327 325 318 317 313 318 320 322 323 323 325 327 329 330 329
304 309 316 321 329 338 340 334 331 332 332 331 330 330 331 337 342 341 339 337 336 336 333 332 331 327 325 327 327 328 325 322 314 312 317 319 321 322 322 324 326 327 329
303 305 312 321 325 333 339 337 334 326 328 326 330 330 332 336 342 342 340 338 337 336 334 333 330 327 326 324 324 321 320 319 317 314 312 314 318 320 322 323 324 324 328
306 304 307 317 323 328 335 334 333 332 326 326 329 330 333 336 340 341 340 338 337 336 334 334 334 331 327 325 323 321 320 318 316 315 312 313 312 315 320 322 322 324 327

GFSSE_sfc_thetae_072.txt.gz
Theta_e
332 350 363 364 361 361 361 361 361 360 360 360 362 362 362 361 361 361 361 358 358 355 352 349 345 342 339 337 337 336 336 335 336 340 349 352 353 354 352 352 350 347 348
335 351 363 362 362 362 361 361 360 360 360 359 360 360 360 360 360 360 359 357 354 352 349 345 342 340 339 337 336 336 335 335 335 334 335 345 350 351 352 352 350 347 346
335 351 360 362 362 362 361 361 360 359 359 359 359 358 358 358 358 357 357 355 353 350 345 343 342 340 338 337 337 337 336 336 336 336 336 328 343 349 350 352 351 349 348
336 350 356 362 361 361 361 360 359 359 359 359 359 358 358 357 357 356 355 353 350 347 344 343 341 339 339 338 337 336 336 335 337 339 332 332 332 347 349 351 351 350 349
338 348 353 360 361 361 361 360 358 358 358 358 358 358 358 358 356 355 355 353 349 346 344 343 340 340 340 338 338 337 338 338 340 337 336 335 332 345 349 352 351 350 348
338 346 353 359 361 361 361 360 358 358 358 358 358 358 358 357 356 355 354 353 351 347 345 342 341 341 341 339 338 338 340 342 342 339 339 337 333 342 349 352 351 350 349
338 343 351 358 360 361 361 360 359 358 358 358 358 358 358 357 356 355 354 352 350 349 345 343 343 344 344 341 339 340 341 342 340 337 335 335 336 345 348 351 351 351 350
336 340 348 358 359 359 360 359 358 358 357 357 357 357 358 357 357 355 354 352 350 350 348 346 346 345 345 344 343 342 341 342 341 338 335 334 336 344 349 351 350 350 350
337 339 345 350 355 359 358 358 358 357 357 357 357 356 357 357 356 355 354 352 351 350 349 347 347 347 345 345 344 344 342 342 341 338 336 336 336 342 347 351 349 349 348
334 339 342 345 349 351 353 358 357 357 357 357 357 356 356 357 356 356 352 352 351 350 349 349 349 348 346 345 346 345 344 343 340 338 337 336 339 342 346 349 349 348 348
335 337 340 343 344 344 346 352 356 357 357 357 357 357 354 353 353 353 352 351 351 350 349 349 349 348 347 346 345 344 344 341 339 338 337 338 341 343 345 350 346 348 349
330 336 339 341 342 342 345 345 347 349 350 352 352 352 352 350 348 348 351 351 351 350 349 349 349 349 345 342 342 344 342 341 340 339 339 341 342 343 346 349 347 346 346
329 335 338 339 340 341 341 341 344 343 342 343 343 342 343 340 342 345 341 344 342 347 341 345 345 344 340 340 339 339 339 339 339 339 340 343 344 345 346 347 349 348 344
331 333 336 339 339 339 339 340 342 341 340 340 339 338 337 334 333 335 336 336 336 338 337 336 338 340 339 339 339 338 338 337 337 337 338 343 345 346 347 347 343 344 347
332 334 336 336 337 338 336 338 338 338 338 338 337 337 336 333 330 331 333 333 333 334 334 334 334 337 337 338 338 338 337 337 337 336 337 341 345 347 348 348 345 343 344
325 335 336 336 335 335 335 334 335 336 334 334 335 336 336 333 331 330 330 331 330 332 333 333 332 333 335 336 336 337 338 337 336 336 337 340 342 345 347 349 347 340 341
323 331 337 337 335 331 332 331 332 334 333 332 333 335 335 333 331 330 329 328 330 330 332 332 332 332 332 333 334 335 336 336 335 337 339 342 341 343 345 349 346 343 343
322 327 339 341 337 333 330 329 332 333 333 332 332 334 336 335 332 330 328 327 328 329 330 331 330 329 330 330 330 332 334 334 335 337 339 340 339 339 341 347 346 344 344
314 318 327 340 339 337 334 331 331 333 333 333 333 333 334 335 334 331 330 329 328 328 329 330 329 330 327 328 329 331 332 333 334 337 338 339 338 339 340 339 344 343 342
312 315 320 335 340 337 336 333 332 334 335 336 335 335 336 336 335 333 332 331 329 328 328 328 329 329 329 329 329 331 332 332 334 335 337 338 337 337 338 338 338 339 342
312 313 315 324 331 335 333 332 333 333 335 336 337 338 337 337 336 334 333 331 330 329 329 329 329 329 328 329 329 329 329 331 332 334 335 334 334 335 336 336 337 337 339
304 308 312 315 321 332 337 337 336 336 337 338 339 339 339 338 338 335 334 332 332 330 329 329 330 327 329 329 327 324 323 327 328 328 331 331 332 333 334 335 335 335 336
302 303 309 312 315 323 335 333 331 332 332 332 334 337 339 340 340 338 336 335 333 333 329 330 330 329 327 327 330 328 322 321 323 326 327 328 330 330 332 333 334 334 335
305 304 303 310 314 318 327 333 333 334 333 335 334 337 336 339 340 340 337 336 336 335 333 331 331 331 331 327 329 330 328 326 322 320 325 325 326 328 329 331 332 333 334
307 306 304 304 313 317 322 334 334 333 335 333 330 332 333 334 338 340 338 337 336 336 336 335 332 332 332 330 330 326 326 325 323 322 321 323 325 326 329 330 331 331 332
306 307 308 306 304 316 321 330 334 334 332 327 329 330 331 334 337 340 340 339 339 338 336 335 335 334 332 331 328 329 329 325 323 322 320 321 320 324 326 329 329 330 332

GFSSE_sfc_thetae_075.txt.gz
Theta_e
335 355 363 363 362 361 361 362 363 364 363 363 363 362 362 361 362 363 362 361 359 357 354 351 347 344 341 339 338 338 338 338 341 350 352 354 353 353 352 351 350 345 349
338 356 363 362 362 361 360 360 361 362 362 363 363 362 362 362 362 361 361 360 357 355 352 347 343 341 340 339 337 336 336 336 336 336 344 351 352 352 351 351 349 347 347
340 357 362 361 362 361 360 359 359 360 361 362 362 362 362 362 361 361 360 358 355 352 349 344 342 341 340 338 338 338 337 337 336 336 335 340 345 349 352 351 350 348 347
345 359 359 361 361 361 360 359 358 359 359 360 360 361 361 360 360 359 358 356 353 350 346 344 343 341 340 339 338 337 337 337 339 337 331 336 341 348 349 351 351 350 348
344 355 361 361 360 361 361 359 358 358 358 359 359 359 359 359 358 357 356 356 352 348 346 344 342 341 341 340 338 338 338 339 341 340 342 342 340 346 348 350 351 351 348
341 351 359 361 360 361 361 360 359 359 359 359 358 358 357 357 357 356 356 355 353 349 347 344 343 343 342 341 340 339 340 341 341 342 346 341 339 344 348 350 351 350 349
340 347 357 360 360 361 361 360 359 359 358 358 359 358 357 358 356 356 355 354 353 351 349 346 346 346 345 342 341 341 341 342 339 343 344 344 342 340 348 349 351 350 350
341 348 353 360 360 360 360 359 358 358 357 357 358 357 357 357 356 356 355 354 353 351 350 348 347 347 346 345 343 342 342 343 341 341 342 344 338 342 346 350 349 349 349
342 346 353 356 360 360 359 358 358 357 357 357 356 356 356 356 356 355 354 353 352 351 350 348 348 347 346 346 345 344 343 343 341 341 337 339 336 340 346 348 349 347 347
340 342 350 354 354 356 357 359 358 358 357 357 357 357 356 357 356 356 353 352 352 352 351 349 349 348 346 346 346 345 344 344 342 341 341 341 340 342 344 347 348 349 348
337 341 346 349 352 354 353 356 358 358 358 357 358 357 355 355 356 355 353 353 353 352 351 350 349 348 347 346 345 343 343 341 342 341 341 339 341 342 346 347 351 350 348
333 338 344 348 351 352 350 354 355 354 355 356 356 357 356 355 355 353 353 352 353 352 351 350 350 349 346 340 341 343 341 342 342 341 341 341 343 344 345 347 349 350 348
334 337 341 348 349 349 347 349 351 351 352 354 356 357 356 353 352 353 351 352 352 351 346 346 345 341 339 340 339 339 340 342 341 341 342 342 343 345 345 347 350 350 349
333 336 340 345 347 348 346 346 347 346 349 349 350 356 353 350 350 349 347 347 349 346 345 344 341 342 342 341 340 339 340 339 338 339 341 342 343 346 347 347 348 349 345
335 336 339 344 346 348 348 345 345 347 345 345 347 350 349 347 347 346 345 344 342 343 342 341 340 341 340 341 339 339 337 338 339 338 338 340 342 344 347 348 349 347 344
329 333 342 342 341 346 346 347 346 346 344 343 343 344 348 345 345 341 342 340 340 340 339 339 339 339 338 338 338 339 339 339 340 341 339 340 342 344 346 347 350 348 344
325 330 337 344 344 347 343 346 345 342 341 341 341 344 344 345 344 342 339 338 338 340 341 340 340 340 338 338 338 339 340 341 342 343 343 343 344 344 346 347 349 350 344
321 326 331 335 344 344 341 343 340 340 340 340 341 341 343 343 343 341 338 337 339 339 338 338 338 337 337 337 337 338 340 342 343 344 344 345 345 346 346 344 348 347 347
322 320 326 333 341 346 342 340 340 342 340 340 340 339 341 341 341 340 337 338 340 337 338 338 338 338 337 337 337 338 340 341 343 342 344 346 347 346 347 346 342 345 346
319 323 319 329 336 348 346 343 339 338 339 339 338 339 340 340 340 341 338 340 341 337 339 339 341 340 339 338 336 336 340 342 343 344 345 345 346 348 348 348 346 343 343
318 320 322 321 328 340 343 342 340 338 338 338 340 341 341 340 340 341 337 342 343 340 342 342 341 340 338 339 336 336 339 343 344 343 344 345 345 346 345 344 344 344 343
317 322 323 325 326 332 340 343 344 344 343 342 343 345 344 342 339 341 343 344 343 342 343 342 341 338 339 339 335 336 331 335 338 341 342 343 344 343 341 343 344 345 344
315 317 320 322 324 329 335 339 346 346 345 343 343 344 345 345 341 343 344 346 346 344 342 343 342 341 337 337 340 337 330 328 332 337 338 339 342 341 341 342 343 344 344
313 315 317 321 323 322 327 332 341 336 337 342 345 346 347 346 345 346 348 349 348 345 346 344 343 342 341 335 336 339 339 337 329 328 334 337 339 337 340 339 340 342 343
311 312 315 319 322 323 324 328 327 338 338 343 344 351 352 350 349 348 350 349 348 347 347 346 343 341 339 339 338 337 335 333 331 330 325 330 335 336 337 338 339 341 341
311 312 314 317 319 322 322 324 331 336 340 337 342 341 341 344 348 351 351 349 349 349 347 346 344 341 341 342 340 338 335 330 332 332 330 333 332 334 336 338 338 339 340

GFSSE_sfc_thetae_081.txt.gz
Theta_e
347 353 363 364 365 366 367 365 364 363 362 361 361 362 363 362 363 363 363 361 361 358 356 353 350 348 346 343 341 340 342 348 352 354 354 354 353 353 352 351 352 347 353
349 352 361 363 365 366 366 365 364 363 362 362 362 363 362 362 363 363 362 360 359 357 353 350 346 343 340 339 338 337 336 339 344 350 351 353 353 352 351 351 351 347 349
350 352 358 361 364 365 366 365 364 363 362 362 362 362 362 363 363 363 362 360 358 355 351 347 343 342 340 338 337 336 335 335 335 337 346 350 345 351 350 350 350 348 345
351 354 352 361 362 364 365 364 364 363 362 362 362 362 362 363 363 362 361 359 357 354 350 345 343 342 340 338 337 337 336 335 335 338 335 341 343 349 349 350 349 349 345
350 354 353 360 361 363 364 364 363 363 363 363 362 362 362 362 362 361 360 360 356 353 348 345 344 341 340 340 338 337 337 337 340 338 341 342 345 346 348 348 349 350 348
344 353 357 359 360 361 362 363 363 363 363 364 363 362 362 362 361 360 360 358 357 351 347 346 344 343 342 340 339 338 338 340 342 344 344 342 345 350 348 348 348 349 348
342 352 358 358 359 360 361 362 362 363 363 363 363 363 362 362 360 359 358 357 355 353 350 347 346 346 345 342 340 340 340 341 340 342 342 344 347 350 347 348 348 348 348
341 350 360 357 358 359 360 360 360 360 361 361 361 361 361 360 359 358 357 357 356 354 353 350 349 348 348 346 343 342 342 342 338 340 341 342 345 347 347 347 349 348 347
342 347 361 355 359 359 360 360 359 358 358 358 359 359 359 358 358 357 357 356 355 354 353 352 350 349 348 346 344 344 343 344 342 343 339 341 346 345 346 348 350 347 346
341 345 357 354 354 355 357 360 359 359 358 358 358 358 358 358 357 356 355 355 355 354 354 352 350 349 349 348 346 345 344 344 340 338 340 342 347 344 345 348 350 349 345
338 344 350 350 351 352 350 356 358 358 358 358 357 358 356 350 353 352 352 354 355 354 354 353 351 350 349 347 346 345 344 339 338 340 339 346 344 342 343 346 350 352 348
337 341 345 349 349 349 346 354 354 353 353 353 352 354 354 350 352 350 352 354 355 354 354 353 352 351 347 337 338 343 338 337 336 339 339 349 344 343 344 347 350 351 349
339 339 342 350 357 350 346 347 351 347 349 351 353 358 359 350 351 350 349 351 353 353 347 348 346 343 340 338 336 340 342 338 336 338 342 349 345 344 346 347 349 352 351
339 339 341 347 352 358 348 344 349 346 348 348 351 363 360 354 358 356 349 349 355 350 351 348 345 347 344 342 340 339 338 338 336 337 342 350 347 344 347 347 349 351 350
334 341 341 345 356 359 359 353 352 352 347 349 350 358 355 353 357 354 355 348 348 347 346 347 345 346 344 344 342 341 339 339 338 337 338 350 348 346 345 349 350 350 350
334 332 339 346 355 354 358 361 359 359 350 348 348 352 362 357 360 351 351 347 345 343 342 342 345 345 345 344 344 344 343 342 340 342 337 343 347 347 346 345 348 351 351
332 333 335 349 352 355 355 355 353 350 349 346 346 360 358 361 361 360 347 347 345 347 347 346 345 347 344 345 347 345 345 344 341 343 343 347 345 346 346 346 346 351 352
326 331 329 332 344 354 354 353 352 349 346 345 345 347 355 358 359 360 347 344 345 346 342 344 341 342 343 344 347 346 347 348 346 347 347 349 345 345 346 347 348 350 351
327 327 327 340 338 344 353 352 353 353 350 348 346 344 352 351 352 353 346 346 355 342 343 342 343 346 346 347 346 347 350 347 348 345 348 352 352 349 348 347 349 349 349
325 329 332 330 342 340 349 353 350 348 349 349 348 347 351 349 349 353 347 350 349 342 342 343 350 350 348 347 345 347 351 349 348 347 348 348 350 351 351 349 349 347 347
324 329 331 331 335 337 332 336 338 343 348 349 349 354 353 349 350 354 346 347 349 345 344 351 349 350 347 352 345 345 345 352 351 347 347 350 349 352 352 352 349 348 345
322 325 330 330 331 334 330 339 336 337 338 340 348 355 353 352 349 349 349 348 346 342 353 347 356 347 348 350 343 342 336 342 347 347 347 349 352 347 347 349 349 351 348
320 320 322 327 328 331 337 334 334 334 339 337 343 349 352 353 354 353 353 348 349 348 341 354 358 357 344 347 356 343 334 332 338 347 350 346 349 344 343 344 345 346 349
317 318 320 324 329 328 331 332 331 329 326 333 343 344 344 351 355 353 352 353 355 349 347 357 359 357 355 343 348 349 352 346 335 333 342 345 344 344 350 342 348 345 347
318 320 321 323 329 332 331 334 330 330 327 331 335 344 347 343 356 355 357 355 356 351 355 359 360 360 353 346 346 345 348 344 346 337 331 337 341 340 343 343 342 342 348
318 319 320 323 326 330 331 332 333 332 331 331 335 337 341 340 341 352 355 356 357 359 357 361 364 363 357 355 350 349 344 340 338 337 334 337 336 341 342 346 343 340 345

GFSSE_sfc_thetae_084.txt.gz
Theta_e
345 356 364 365 366 367 365 364 363 363 361 361 362 362 363 363 363 363 363 362 361 359 356 354 351 349 347 344 342 346 350 352 353 353 353 353 353 353 353 354 355 346 354
348 356 363 364 366 367 366 364 363 362 361 361 362 362 362 362 363 363 362 361 360 356 353 350 347 344 342 340 338 341 341 345 349 351 352 353 353 352 352 352 351 347 351
347 356 358 364 365 366 365 364 363 361 361 361 362 362 362 363 363 362 361 361 358 355 351 347 344 342 340 339 337 337 336 338 340 345 351 348 345 352 350 350 351 348 346
349 356 355 363 365 365 365 365 363 362 361 362 362 362 362 363 362 362 361 360 357 353 350 345 343 341 340 338 337 336 335 335 341 344 334 339 341 351 350 349 349 348 345
351 353 357 362 364 365 365 365 363 362 362 362 362 362 362 363 362 361 360 360 356 352 347 344 344 343 340 339 339 339 338 341 344 340 332 339 341 348 351 349 349 350 348
351 349 358 361 363 364 364 364 364 363 363 362 362 362 362 363 361 360 360 359 357 353 347 347 346 345 342 341 342 341 342 343 346 338 340 339 343 352 352 351 351 353 348
346 350 356 359 362 363 364 364 364 364 363 363 363 362 363 362 361 360 359 358 356 353 350 349 348 347 346 346 343 343 344 344 336 334 341 341 344 351 352 351 348 348 348
345 352 357 359 360 361 362 362 362 362 362 362 362 362 362 361 360 359 358 357 356 354 352 351 349 348 348 347 345 345 345 344 336 336 339 344 348 352 352 352 351 349 346
345 355 356 354 358 360 361 360 360 360 360 361 361 361 361 360 359 358 357 357 356 354 353 353 351 350 349 347 346 346 345 344 340 336 339 341 351 352 352 351 352 350 349
341 357 357 352 351 354 357 360 359 359 359 359 359 359 359 359 357 357 355 356 355 355 354 353 352 351 349 348 347 347 346 344 340 335 334 341 350 351 349 351 353 352 350
338 355 355 347 350 351 351 356 358 359 359 359 358 358 356 354 354 353 353 353 355 355 354 353 352 351 350 349 348 347 345 339 336 335 337 350 351 349 347 349 351 353 351
338 342 352 346 349 350 346 356 354 354 354 353 353 355 353 351 351 349 352 353 355 355 354 354 352 351 349 339 338 346 339 336 334 334 337 350 349 348 346 348 351 352 353
339 341 348 350 352 349 346 356 352 351 351 351 352 353 354 350 350 351 352 349 352 353 347 349 348 345 340 338 335 337 337 336 334 333 343 350 350 349 347 348 351 352 353
332 341 345 354 355 353 348 352 353 347 349 350 351 356 355 352 355 353 350 349 350 351 348 348 344 343 342 341 340 339 339 339 336 337 345 350 350 350 348 348 350 353 353
335 338 345 351 356 361 363 362 360 347 348 349 352 353 353 356 352 359 353 355 352 351 350 349 346 348 345 344 343 342 340 340 340 339 338 351 349 349 349 348 349 350 353
338 334 341 353 355 358 360 367 363 362 360 354 351 353 356 355 361 355 357 352 350 350 348 349 348 347 345 342 344 345 343 343 343 341 338 342 348 348 349 349 349 351 353
334 335 338 354 355 353 356 363 360 358 353 355 353 360 355 359 360 359 354 351 350 350 351 347 346 347 346 346 345 345 346 345 344 343 342 340 344 347 348 349 349 350 352
333 336 336 334 351 351 355 356 356 350 352 353 351 354 360 357 357 357 353 351 350 351 349 345 343 341 343 343 343 346 347 346 345 346 343 344 345 344 345 348 347 348 350
331 333 336 338 346 351 354 352 353 355 353 351 351 352 355 353 356 353 352 349 354 348 345 346 343 343 343 345 346 348 349 348 349 345 343 346 348 345 343 346 347 347 348
331 332 336 340 341 349 351 351 352 350 349 352 350 351 351 352 350 354 350 353 352 346 342 345 343 342 342 347 345 344 350 349 349 346 346 348 346 348 347 347 345 345 348
330 332 337 338 336 340 336 335 338 341 349 349 352 353 352 350 348 351 349 346 353 346 343 346 342 343 346 350 346 344 345 350 346 347 348 347 346 347 348 348 346 345 346
328 330 333 333 335 337 331 335 341 336 339 341 348 352 352 352 349 351 347 346 347 344 345 345 345 341 345 349 344 342 335 340 345 346 345 344 345 349 346 346 345 345 344
325 327 328 331 328 332 336 329 329 331 332 334 333 335 349 354 347 346 346 346 346 342 340 344 347 345 341 347 349 342 335 331 339 344 343 342 345 344 342 342 345 345 345
322 324 327 330 330 325 336 331 330 326 325 328 330 333 339 352 352 348 344 347 344 345 342 342 347 345 348 344 347 347 346 345 335 333 343 343 343 343 342 343 342 339 343
321 323 326 328 330 333 331 330 331 331 331 329 330 331 335 343 347 352 351 347 347 345 344 347 343 347 350 346 345 346 345 343 345 337 330 335 339 341 339 343 340 343 342
319 320 325 328 331 333 332 330 326 332 331 329 327 332 332 332 337 337 351 349 348 348 349 349 348 353 350 348 347 345 345 339 337 337 334 332 332 335 340 341 340 338 340

GFSSE_sfc_thetae_087.txt.gz
Theta_e
350 361 366 366 365 364 364 363 362 362 361 361 361 361 362 361 362 362 362 361 361 359 356 353 351 349 346 344 342 347 352 353 354 353 353 353 354 355 356 355 352 350 355
352 359 365 365 364 364 364 363 362 361 360 361 361 362 362 362 362 361 361 361 359 355 352 350 347 344 342 340 339 342 343 345 350 352 352 352 352 353 353 352 349 349 353
351 358 362 364 365 364 363 362 361 360 360 361 361 361 361 362 362 361 360 360 358 353 350 347 344 342 340 338 337 338 338 340 343 344 349 347 347 350 351 351 349 346 349
351 354 359 364 364 364 363 362 361 360 360 361 361 361 361 361 362 360 360 360 355 352 349 345 343 341 340 338 338 337 338 341 343 345 335 338 343 350 350 350 351 346 346
349 351 358 364 364 364 363 362 361 360 361 361 361 362 361 361 361 360 360 359 355 351 347 345 343 342 340 339 339 341 341 344 345 341 333 330 337 350 351 351 350 349 350
348 350 360 363 363 363 363 362 361 361 361 362 362 361 362 361 360 359 359 358 356 351 347 345 346 344 342 340 343 342 343 344 344 334 334 339 338 353 352 353 353 350 350
345 351 357 362 363 364 364 363 362 361 361 361 362 362 362 361 359 359 358 358 356 353 351 348 348 346 346 345 344 343 344 343 335 331 330 333 342 352 355 354 351 351 351
343 351 354 361 362 362 363 362 362 361 361 361 361 361 361 360 359 359 358 357 356 353 352 351 348 347 347 346 345 344 345 344 339 336 334 339 346 353 355 354 353 351 349
345 350 351 355 361 362 361 361 361 360 361 361 360 360 360 360 358 358 357 356 356 353 352 351 350 348 347 347 346 345 345 344 337 336 335 335 351 354 354 354 353 352 350
348 349 348 351 355 355 357 361 360 360 360 360 360 360 360 359 358 357 354 354 355 354 353 352 351 350 348 347 346 346 345 343 336 335 332 336 352 355 354 353 354 352 350
350 347 346 348 349 351 353 357 359 361 360 360 360 359 356 351 352 353 353 353 355 354 354 352 351 350 349 348 348 347 345 335 335 333 331 343 352 354 353 353 353 354 352
346 346 344 344 346 346 353 353 350 355 354 353 353 353 350 346 346 350 351 354 355 354 354 353 352 351 350 341 338 346 338 335 334 333 331 348 352 354 352 352 352 352 353
328 345 343 343 345 344 345 350 348 348 347 346 347 349 345 345 342 347 342 347 347 353 347 349 348 346 342 338 335 330 337 335 332 332 334 352 351 353 350 351 352 352 352
329 336 340 343 343 342 346 348 346 346 345 344 343 346 345 341 339 338 341 342 344 344 343 340 341 340 339 336 333 331 334 333 333 333 335 351 350 352 351 350 351 352 353
326 331 341 345 344 349 348 349 345 340 344 344 344 345 347 343 340 343 343 343 343 344 344 342 341 338 338 337 335 335 333 333 333 333 336 351 349 350 353 350 349 350 352
325 326 336 341 346 346 346 351 350 348 341 343 345 345 346 347 345 342 345 343 344 344 346 344 342 339 339 338 338 337 337 336 336 335 334 343 348 348 350 353 352 351 350
324 327 334 341 345 345 346 350 348 347 347 345 344 345 348 346 346 348 346 342 341 341 338 339 338 339 339 339 336 336 338 338 337 337 336 334 342 348 348 350 352 353 353
324 325 326 338 342 344 345 345 346 346 342 342 342 347 349 350 349 347 345 343 342 340 339 336 332 331 333 333 332 334 337 337 339 338 337 336 335 340 346 349 349 350 351
325 325 324 328 341 342 344 346 344 346 346 342 340 341 349 350 351 347 345 343 342 340 337 335 334 332 331 332 336 337 339 339 339 340 339 336 337 341 339 344 348 347 348
321 323 324 330 337 340 344 346 346 345 342 342 342 340 341 347 351 347 344 343 341 340 336 333 333 335 332 332 339 339 338 340 340 340 339 340 340 342 341 341 344 344 346
322 323 322 323 326 335 338 339 336 342 343 343 345 344 343 344 345 346 343 341 342 341 335 333 335 333 332 337 336 335 337 339 341 340 340 339 341 341 343 344 342 342 343
318 319 321 326 327 328 326 327 331 334 336 341 344 344 346 344 341 341 343 341 339 339 337 337 336 332 334 340 337 332 329 331 336 339 339 339 340 342 343 344 342 342 341
316 316 317 317 320 323 326 323 323 323 325 326 328 332 343 347 345 342 343 341 340 339 336 335 336 334 330 337 341 335 327 325 331 337 338 338 337 339 340 340 342 341 343
315 315 316 318 317 317 322 323 321 320 318 320 323 327 328 332 343 342 340 342 340 340 337 335 339 338 338 332 337 343 339 337 329 328 336 337 337 339 336 336 338 340 339
314 313 313 315 316 317 319 319 321 321 323 325 325 322 322 329 338 348 342 339 340 339 340 339 338 339 340 339 337 336 336 334 336 333 329 330 333 335 335 335 335 335 335
310 311 314 314 314 317 318 319 319 319 323 323 322 323 327 329 329 332 339 344 341 342 340 339 342 340 341 342 343 340 332 333 331 333 332 328 327 330 334 335 335 333 334

GFSSE_sfc_thetae_090.txt.gz
Theta_e
353 361 365 365 363 363 362 362 361 360 360 359 360 361 361 360 361 361 361 361 360 358 355 352 349 347 345 342 343 347 351 353 353 352 353 353 353 353 357 353 352 351 352
354 362 365 364 363 363 362 362 360 359 359 360 360 361 361 361 361 360 360 360 358 353 351 348 346 343 341 339 339 341 341 347 351 352 352 352 351 352 352 350 350 350 353
355 360 363 364 363 362 362 361 360 359 359 359 360 361 361 360 361 360 360 358 355 351 348 345 343 342 340 338 337 337 338 340 342 343 347 346 345 349 351 350 346 348 350
355 358 360 363 363 362 361 360 359 359 359 360 360 361 361 361 360 359 359 357 353 350 346 344 343 342 340 339 338 337 338 340 343 341 332 332 342 349 348 350 346 346 348
352 356 360 363 362 362 361 360 359 359 360 360 360 361 360 360 359 359 359 357 353 349 345 344 343 342 341 339 337 338 340 340 340 337 332 330 328 346 349 350 349 349 347
348 353 362 363 362 362 362 360 359 360 360 360 361 360 360 359 358 358 358 357 355 349 346 345 343 342 341 339 339 340 342 342 343 330 329 331 336 352 351 352 351 349 349
344 351 360 362 362 362 362 361 360 360 360 360 361 360 360 359 358 358 358 356 353 350 347 346 344 345 344 342 340 342 342 342 336 332 332 334 337 352 354 354 353 350 349
344 352 358 362 362 362 362 360 359 359 359 360 360 360 360 359 358 357 357 356 355 352 351 348 347 345 344 343 343 343 343 342 338 334 334 331 341 352 355 354 352 350 349
346 350 355 358 361 362 361 360 359 358 359 359 358 359 359 359 358 357 356 356 354 352 351 350 348 347 345 345 345 345 344 342 335 334 335 330 345 352 355 355 353 351 349
346 349 351 355 358 356 358 361 359 359 358 358 358 358 358 358 358 357 354 354 355 353 352 351 350 349 347 346 346 345 345 343 334 334 331 330 349 351 355 355 354 353 351
345 345 347 352 354 354 355 359 360 361 360 359 359 358 355 353 352 353 353 354 355 354 353 352 351 350 348 348 347 347 344 334 333 332 330 338 347 353 356 355 354 353 351
342 343 344 345 349 352 356 355 356 357 356 355 355 354 351 348 347 350 352 354 354 354 354 352 351 351 349 340 339 344 338 335 334 332 330 340 347 353 356 355 354 354 352
345 344 344 344 345 347 351 352 353 351 349 348 350 349 345 346 344 347 343 347 345 352 346 349 347 345 342 340 337 332 334 335 333 332 333 343 346 353 356 355 354 353 353
332 344 342 343 342 340 347 347 350 350 347 345 346 346 343 338 337 338 339 339 341 343 343 342 341 340 340 339 336 332 330 332 332 331 331 344 349 354 355 354 353 352 352
331 339 339 342 342 339 347 343 342 343 345 344 344 345 343 338 336 336 337 339 340 341 342 339 338 338 337 337 336 333 331 331 332 332 331 344 351 351 353 354 351 350 351
326 338 341 341 342 344 345 344 341 342 343 343 342 342 345 342 338 338 339 340 341 341 342 341 341 338 336 336 336 334 333 333 333 333 332 339 350 349 352 354 354 352 350
321 332 341 342 344 344 347 348 346 343 342 342 343 343 344 344 341 339 339 341 342 342 342 342 340 338 337 337 335 335 335 336 335 334 334 333 342 349 349 351 353 354 353
320 327 337 344 343 342 347 347 345 344 343 342 343 344 344 344 345 345 342 341 341 339 338 334 333 329 333 333 331 331 333 334 336 336 335 335 333 338 346 350 350 351 352
321 320 328 337 337 339 340 343 343 344 342 342 341 342 346 346 346 343 344 343 342 340 337 335 333 330 329 329 330 331 333 334 335 339 336 336 335 335 336 342 348 348 350
321 320 321 328 333 336 338 339 340 341 341 343 342 340 341 347 348 347 343 343 341 338 337 333 331 332 331 329 331 334 335 335 337 338 339 338 337 337 337 338 339 345 348
319 319 320 323 326 334 336 334 334 335 336 338 341 344 342 340 348 347 345 342 342 339 336 335 332 330 330 332 331 332 333 336 336 338 338 337 339 340 339 339 339 338 339
318 319 321 321 324 325 324 323 324 326 334 336 339 342 344 343 341 344 345 342 340 339 338 336 333 329 329 335 330 330 326 329 331 337 337 338 338 340 341 341 341 340 339
315 317 319 320 320 321 322 319 319 320 321 326 330 333 340 345 343 339 341 342 340 338 337 334 334 332 328 332 335 329 324 322 326 333 338 338 338 337 338 339 341 341 340
313 314 314 314 315 317 322 320 317 315 314 316 319 324 328 330 331 342 340 340 339 338 337 334 335 333 331 328 333 339 336 332 327 323 333 335 336 337 337 337 336 338 340
313 312 313 313 313 314 318 319 319 318 319 320 322 321 321 323 329 340 342 339 339 336 337 335 335 336 336 333 332 333 332 333 331 327 323 327 333 336 336 336 335 334 336
311 310 310 312 312 313 314 315 315 316 316 318 318 318 322 325 325 329 334 341 339 339 338 338 338 336 337 338 337 337 333 326 324 328 326 328 327 331 332 334 334 333 333

GFSSE_sfc_thetae_093.txt.gz
Theta_e
351 358 364 363 362 362 362 361 360 360 360 361 362 362 361 361 361 362 361 361 361 358 355 351 348 346 344 343 347 351 352 352 352 352 353 353 353 354 354 355 352 349 351
353 359 364 363 362 362 361 360 359 359 360 360 360 360 360 360 361 361 360 359 357 353 351 348 345 343 341 339 339 343 348 351 353 351 351 351 352 352 351 350 352 351 350
354 359 361 363 363 362 360 360 359 358 359 359 360 360 360 360 360 359 358 357 353 350 348 345 342 341 340 339 338 338 339 342 343 346 350 345 344 350 349 347 348 350 352
355 359 358 362 362 362 360 359 358 358 359 359 360 360 360 359 359 357 357 355 351 349 345 344 342 341 340 339 338 338 339 339 340 338 329 333 342 349 349 347 345 347 349
354 358 358 362 361 361 360 359 358 358 359 359 360 360 360 359 358 357 357 355 351 347 345 343 342 341 340 339 338 339 340 340 339 336 331 331 329 344 348 350 348 347 346
352 356 360 361 361 361 360 359 358 359 359 359 359 359 358 357 358 357 356 355 353 347 345 344 343 342 341 338 339 340 340 340 340 329 328 330 333 341 350 351 350 349 347
349 353 360 361 361 360 360 359 359 359 359 359 359 358 358 357 356 356 356 353 351 348 346 345 343 344 343 342 340 341 341 339 334 331 331 332 335 352 353 353 353 350 349
347 354 358 361 360 360 359 358 358 358 358 358 359 359 358 357 356 356 355 354 353 350 349 347 346 346 345 343 342 342 342 340 336 332 332 329 339 349 351 355 354 350 349
346 354 356 357 359 361 359 358 358 357 357 357 358 358 358 357 356 356 356 355 354 352 351 350 349 347 345 344 344 344 343 341 333 332 333 329 337 348 351 355 351 349 348
347 351 354 355 357 356 356 359 358 358 357 357 357 357 357 357 356 356 353 354 354 353 351 351 350 349 347 346 345 345 344 342 332 331 331 328 340 348 352 356 352 352 349
344 346 352 352 353 353 355 357 358 358 358 357 357 357 354 352 352 351 353 353 354 354 353 352 351 350 348 347 347 346 344 333 332 331 329 335 341 346 352 356 355 354 350
341 343 350 351 351 352 354 355 354 355 354 353 353 352 349 347 347 349 351 353 354 354 353 352 351 350 349 339 337 343 338 336 334 332 331 340 343 345 350 356 355 354 352
341 343 346 348 350 350 351 353 352 354 354 354 352 352 345 345 345 347 343 346 344 350 344 347 346 344 341 339 338 335 333 332 332 333 334 342 345 346 352 357 356 354 354
340 341 344 347 347 346 350 350 350 351 351 351 351 347 343 341 340 339 339 338 339 340 341 341 341 340 340 339 338 335 332 330 331 331 331 342 345 348 351 357 356 354 353
336 339 341 343 345 343 346 346 347 348 348 348 347 348 346 340 338 335 337 336 336 338 340 339 339 338 337 338 336 334 332 331 330 331 330 341 346 351 354 356 354 352 351
333 339 340 341 342 342 345 345 344 345 345 341 344 345 345 342 336 334 333 334 336 338 339 339 338 337 336 335 335 335 334 332 331 330 331 331 343 350 352 354 354 353 351
331 337 339 340 340 340 344 343 342 342 341 341 341 341 344 341 338 334 333 335 336 338 339 340 340 339 336 336 335 335 334 334 333 333 333 332 336 350 350 352 354 355 353
326 335 338 341 340 340 342 343 343 342 343 341 341 341 342 343 342 338 335 335 338 339 339 337 337 334 334 334 334 334 333 333 333 334 335 334 333 337 347 351 351 352 353
321 332 336 339 339 341 342 345 345 344 342 343 342 342 342 343 344 343 342 342 339 338 336 335 333 330 328 328 329 329 329 330 332 335 335 335 334 334 334 342 349 349 350
317 321 332 334 337 337 341 339 339 339 339 342 342 342 344 344 346 343 341 341 342 339 338 335 332 331 330 328 330 330 331 332 333 335 336 337 336 335 335 335 336 342 348
316 317 324 329 330 334 334 333 332 335 334 335 337 340 340 341 345 345 344 343 341 339 337 336 333 331 329 330 329 328 332 333 333 334 336 336 336 337 335 335 335 337 339
316 317 318 325 329 331 330 325 325 325 332 334 336 338 338 338 338 341 343 342 341 339 337 336 333 330 329 330 326 327 323 328 330 334 335 335 335 338 338 338 339 339 339
314 315 317 320 325 326 323 319 318 319 320 324 328 333 339 339 335 332 333 339 343 339 339 334 334 332 329 330 332 324 320 321 327 331 335 336 336 337 336 338 339 341 341
314 315 317 318 319 321 320 317 317 317 317 316 317 319 325 338 339 335 335 339 342 340 338 335 335 334 331 328 330 334 331 330 327 326 331 333 334 336 335 335 338 338 341
313 315 317 315 314 317 318 317 316 314 315 316 318 319 318 320 325 329 337 339 339 338 337 336 334 333 332 330 330 330 331 332 332 331 329 328 332 333 335 336 336 336 338
313 311 310 310 310 311 315 316 316 315 315 315 315 316 316 318 322 324 327 335 338 337 337 337 335 333 333 333 334 333 331 328 325 327 327 325 327 330 333 333 334 336 335

GFSSE_sfc_thetae_096.txt.gz
Theta_e
347 358 363 363 362 361 361 362 362 363 363 363 363 362 361 360 360 361 361 360 360 358 354 351 349 347 346 348 351 352 353 353 353 353 352 353 353 353 355 352 351 349 350
350 359 363 362 362 362 361 361 361 361 362 362 362 361 360 361 361 361 361 360 358 354 350 348 346 343 342 344 348 351 352 353 354 352 352 352 352 352 350 351 352 349 349
352 358 360 362 362 361 360 360 360 360 360 361 360 360 360 360 360 360 359 358 354 350 348 346 344 341 340 340 340 343 347 350 352 352 351 346 348 351 348 348 350 352 350
354 356 357 361 361 361 359 359 359 359 359 360 360 359 360 359 359 357 357 355 352 349 346 344 343 341 340 339 338 341 343 343 343 342 338 342 346 348 348 345 347 350 351
353 356 357 362 360 360 359 358 358 359 359 359 359 359 359 359 358 357 356 355 351 348 345 344 343 342 340 339 341 342 343 343 340 337 334 335 334 341 349 348 346 348 349
353 355 360 361 360 360 359 358 358 359 359 359 359 359 359 358 357 356 355 354 352 348 346 345 343 342 341 339 341 342 343 341 339 331 332 333 340 339 350 350 348 348 347
351 353 358 360 360 360 359 358 358 358 358 358 359 358 358 357 356 356 355 353 351 349 346 345 344 344 344 342 341 341 342 340 334 333 334 335 338 342 353 352 351 349 347
350 353 357 360 360 359 359 358 357 357 357 357 358 358 357 356 356 355 354 353 352 351 350 347 347 346 345 343 342 342 342 339 337 334 334 333 339 345 351 354 355 351 348
351 354 355 356 358 359 358 357 357 357 356 356 356 356 356 356 356 355 355 354 354 352 351 350 349 347 345 344 344 344 343 340 336 336 334 334 335 340 349 355 354 351 349
350 352 352 354 356 353 354 358 358 357 356 356 356 356 355 355 356 355 353 354 354 353 351 350 350 348 346 345 345 345 343 341 335 334 333 332 338 341 348 354 354 352 350
346 350 351 352 353 354 352 355 357 358 357 357 356 356 353 350 352 352 352 352 354 354 352 351 349 349 348 347 347 346 345 338 336 334 333 336 340 341 349 354 356 354 352
340 347 350 350 351 351 354 353 352 352 353 353 353 352 349 347 347 349 351 353 354 354 353 352 350 350 349 343 340 342 339 338 337 336 335 339 343 343 346 354 357 355 354
340 345 348 349 350 350 352 352 353 353 353 351 351 350 348 347 346 348 346 348 348 350 347 349 348 347 344 342 341 339 338 336 334 335 336 341 343 344 347 352 355 356 354
339 342 347 348 347 348 349 349 350 351 352 351 351 351 347 345 342 342 342 342 342 343 342 343 343 344 342 343 341 340 338 336 334 334 335 341 345 346 349 352 357 356 354
337 340 345 347 346 347 348 349 348 348 349 350 350 349 348 345 343 341 341 340 338 340 340 341 342 342 341 341 341 339 338 337 336 335 336 340 345 347 349 352 356 355 354
337 339 342 345 346 346 348 347 346 348 349 348 348 349 348 346 343 340 339 338 338 339 340 341 341 341 340 340 340 340 339 338 337 337 336 336 342 345 350 353 357 355 353
332 338 339 341 344 344 346 345 345 346 347 344 343 343 346 344 341 340 337 336 335 338 339 341 341 341 340 340 339 340 339 339 338 338 338 337 338 343 350 353 355 356 355
327 335 337 341 340 341 343 343 343 342 343 344 344 342 342 344 342 338 336 335 337 338 340 340 340 340 339 339 338 339 339 339 339 339 339 339 339 339 345 351 351 353 354
321 330 334 338 338 339 339 342 341 340 340 341 342 341 341 342 343 341 339 339 340 339 339 339 338 336 333 333 333 334 334 333 335 336 338 340 341 340 340 344 349 350 351
313 324 332 336 338 337 337 339 340 340 340 340 341 341 342 342 343 343 343 343 343 342 341 339 338 336 334 333 332 333 334 335 336 336 338 340 343 341 341 341 342 347 348
309 316 327 331 333 337 336 336 336 338 339 338 341 342 343 343 344 343 343 342 342 341 340 340 338 336 334 334 333 332 335 337 336 336 339 341 341 343 341 341 341 343 345
311 313 319 328 329 336 339 332 334 333 334 336 337 339 341 343 345 344 341 340 342 341 340 340 337 335 333 333 332 331 324 330 334 338 340 341 342 343 342 342 342 343 344
309 313 316 324 330 333 332 324 321 323 326 331 334 336 339 340 339 340 338 335 341 341 339 339 337 335 334 334 333 331 324 320 330 337 340 341 342 342 342 343 344 345 346
307 311 315 317 327 332 328 326 322 323 321 325 328 328 336 339 338 336 334 332 336 339 338 338 337 336 334 332 332 335 335 333 327 326 337 339 339 339 342 342 343 345 346
305 309 315 317 321 325 326 328 321 318 319 318 320 321 322 328 335 337 337 336 338 339 340 340 338 335 335 334 332 333 332 334 334 331 326 332 335 338 340 341 342 343 345
303 308 313 316 318 319 321 320 320 319 318 317 317 318 319 320 322 325 328 335 339 338 336 337 337 335 335 335 335 333 333 331 329 330 330 331 332 336 338 340 341 342 344

GFSSE_sfc_thetae_099.txt.gz
Theta_e
351 360 363 363 363 363 364 365 364 364 363 362 361 361 360 359 361 361 361 361 361 358 355 352 351 350 350 351 352 353 355 354 353 354 354 353 353 352 354 350 350 346 350
355 360 362 362 363 363 364 364 364 363 363 362 362 361 360 360 361 361 361 361 359 356 352 350 348 346 347 349 352 352 353 354 354 353 353 353 354 352 351 350 349 348 350
357 361 360 362 362 362 363 363 363 363 362 362 361 361 360 361 361 361 361 360 357 353 350 348 345 343 343 346 349 352 353 353 352 352 350 345 346 350 347 348 349 350 349
358 361 358 361 361 361 361 361 362 362 362 362 361 360 360 361 361 360 359 357 354 350 348 346 344 342 341 340 342 344 347 350 351 351 350 349 347 349 348 346 346 349 349
358 360 359 361 361 360 360 360 360 361 361 361 361 360 360 360 359 358 357 356 353 349 347 345 344 344 342 341 342 344 343 343 342 338 340 343 344 346 349 348 345 346 349
355 359 361 361 360 360 360 359 359 360 360 360 360 359 359 359 358 357 356 355 353 350 346 345 345 344 343 341 342 342 341 340 340 338 341 340 344 348 350 350 347 347 347
354 358 360 360 360 360 359 359 359 359 359 359 359 359 359 358 357 356 356 355 353 352 349 346 344 345 344 341 339 339 339 339 336 337 338 341 346 343 351 351 351 350 348
353 358 360 360 359 359 359 358 358 358 358 358 358 358 358 357 356 356 356 354 353 352 351 348 347 346 345 343 340 339 338 339 338 336 335 338 341 344 347 354 354 352 349
353 357 359 358 359 359 358 358 357 358 357 357 357 356 356 356 356 355 355 355 354 352 351 350 348 347 345 344 342 342 340 340 338 338 336 336 337 340 350 355 355 354 351
352 353 357 358 355 354 355 358 357 357 357 357 357 356 355 355 356 355 353 354 354 353 351 351 349 348 346 345 344 343 342 342 338 336 335 337 337 340 346 353 356 355 352
348 352 355 356 356 355 353 355 357 356 357 357 356 357 353 349 351 351 351 354 355 353 352 350 350 349 348 347 346 345 344 341 339 337 338 342 340 343 345 353 356 356 353
344 349 353 356 356 355 351 354 353 353 353 352 352 354 352 353 353 351 352 352 353 353 352 352 351 350 347 345 344 344 341 342 341 339 340 341 342 345 346 353 356 357 355
343 347 351 356 357 355 352 353 353 352 354 355 355 356 356 352 353 350 350 350 352 352 349 349 348 348 348 349 347 346 344 343 344 343 342 341 343 346 348 351 353 356 356
344 347 351 354 356 356 354 354 353 352 353 352 354 357 355 352 352 351 349 349 351 350 349 349 346 350 351 351 351 350 348 347 346 345 346 342 344 345 348 351 353 356 357
343 347 350 353 355 356 355 354 354 353 353 354 355 356 354 352 350 351 351 350 349 348 347 348 349 350 350 351 350 350 350 349 349 346 346 346 345 346 348 350 354 357 356
345 347 349 351 355 355 356 357 356 356 355 355 354 354 352 354 354 352 351 349 349 348 346 347 348 349 349 350 350 352 351 351 351 350 347 348 344 344 346 349 354 357 355
345 349 349 350 353 354 354 355 355 354 354 353 351 353 355 356 355 354 350 349 348 347 347 347 348 349 349 350 352 352 350 350 349 350 350 349 347 345 345 347 354 358 357
341 346 349 349 350 351 352 353 352 352 352 353 350 352 352 356 356 353 348 347 346 345 343 344 346 348 348 349 349 348 347 348 348 349 348 348 347 346 347 347 353 354 356
332 340 347 349 349 351 353 351 352 352 351 351 349 345 351 350 352 352 349 346 346 343 343 345 347 347 346 345 344 345 346 343 346 344 345 346 348 347 349 348 349 350 352
323 330 341 347 349 350 350 350 348 348 349 349 348 347 349 348 348 349 349 347 346 344 346 347 348 348 346 346 343 342 345 345 345 346 346 345 346 349 352 353 351 349 349
322 323 330 338 347 347 345 343 344 343 345 345 348 350 349 349 348 349 347 349 351 349 349 349 352 349 345 346 342 342 341 346 346 345 345 344 346 350 353 353 352 350 350
321 325 326 332 343 346 346 347 347 347 347 347 347 348 349 349 350 351 350 350 348 349 346 346 343 342 343 345 340 340 331 336 341 345 349 348 352 352 352 352 353 353 352
317 323 326 330 338 344 348 348 343 347 345 345 346 347 348 349 350 352 352 350 349 347 335 335 344 342 338 343 345 340 332 326 333 343 344 346 352 349 350 352 354 354 354
316 318 323 328 332 339 347 345 344 342 340 343 346 348 350 350 349 350 351 344 344 342 345 342 339 343 346 341 341 343 343 339 332 329 338 341 345 347 351 349 350 354 355
316 317 321 325 329 335 343 346 345 345 345 345 347 350 349 349 349 347 347 347 345 343 345 346 347 345 345 342 341 341 342 341 340 333 328 335 340 345 346 347 348 349 353
317 318 319 321 327 329 337 342 346 346 344 336 338 340 342 344 346 348 347 347 345 343 343 343 347 347 345 344 343 344 341 334 337 336 333 335 333 338 342 346 346 346 349

GFSSE_sfc_thetae_102.txt.gz
Theta_e
349 360 364 364 364 365 366 366 365 364 362 361 362 362 361 361 362 362 362 362 361 359 357 355 353 353 351 352 352 353 353 353 355 354 353 353 352 353 351 350 350 346 350
352 361 363 363 364 364 366 366 364 363 362 361 362 361 361 361 362 362 362 361 359 357 354 351 350 350 350 351 352 353 354 353 353 353 352 354 352 354 351 350 351 350 350
353 361 360 363 364 364 366 365 364 363 362 361 361 361 360 361 362 362 361 360 358 354 351 349 346 346 348 350 352 352 353 353 352 352 352 350 346 349 347 348 349 350 348
355 361 357 362 363 364 364 364 363 363 362 362 361 361 361 361 361 360 360 358 356 351 349 346 344 343 344 347 350 352 352 351 351 351 351 350 346 348 346 346 346 348 350
356 359 359 361 362 363 363 363 363 363 362 362 362 361 361 361 361 360 360 358 353 350 347 345 343 342 341 340 341 342 344 346 348 349 346 349 349 349 349 346 346 347 347
354 356 360 361 361 362 361 362 362 362 363 363 362 361 361 361 360 359 358 357 354 349 347 345 344 342 341 339 339 339 339 339 340 344 347 344 346 352 350 350 347 345 346
352 355 362 360 361 361 361 361 361 362 361 361 361 361 360 360 358 357 356 354 352 350 348 346 344 343 341 339 338 338 338 339 338 340 343 345 347 347 351 351 351 350 350
351 355 360 360 359 359 360 360 359 359 359 360 360 359 359 358 357 356 356 354 353 352 349 347 345 344 343 340 339 338 339 340 337 336 338 339 342 341 349 354 354 352 351
352 354 360 357 358 359 359 358 358 358 358 358 358 358 358 358 357 356 356 355 354 352 349 347 345 344 343 342 340 340 340 341 338 336 335 335 344 338 348 353 355 354 353
351 352 358 357 354 354 354 359 358 358 358 358 358 358 357 356 355 354 354 354 352 350 349 348 346 345 345 344 343 342 342 343 336 336 335 339 336 337 343 351 356 357 355
348 350 355 355 355 353 353 354 357 357 358 358 357 357 354 349 350 351 350 354 352 350 348 348 348 349 347 347 346 345 343 340 340 337 338 344 339 343 344 350 354 357 356
345 347 352 356 356 354 349 354 353 350 351 353 353 354 352 347 348 346 350 351 351 351 350 349 349 349 347 346 347 346 342 346 344 340 339 342 342 346 348 348 356 357 357
346 348 351 356 360 356 352 352 350 348 348 350 353 355 353 347 351 350 348 349 349 351 347 349 348 349 351 352 350 349 349 348 347 346 345 344 344 346 348 350 353 356 357
345 348 352 356 360 360 354 351 351 348 348 348 349 354 352 350 352 348 345 346 350 348 348 349 346 352 355 356 355 353 352 351 349 349 350 346 346 345 348 350 353 355 355
345 348 352 355 359 360 359 353 353 352 350 352 351 354 352 349 350 350 349 347 346 345 346 345 348 353 354 355 355 354 353 354 354 351 349 350 347 347 348 350 351 356 357
344 348 353 356 360 360 361 361 357 356 354 353 352 353 357 354 354 350 351 349 349 346 344 344 346 349 351 353 354 355 354 354 353 354 350 350 349 348 348 349 350 354 356
336 348 353 356 358 361 359 358 360 356 355 353 353 357 358 358 358 357 352 351 351 352 351 348 348 348 350 352 354 354 353 352 350 352 352 350 349 348 348 349 351 353 359
336 344 353 353 356 360 360 359 357 355 355 354 353 355 358 358 360 361 353 353 354 353 350 345 342 342 346 348 351 352 351 351 351 352 351 350 348 347 350 350 351 353 356
330 340 351 357 355 358 360 358 358 359 356 354 356 355 356 357 359 360 352 355 358 349 346 344 343 347 347 351 349 350 351 349 350 347 349 350 352 350 348 352 349 350 352
326 331 339 349 357 359 358 358 355 354 354 353 353 353 356 357 356 357 353 355 352 347 344 344 348 353 352 350 346 345 350 350 349 349 348 348 349 350 351 354 356 352 349
326 330 333 335 351 355 353 352 351 349 351 351 352 353 352 349 350 354 350 351 351 347 349 354 353 354 349 350 346 343 345 349 349 348 352 349 348 350 355 356 357 355 354
325 329 332 336 339 350 351 352 350 349 350 352 353 354 352 351 351 349 349 349 352 345 352 355 355 345 345 350 338 345 334 337 344 346 350 352 357 354 352 354 357 358 358
323 326 329 334 338 341 351 349 351 352 352 350 351 351 352 352 352 351 352 354 354 353 352 353 350 346 335 338 345 334 328 326 335 343 346 347 352 350 350 350 353 355 358
320 323 327 330 335 337 344 347 355 347 343 346 350 351 352 352 351 351 353 354 358 354 355 352 349 347 344 335 337 341 345 341 337 330 340 344 347 348 352 348 350 352 353
321 322 325 329 333 336 339 346 345 348 342 343 345 355 357 357 352 351 354 355 355 353 356 351 350 350 339 335 332 333 339 346 344 334 327 335 340 344 344 347 348 346 352
320 322 326 329 330 333 336 338 345 349 349 341 344 345 348 352 354 355 354 355 355 351 349 348 352 351 347 345 338 338 336 334 336 336 332 334 334 339 342 344 346 343 350

GFSSE_sfc_thetae_105.txt.gz
Theta_e
350 358 365 366 367 367 366 365 365 363 361 362 363 362 361 362 362 363 362 362 361 359 358 357 355 353 351 351 353 353 353 355 354 354 353 353 353 354 351 351 353 347 351
354 359 364 365 366 367 366 365 365 363 361 362 362 361 361 362 362 363 362 361 360 357 355 353 351 351 351 351 353 353 353 353 353 352 351 352 353 353 350 350 351 349 352
355 359 360 364 366 367 367 366 364 363 362 363 362 361 361 362 362 361 361 360 358 354 351 349 348 349 350 351 352 353 353 352 351 351 353 354 346 349 346 347 348 349 349
356 360 358 363 365 366 366 365 364 363 362 362 362 361 361 362 362 360 360 358 356 351 349 346 345 346 348 350 351 351 350 350 350 351 352 348 345 349 346 345 345 347 348
355 358 361 363 364 366 366 365 364 363 363 363 362 361 361 362 362 361 360 357 353 350 347 344 343 342 342 343 345 347 347 348 349 350 348 346 347 349 350 346 345 346 346
351 354 360 362 363 365 365 363 364 363 363 363 362 361 361 362 361 361 358 356 353 350 346 345 343 342 340 338 338 338 339 341 342 342 346 345 345 351 350 349 346 345 346
350 352 361 361 362 363 364 364 363 363 363 362 362 362 361 361 360 358 357 354 352 349 347 346 344 342 340 338 336 336 338 339 336 339 340 344 345 351 351 350 350 349 348
351 353 361 360 361 362 363 362 362 362 362 362 361 361 360 359 358 356 354 353 351 349 347 345 344 343 341 338 337 338 339 340 337 336 336 337 345 345 346 353 354 353 352
352 353 359 355 358 361 361 361 361 360 360 360 360 360 360 357 356 355 353 351 351 349 347 346 344 343 342 341 340 341 341 341 337 335 335 335 346 342 345 350 354 355 354
350 352 356 355 352 353 356 360 360 360 359 359 359 359 358 356 355 354 354 353 351 349 348 346 345 344 343 345 345 345 343 343 335 334 337 338 342 337 337 346 353 357 356
347 351 356 353 352 351 350 354 358 358 359 359 358 358 355 350 352 352 349 354 352 350 348 347 347 347 347 348 348 347 344 338 341 340 337 347 343 340 342 345 351 354 357
343 346 353 355 354 353 349 355 350 350 352 353 353 355 351 349 349 344 350 354 352 351 350 350 350 350 347 343 345 346 343 344 345 343 341 349 345 344 346 348 351 355 357
342 344 348 357 361 354 350 352 350 346 346 348 351 358 356 348 348 345 348 348 348 351 345 347 348 347 348 351 349 348 348 347 347 346 346 350 347 346 347 349 352 354 357
341 345 348 355 360 362 353 350 351 344 345 345 348 360 358 350 354 352 344 346 350 346 348 349 344 348 352 355 354 352 352 351 348 349 349 350 348 348 348 350 351 354 355
337 345 348 354 362 366 367 354 353 350 346 346 348 354 352 348 354 351 351 345 347 345 346 345 344 349 353 355 354 353 352 353 353 351 351 352 349 350 350 351 352 353 357
335 345 349 352 366 362 363 366 359 358 350 348 347 351 357 352 357 348 350 347 346 345 344 345 346 349 353 352 351 353 353 354 353 354 351 353 351 350 352 352 352 353 356
332 343 350 354 361 367 364 364 362 355 353 350 351 359 360 359 361 357 348 348 346 349 353 350 347 350 345 346 350 351 352 354 351 352 353 353 349 351 352 353 354 355 356
330 336 344 347 353 363 365 364 359 357 356 352 352 350 359 358 359 358 352 351 353 352 349 347 344 341 343 344 350 349 351 354 353 353 353 354 352 349 352 353 353 353 355
327 333 340 350 351 357 365 363 364 365 358 356 356 353 362 361 358 356 355 353 357 354 353 350 344 344 343 350 351 355 356 352 355 349 354 355 355 353 351 353 351 351 352
327 331 334 342 358 362 360 364 359 358 357 357 355 356 362 358 355 360 354 358 359 352 349 347 350 345 347 350 347 347 356 356 358 355 353 351 352 355 356 356 355 350 350
327 328 333 336 352 356 354 352 353 351 353 353 355 361 361 358 357 362 353 357 359 355 352 356 349 352 346 355 349 344 349 355 356 352 353 356 353 351 353 357 358 358 353
325 329 332 335 343 348 347 355 354 354 350 351 352 359 359 359 361 360 358 355 358 350 356 356 354 344 348 353 342 341 332 338 345 352 352 354 355 355 354 357 359 362 362
322 326 332 337 342 346 350 348 358 356 353 347 347 350 357 359 359 357 359 356 356 354 347 354 355 355 343 348 351 337 328 327 333 345 352 349 354 352 353 353 357 360 363
322 324 326 331 338 340 349 343 348 343 342 342 343 345 354 361 359 357 357 357 355 351 350 355 356 355 352 340 343 343 346 339 329 328 339 346 350 351 357 351 355 357 359
322 323 326 333 334 337 342 348 339 342 337 341 344 351 356 359 361 357 358 356 358 357 358 359 358 357 348 343 338 336 340 336 340 335 327 329 338 345 350 351 351 355 358
321 323 326 329 333 335 336 340 346 347 346 340 341 342 345 350 355 358 355 357 360 360 359 356 357 357 354 348 342 340 333 330 332 333 331 333 335 335 339 346 347 350 352

GFSSE_sfc_thetae_108.txt.gz
Theta_e
351 360 367 368 366 365 365 365 363 362 362 362 362 362 362 362 363 364 363 362 362 362 359 357 355 353 353 352 353 356 357 357 355 353 353 353 355 354 354 356 355 348 352
355 360 366 366 366 365 365 365 364 362 362 362 362 361 362 362 363 363 363 362 361 357 355 353 352 352 352 353 354 354 354 353 352 351 352 352 354 352 352 353 351 349 352
353 360 363 366 367 366 365 365 363 361 362 362 361 361 361 362 362 362 362 361 358 354 352 351 350 351 351 351 353 353 353 352 351 351 352 352 345 351 349 349 351 350 351
354 358 361 365 366 366 365 364 363 362 362 362 361 361 361 362 362 361 361 359 356 352 350 348 349 349 350 350 351 351 351 350 352 354 349 351 343 351 350 348 348 350 349
354 357 362 365 366 366 366 364 363 362 362 362 362 361 361 362 362 361 360 358 355 350 348 346 346 347 347 347 349 348 348 348 350 349 344 343 343 349 352 349 347 347 349
352 355 361 364 365 365 366 364 363 363 362 362 362 361 362 361 361 360 359 357 354 351 347 346 347 346 344 343 344 344 346 345 345 337 341 342 342 353 354 350 348 348 348
350 358 359 363 364 365 365 364 363 363 362 362 362 362 361 361 360 359 357 355 354 352 349 346 346 346 345 344 344 344 344 344 335 331 334 341 348 354 354 352 351 350 350
353 359 357 362 363 363 364 364 363 362 362 362 361 361 361 360 359 358 356 354 352 351 350 347 347 346 345 345 344 343 343 342 335 332 335 333 348 352 355 353 353 353 351
354 359 356 356 361 363 363 362 362 362 361 361 361 361 360 359 358 357 355 354 353 351 351 349 347 346 346 344 344 344 344 343 336 332 332 339 349 350 349 351 354 354 354
348 357 354 354 354 357 360 362 361 361 361 360 360 360 359 358 357 356 355 354 354 352 351 349 348 347 346 346 346 346 346 344 337 331 331 338 346 347 345 347 351 356 356
344 355 352 349 351 352 354 359 360 361 361 360 360 359 356 353 353 352 351 353 354 353 351 351 350 349 348 348 347 348 347 337 334 335 337 349 348 347 344 346 349 352 355
341 348 352 350 350 349 347 356 357 358 358 358 357 357 354 351 352 347 349 354 354 353 352 351 351 351 350 340 341 348 341 338 337 342 341 350 351 349 347 348 350 351 355
341 343 353 355 354 350 348 354 350 351 353 355 357 357 354 349 351 345 349 347 350 352 346 347 347 344 340 341 347 343 341 343 344 345 345 351 351 352 350 352 353 353 355
338 344 347 357 359 357 352 353 351 346 347 347 349 355 353 351 350 347 348 346 346 345 342 343 343 345 346 353 353 352 350 350 348 349 345 351 350 351 353 353 354 355 355
336 346 347 348 356 357 362 354 353 347 345 345 347 352 353 348 351 352 350 349 347 344 344 346 346 350 350 352 353 353 350 352 350 350 350 352 349 350 353 354 355 355 356
339 347 349 342 346 364 359 362 359 351 349 347 348 351 352 351 349 349 351 353 351 348 348 346 347 347 352 352 352 353 351 352 352 352 350 351 350 350 352 355 356 356 357
343 347 349 343 337 352 361 362 364 358 349 346 347 351 351 353 350 348 347 346 348 352 353 351 349 351 351 349 347 351 353 353 352 351 352 352 351 351 352 354 356 356 356
340 340 351 348 355 361 364 364 362 362 359 355 350 352 352 351 354 354 348 346 347 348 348 347 345 345 343 342 342 347 349 352 350 350 351 350 350 349 351 353 354 355 355
341 343 344 351 351 362 364 363 363 362 361 360 358 353 356 354 352 357 348 351 352 346 344 344 344 342 340 340 341 349 351 350 349 348 348 350 352 350 348 353 352 352 353
333 339 340 342 350 365 364 363 362 361 359 358 357 355 351 355 355 352 355 350 357 349 349 349 347 346 343 342 343 345 350 351 353 351 350 350 350 350 351 350 348 348 350
331 334 341 343 346 351 358 356 357 355 356 356 357 358 357 357 357 356 352 352 354 351 349 351 349 345 341 346 344 346 349 351 351 349 350 349 350 349 350 349 351 352 351
333 337 338 340 350 347 345 357 357 356 353 356 356 356 360 356 356 354 352 351 350 351 355 352 347 341 341 343 342 341 333 339 347 349 349 352 350 350 347 347 353 355 356
332 333 336 343 345 351 347 343 346 354 352 349 350 353 355 358 357 355 353 352 351 351 349 350 349 342 337 344 346 339 330 326 335 344 347 347 347 351 352 351 353 355 354
327 331 337 342 345 342 348 346 344 340 343 344 347 350 352 355 354 355 355 355 353 351 349 348 348 345 341 341 345 345 342 339 327 327 341 344 348 347 347 349 348 352 355
327 329 334 340 340 344 348 348 340 339 337 339 342 346 347 354 354 353 354 350 351 351 350 348 345 345 344 344 341 340 339 337 337 330 324 328 339 344 345 345 338 333 330
324 327 332 334 339 341 344 344 342 342 340 339 340 342 344 342 354 355 354 352 347 350 347 347 348 347 347 347 343 341 337 333 332 331 328 327 327 331 337 334 331 334 332

GFSSE_sfc_thetae_111.txt.gz
Theta_e
355 364 365 364 364 364 364 362 362 362 362 361 362 362 362 362 362 362 362 363 362 362 359 356 353 352 353 353 355 357 358 358 357 354 354 355 353 354 356 358 352 348 351
358 363 364 363 364 364 364 363 362 362 361 361 362 361 361 362 363 362 362 361 360 358 356 353 352 352 353 353 354 355 354 355 355 355 354 354 352 352 355 351 351 350 351
357 362 363 363 364 364 364 363 361 361 361 361 361 361 361 362 363 362 361 360 358 354 352 351 351 352 352 353 354 354 353 354 354 354 352 349 346 350 351 352 351 351 350
357 359 361 363 363 364 364 362 361 361 361 361 360 361 361 361 362 362 360 358 357 351 350 349 350 351 351 352 352 352 352 353 354 354 349 349 343 351 350 351 350 350 350
353 357 362 364 363 363 364 362 361 361 361 361 361 361 361 361 361 360 359 357 355 350 348 346 347 349 349 350 351 351 350 349 350 346 339 339 340 351 353 352 350 350 352
350 358 363 364 363 363 363 362 361 362 362 361 361 361 361 361 360 359 358 356 354 352 347 346 348 347 346 345 345 345 346 345 346 331 330 338 341 354 355 354 352 350 350
351 357 362 363 364 364 364 363 362 361 361 361 361 361 361 360 359 359 357 355 354 353 350 347 348 346 344 343 342 343 344 342 333 329 328 335 344 353 356 355 353 352 351
354 356 359 363 363 363 363 363 361 360 360 360 360 360 360 359 358 357 356 355 354 352 352 350 348 346 343 342 341 341 342 341 334 330 329 335 350 354 356 355 355 354 353
354 353 355 358 362 363 362 361 361 360 360 359 359 359 359 358 358 357 355 354 353 352 351 350 348 347 344 343 343 343 344 342 332 331 330 338 351 354 357 356 355 355 355
352 351 351 354 358 357 359 362 361 360 360 359 359 359 358 358 357 356 353 354 353 353 352 351 349 348 346 345 344 345 346 344 334 332 328 331 351 354 353 354 354 355 355
352 349 349 349 351 353 355 360 361 362 360 360 359 359 355 351 352 352 352 354 354 353 352 351 350 348 347 346 346 347 347 336 333 331 330 347 349 351 349 349 351 353 357
347 346 346 347 347 346 355 355 354 357 357 356 356 355 351 348 348 350 350 354 354 353 352 352 351 350 348 339 338 348 339 336 333 331 332 350 351 352 350 350 349 351 353
347 346 344 345 345 344 344 354 353 352 353 353 352 352 348 347 347 347 341 347 346 351 344 346 344 343 339 338 336 337 338 336 335 337 342 351 352 354 353 352 352 351 353
340 346 346 345 344 343 344 350 348 348 351 352 352 352 349 344 340 342 342 341 343 343 340 337 338 338 337 336 336 339 338 337 339 342 346 352 351 354 355 355 355 355 353
339 346 351 349 346 345 348 348 345 344 346 346 347 349 349 343 341 339 341 339 341 340 339 335 335 337 339 339 344 346 344 343 345 343 340 353 350 351 355 356 355 356 355
338 345 348 343 342 344 346 348 346 343 343 342 343 345 347 345 341 341 340 341 341 340 339 335 337 338 341 343 344 347 347 345 346 345 346 347 350 350 352 355 356 357 357
333 343 342 333 331 333 349 349 353 346 343 341 341 342 347 347 341 343 341 342 342 341 339 340 340 339 339 343 344 347 346 344 345 345 344 345 346 350 352 354 356 356 357
337 339 339 338 336 335 351 350 353 353 345 341 340 343 347 346 345 342 342 340 340 340 341 340 339 337 340 339 338 336 341 344 346 344 345 346 345 347 351 353 354 355 356
321 331 335 335 336 335 342 353 354 353 352 347 344 344 347 346 347 344 343 342 340 340 338 336 335 335 333 332 332 332 338 341 343 345 343 342 343 345 345 350 352 352 353
321 321 322 324 329 343 352 352 354 352 351 352 349 347 347 347 346 347 346 343 344 341 339 337 334 335 333 333 336 335 340 342 342 342 341 343 343 345 344 343 347 348 350
317 316 318 319 321 331 331 346 347 348 349 351 352 351 347 348 347 344 345 347 343 343 341 340 337 335 335 334 332 333 338 341 341 342 343 343 342 343 344 346 345 343 346
317 317 320 322 327 324 330 331 343 345 347 351 351 352 351 345 349 348 344 343 347 345 343 340 341 336 336 336 333 330 327 331 338 341 341 341 342 345 345 344 343 346 346
317 320 320 322 323 332 327 326 328 330 339 341 344 347 349 348 347 345 347 346 344 345 344 344 344 338 336 334 337 332 323 321 327 335 338 341 342 343 344 345 343 349 350
315 317 321 322 325 326 328 330 328 327 328 331 332 339 346 343 336 337 330 346 343 344 342 343 347 340 333 332 338 341 334 328 322 322 333 338 340 341 342 340 343 337 334
313 318 318 320 322 326 326 326 325 325 327 330 333 332 335 340 330 330 330 345 327 329 345 344 344 344 338 336 337 338 339 335 329 323 319 325 332 338 338 339 335 330 334
312 315 314 318 317 319 322 325 327 326 325 327 328 330 331 333 336 343 345 335 328 337 345 340 334 335 339 339 338 338 334 332 331 325 321 321 321 325 332 333 331 332 333

GFSSE_sfc_thetae_114.txt.gz
Theta_e
356 361 364 364 362 362 361 361 362 361 360 361 361 361 361 361 361 362 362 362 362 360 357 355 351 352 352 354 354 355 357 356 356 354 353 352 353 356 356 353 351 348 350
358 361 363 363 363 362 362 361 361 360 360 360 361 361 361 361 361 361 361 361 360 358 356 352 351 353 353 353 354 354 353 353 355 355 354 352 352 352 352 351 351 348 350
358 360 361 363 363 362 361 361 361 360 360 360 360 361 362 361 362 360 360 359 358 355 352 351 351 352 353 353 353 352 351 352 353 353 353 347 344 351 351 350 351 350 349
359 359 359 362 362 362 361 361 360 360 360 360 360 361 362 361 361 360 359 358 354 352 351 350 351 351 352 352 352 350 350 351 351 350 347 348 343 350 351 351 351 351 350
357 359 359 362 362 362 362 360 360 360 360 360 360 360 360 361 360 359 358 356 353 349 349 349 350 350 351 351 351 350 348 346 345 341 332 338 339 350 351 351 351 352 349
355 359 362 362 362 362 362 361 360 360 360 360 360 360 360 359 359 358 357 355 354 350 347 346 348 348 349 348 347 345 344 343 344 327 327 336 338 353 353 351 350 351 350
355 359 361 362 362 362 362 361 360 360 359 359 360 360 360 359 358 358 356 355 354 352 349 347 348 347 346 345 344 342 341 341 331 327 328 331 340 353 355 355 353 350 349
353 357 359 363 362 361 361 361 360 359 359 359 359 359 359 358 358 357 356 355 354 353 351 349 349 347 345 343 342 341 341 341 333 327 327 327 345 354 356 355 354 353 349
354 354 357 359 362 363 361 360 359 359 359 358 358 358 358 358 357 356 355 354 353 352 351 350 349 348 345 343 343 343 343 342 330 328 328 329 351 355 356 356 355 354 354
351 351 354 356 359 358 358 361 360 359 359 358 358 358 357 357 357 356 353 353 353 352 352 350 349 348 346 344 344 344 345 343 333 331 329 328 351 354 358 356 355 355 355
348 348 352 354 356 356 356 359 360 361 360 358 358 358 355 352 351 351 351 352 353 353 352 351 349 348 347 346 346 346 346 335 332 330 328 336 346 353 356 356 356 355 355
345 345 348 351 352 354 358 356 357 357 357 356 354 354 351 348 348 349 350 353 354 353 352 351 350 349 347 336 335 343 338 335 333 331 330 343 351 354 354 352 353 354 355
346 345 346 348 350 350 352 353 354 355 355 354 353 352 348 347 346 347 344 346 345 351 344 346 344 343 339 337 335 333 335 336 334 334 337 346 350 353 355 351 350 351 352
345 345 345 346 346 346 350 351 352 353 353 352 352 351 348 344 342 343 342 339 341 341 339 338 338 338 337 337 334 333 335 337 335 336 339 348 350 352 357 354 352 351 350
342 342 342 344 343 343 344 348 348 350 351 351 351 351 349 345 341 342 340 339 340 338 339 334 333 333 333 333 334 336 338 339 337 340 339 354 350 352 356 357 355 355 354
342 341 345 343 343 341 341 345 344 345 348 349 349 350 350 347 344 339 339 339 337 338 338 336 332 331 331 334 336 339 344 344 343 343 338 345 351 351 353 356 357 356 356
342 345 345 343 345 344 342 344 343 341 343 343 344 347 349 348 343 341 338 338 337 337 336 335 330 331 332 337 338 340 344 345 345 345 344 343 345 350 351 353 355 356 357
337 343 344 345 337 331 345 347 348 343 341 341 340 341 343 347 346 339 339 339 339 337 336 334 333 332 333 333 338 340 340 342 343 344 343 342 344 344 348 352 354 355 356
335 338 336 334 333 332 332 344 347 350 342 341 337 338 340 343 346 343 339 340 337 338 337 336 334 333 331 333 333 332 333 335 339 344 343 342 342 343 343 347 351 351 353
333 335 335 332 332 336 332 340 348 348 348 348 343 340 339 341 343 344 343 339 338 337 335 334 334 333 333 333 335 334 332 333 336 339 341 341 340 341 342 342 342 347 350
326 333 332 326 327 327 328 343 344 345 345 347 348 349 345 342 343 341 343 341 339 339 338 335 334 332 333 331 329 329 331 336 338 339 340 340 341 342 342 342 341 341 343
316 321 318 318 323 322 320 327 341 342 341 345 347 347 346 346 345 343 341 341 343 340 339 337 335 335 333 332 330 325 323 327 335 341 341 340 339 339 341 342 342 342 341
313 314 316 318 320 321 323 324 325 326 328 332 333 338 341 345 346 343 341 339 339 341 340 341 340 336 335 332 334 329 321 322 323 332 337 340 339 338 340 342 342 341 343
314 317 320 322 322 324 328 326 323 321 320 323 325 330 331 336 342 345 343 340 334 331 333 340 342 341 340 336 330 336 332 326 321 318 330 334 337 337 339 341 340 338 337
314 314 316 319 322 323 323 321 320 319 320 323 323 323 326 331 338 336 338 331 329 332 334 335 335 338 339 337 334 334 332 333 331 323 320 326 331 335 339 339 336 332 335
311 313 312 314 314 317 318 318 319 320 321 322 323 324 323 322 327 336 334 328 328 328 328 329 332 333 336 335 335 332 325 322 319 316 315 320 322 327 332 332 331 329 331

GFSSE_sfc_thetae_117.txt.gz
Theta_e
354 358 362 363 361 361 361 361 361 361 361 361 361 361 361 361 361 362 362 361 360 358 356 353 351 351 353 353 354 355 355 355 354 351 352 353 354 355 353 351 350 347 350
356 359 363 362 362 361 361 361 360 360 360 360 360 360 360 360 361 361 361 360 360 357 355 352 350 351 353 353 353 353 353 354 356 354 351 352 354 353 351 350 350 348 349
355 358 360 362 362 361 361 361 360 359 360 360 359 359 360 360 360 359 360 360 358 356 353 351 351 352 353 353 352 352 352 352 354 354 353 344 345 350 351 350 350 349 349
356 357 358 362 361 361 360 360 359 359 359 359 360 360 360 360 359 358 358 358 355 353 352 350 351 352 352 353 352 351 351 351 352 351 347 347 344 351 350 351 351 349 349
355 356 358 362 360 361 360 360 359 359 359 359 360 360 359 359 359 358 358 357 353 351 351 350 351 351 352 352 352 351 350 348 345 340 331 332 340 348 351 351 352 350 349
354 355 360 362 361 360 360 359 359 359 359 359 359 359 359 358 359 357 357 355 353 350 350 349 350 351 351 352 352 349 347 345 340 325 325 333 338 351 352 352 352 351 349
354 355 358 361 361 361 360 360 359 359 358 359 359 358 358 358 358 357 356 354 353 352 350 349 350 351 351 349 347 345 343 342 329 324 326 328 337 351 354 353 351 352 349
354 356 356 360 361 360 360 360 359 358 358 358 358 358 358 358 357 357 355 355 354 353 351 350 349 348 346 345 344 343 341 341 331 325 324 325 341 351 353 357 354 350 349
355 355 355 356 359 361 359 359 359 358 357 357 357 357 358 357 357 357 355 354 354 353 352 351 350 348 345 344 344 343 343 341 329 326 327 325 338 353 353 356 354 352 351
352 353 354 356 357 355 356 359 359 358 358 357 357 357 357 357 356 356 354 354 354 353 352 351 349 348 346 345 344 344 345 342 332 329 328 326 343 352 356 357 355 354 354
348 349 352 354 355 355 354 357 359 359 359 358 357 357 354 350 350 351 352 351 354 353 352 352 350 348 347 346 346 346 345 335 332 330 328 335 342 353 356 358 357 356 355
343 346 350 352 353 354 356 354 355 355 355 354 353 351 349 346 346 349 350 352 353 353 353 352 351 349 348 338 334 338 336 336 334 332 330 340 344 346 353 358 357 356 355
345 345 348 350 351 351 353 354 354 354 354 354 352 350 346 346 344 347 344 346 345 350 345 346 344 342 339 337 335 332 331 332 334 333 334 345 347 349 355 356 355 355 354
343 343 345 348 348 349 351 351 350 351 351 351 352 350 346 342 341 342 341 339 339 340 340 338 337 336 337 337 334 333 332 332 335 335 335 346 347 351 356 356 354 352 352
342 342 343 345 346 347 345 349 349 350 350 350 351 350 349 345 341 342 340 338 338 339 338 336 335 334 332 332 332 333 332 334 337 337 338 348 351 351 353 356 357 353 352
343 342 343 343 343 342 342 345 345 348 349 349 349 349 349 346 343 340 340 339 338 337 336 335 332 330 328 328 329 331 333 337 340 339 341 340 350 351 353 356 358 357 356
338 341 340 342 343 340 340 343 343 345 346 347 348 348 349 348 344 341 338 337 337 335 334 334 332 328 328 329 331 334 337 339 342 343 342 339 339 351 352 354 356 358 358
337 339 341 343 341 337 340 342 342 342 340 343 343 344 347 348 346 339 338 337 336 333 333 332 330 329 329 329 330 333 337 338 341 341 341 341 342 342 348 352 353 354 356
336 339 340 339 338 335 342 345 344 341 338 339 337 336 338 342 346 343 340 339 336 335 335 334 331 332 330 331 332 333 332 334 336 339 340 341 340 342 341 346 350 351 352
331 339 338 335 333 333 332 333 341 346 346 340 336 336 337 338 341 342 343 338 336 335 337 334 334 333 333 333 333 333 332 333 333 334 336 338 339 341 341 341 341 343 350
328 333 335 331 331 333 332 330 334 338 342 345 345 343 339 340 341 341 341 340 336 335 336 335 335 333 334 330 328 328 329 332 333 334 336 336 338 341 340 340 339 339 341
326 331 331 331 327 326 324 337 340 340 340 341 341 340 344 344 341 341 340 341 340 338 336 336 333 332 332 331 329 324 324 328 331 335 336 338 339 340 341 341 340 340 340
319 323 326 322 323 321 318 323 324 324 325 327 327 329 332 334 339 341 342 340 340 341 337 334 334 333 332 333 332 328 322 319 324 327 333 336 331 334 338 338 340 340 340
311 313 316 318 318 319 320 320 318 316 316 320 321 325 327 332 334 336 339 339 338 336 333 337 335 330 331 333 331 334 332 327 322 321 327 329 327 326 327 333 337 341 338
313 314 317 317 320 322 321 319 318 317 318 320 321 320 321 325 332 334 332 333 333 332 330 331 332 333 337 332 331 331 329 331 329 325 321 320 325 325 326 326 329 335 335
311 312 314 316 315 318 318 318 318 317 318 319 320 319 319 320 322 326 329 330 327 325 325 328 329 327 328 330 332 330 329 326 324 321 317 318 319 320 323 326 327 331 333

GFSSE_sfc_thetae_120.txt.gz
Theta_e
352 357 360 362 361 362 363 362 362 362 363 363 363 363 362 361 361 362 362 361 361 360 358 355 352 353 354 354 355 355 356 355 353 353 354 353 354 353 351 350 350 347 349
354 357 360 361 361 361 362 362 361 361 361 362 362 362 361 361 362 362 361 360 359 357 355 351 350 351 353 353 353 354 354 354 356 352 352 352 355 354 351 349 349 348 349
354 358 358 361 361 362 362 361 360 360 360 360 361 361 361 361 361 360 360 360 357 356 353 351 351 352 352 353 352 353 353 354 356 354 351 348 350 351 350 349 350 349 348
355 357 357 361 361 361 361 360 360 360 359 359 360 360 360 360 360 359 359 359 357 355 352 351 352 352 353 353 352 352 352 352 352 353 351 346 346 350 350 350 349 349 348
354 356 357 361 361 361 360 360 359 359 359 359 359 359 359 359 359 359 359 358 355 353 351 351 352 353 353 353 354 353 353 351 349 344 339 341 346 349 351 351 351 349 348
352 355 360 361 360 360 360 359 359 359 359 359 359 359 359 359 358 358 357 356 355 351 350 350 351 352 353 354 353 352 350 348 343 331 330 331 342 349 353 352 353 351 349
351 353 358 360 360 360 360 359 358 358 358 359 359 359 359 359 358 357 357 355 353 353 352 351 352 353 353 353 352 349 347 343 334 328 330 334 345 349 355 354 353 352 349
351 354 356 360 360 359 360 359 358 357 357 358 358 359 358 358 357 356 356 355 354 353 352 351 351 351 350 348 347 345 344 341 332 330 329 331 338 348 354 356 355 354 350
353 353 354 356 358 360 359 358 357 357 357 357 357 357 358 358 357 356 355 355 354 353 352 351 350 348 346 345 344 343 343 341 334 332 329 330 334 347 353 356 357 353 352
351 352 351 353 355 355 355 359 358 357 357 357 357 357 357 357 356 356 354 353 354 353 352 350 350 348 346 345 344 344 344 342 336 334 333 332 337 343 353 357 357 355 353
349 348 350 351 351 352 353 356 358 358 358 357 356 357 354 352 352 353 352 351 353 353 352 352 350 348 347 346 346 347 345 339 337 334 332 335 339 342 354 358 358 356 355
344 346 349 350 351 351 353 352 353 353 354 354 353 352 350 348 348 350 351 353 352 354 353 352 351 350 349 341 338 340 336 337 337 336 334 339 343 343 349 357 358 358 356
343 346 349 351 351 351 351 352 353 353 353 352 351 350 349 348 348 349 346 347 348 349 348 346 347 345 343 339 337 336 334 333 334 335 337 345 346 347 349 353 355 358 356
341 342 347 349 350 351 350 352 351 350 351 350 352 350 348 345 344 344 344 344 343 343 343 342 340 340 338 339 338 336 335 334 334 336 339 345 348 349 351 355 357 357 355
340 341 343 347 347 349 347 350 348 349 349 350 350 351 349 345 342 343 343 342 341 341 340 339 339 337 336 335 335 334 334 334 336 339 341 345 349 351 352 355 358 357 355
341 342 342 345 347 347 346 347 348 348 349 348 349 349 349 345 343 342 342 341 340 340 340 339 337 335 333 333 332 332 332 334 338 343 343 345 347 348 353 354 357 359 358
332 342 341 343 345 344 345 345 345 348 349 349 348 349 349 348 344 344 341 340 341 340 339 338 336 335 332 332 332 333 335 337 340 343 347 347 346 346 352 354 356 358 359
331 338 340 344 342 342 342 344 345 345 346 347 348 348 349 349 347 344 342 341 340 338 337 336 335 334 333 332 333 333 335 338 341 343 345 347 347 347 348 353 353 355 357
329 335 336 340 340 340 338 341 342 342 342 343 342 342 345 347 348 345 343 343 340 337 336 336 334 334 334 334 333 335 335 337 339 340 342 344 345 346 347 347 349 351 353
318 333 336 337 337 339 339 341 342 342 340 339 339 339 340 342 345 346 345 342 339 338 337 336 336 335 334 336 335 335 335 337 337 337 338 340 342 344 346 347 348 348 349
313 331 335 334 333 334 333 333 335 342 344 343 339 340 339 339 341 342 342 343 339 336 338 338 338 336 336 334 333 335 334 335 335 336 338 339 340 342 344 344 345 345 346
319 328 333 335 331 336 336 334 334 336 340 342 345 345 345 342 341 341 340 341 341 339 338 338 335 333 334 334 330 327 325 330 334 337 338 339 339 339 339 340 343 345 345
315 324 331 334 331 330 326 331 327 326 327 327 329 332 333 337 342 342 341 340 341 341 340 338 337 335 332 333 333 331 324 321 325 332 335 332 333 334 335 336 338 340 344
310 319 324 323 323 322 322 323 323 318 318 322 323 327 329 333 334 336 338 340 339 340 339 338 339 335 332 328 330 335 335 333 324 322 329 330 331 330 330 332 335 336 340
310 312 317 319 321 322 323 320 319 318 319 322 323 323 325 327 329 332 333 334 334 335 334 334 335 335 332 329 327 331 332 332 330 326 322 325 329 330 331 332 334 333 338
311 314 317 319 319 321 321 320 320 320 320 320 321 320 321 323 325 328 330 331 331 330 329 330 332 332 333 334 335 333 332 329 328 326 324 325 324 329 329 330 331 330 334

GFSSE_sfc_thetae_123.txt.gz
Theta_e
353 360 361 362 362 363 363 364 365 364 363 362 362 362 361 361 362 362 362 362 363 362 359 355 354 356 356 356 355 355 355 354 355 355 355 354 355 352 350 349 349 346 349
358 361 359 362 362 363 363 363 363 363 363 363 363 362 361 362 362 362 362 361 362 359 356 353 352 353 354 353 355 355 354 353 354 354 354 353 354 353 350 349 348 348 349
358 361 359 361 363 363 362 362 362 362 363 363 363 362 362 362 362 361 361 360 358 355 353 351 351 353 353 353 354 354 354 354 353 351 350 351 350 352 350 349 349 349 349
358 361 359 361 362 362 362 361 360 361 362 362 362 362 361 361 361 359 360 359 357 355 352 350 352 353 353 353 352 353 353 354 354 354 354 348 346 351 351 350 350 349 349
358 360 359 361 361 362 361 361 360 360 360 361 361 361 361 360 360 360 360 359 357 355 352 351 352 353 354 353 352 352 351 352 351 349 348 350 352 350 351 351 351 349 349
357 359 360 360 361 361 361 360 360 360 360 360 359 360 360 359 359 359 359 358 356 353 351 351 352 353 353 353 352 350 350 348 346 343 340 339 339 353 353 352 352 350 349
356 358 359 360 360 361 360 360 360 360 359 359 359 359 359 359 358 358 357 355 353 352 351 350 351 351 351 351 351 350 347 344 342 338 336 340 348 350 354 354 353 353 350
356 357 357 359 360 360 359 359 358 358 358 359 359 359 359 359 358 357 356 354 352 351 350 349 349 349 349 350 348 347 345 341 335 335 334 336 341 346 351 356 356 354 352
357 357 357 356 359 360 359 358 357 357 357 358 358 358 358 358 357 356 355 353 352 351 349 348 348 348 347 345 345 344 343 340 335 335 334 333 341 337 349 356 357 355 353
355 355 356 356 354 354 356 358 357 357 357 357 357 357 357 357 356 355 354 353 352 351 350 349 349 348 346 345 345 344 343 342 337 336 335 335 338 339 344 355 357 358 354
352 355 355 353 354 354 353 355 357 357 357 357 356 357 354 350 352 353 353 351 352 351 351 351 350 349 347 347 346 346 344 336 337 337 337 341 340 342 345 355 357 358 356
348 352 355 355 354 354 352 355 355 354 353 353 353 354 352 352 353 351 352 353 352 352 353 352 351 350 347 340 339 341 337 336 335 336 337 343 344 345 345 356 358 359 357
348 351 354 357 357 354 351 355 354 353 354 356 356 357 355 352 352 351 351 350 351 351 347 347 346 344 342 342 339 338 337 337 335 336 340 344 346 346 349 353 355 358 358
346 349 354 357 357 357 354 354 355 354 355 354 354 357 355 352 352 352 351 350 351 349 348 348 344 345 344 342 341 340 339 338 336 336 341 347 348 349 351 354 355 357 358
345 348 352 356 357 357 357 356 355 355 354 355 356 357 355 352 352 351 351 351 351 350 349 347 346 345 343 341 340 339 338 339 338 337 341 349 349 351 352 354 355 358 359
349 349 351 354 357 356 356 358 356 357 356 355 356 356 355 354 354 351 351 350 350 351 350 349 349 347 345 344 342 341 341 343 342 343 339 347 349 350 352 355 356 359 360
349 353 353 353 356 356 356 357 356 356 356 354 355 357 355 353 355 354 352 351 351 352 353 351 350 350 347 346 345 344 344 345 346 346 345 344 349 351 350 354 356 357 359
337 342 352 351 352 354 355 355 355 355 355 353 354 354 355 352 355 355 352 350 353 352 351 350 349 347 346 345 344 345 345 345 347 348 348 349 349 350 352 351 354 355 357
329 340 346 351 351 353 353 353 354 355 353 353 354 354 356 356 355 355 353 353 355 351 350 348 347 346 344 344 343 343 344 345 346 345 348 350 351 350 350 351 350 351 353
323 333 345 349 353 353 352 351 351 351 351 352 353 353 355 355 355 356 354 355 354 350 349 348 348 348 345 345 341 341 344 343 344 344 345 346 348 350 350 352 352 350 349
322 328 342 347 351 350 347 346 346 345 348 348 350 353 352 352 352 353 352 353 353 349 350 350 348 347 345 345 342 341 340 343 344 342 344 345 347 348 350 351 351 351 351
323 325 334 345 349 349 348 349 348 348 349 351 353 353 353 350 351 351 351 351 352 349 350 349 346 344 343 345 339 339 330 334 338 341 343 344 345 347 345 346 346 349 350
321 330 333 341 347 348 349 347 344 346 346 348 351 352 351 350 351 351 350 349 349 348 346 347 345 343 340 344 345 337 328 324 333 337 339 340 344 341 341 341 344 345 347
316 319 330 340 343 343 345 346 345 342 339 342 343 344 340 342 342 343 345 347 348 346 344 344 346 343 343 338 341 341 339 335 326 324 335 339 341 339 341 341 341 343 344
322 322 327 334 338 338 340 344 343 339 340 335 336 338 339 340 341 340 342 343 343 341 343 343 342 341 340 339 336 336 336 336 337 330 325 329 336 338 339 341 339 339 344
325 327 331 333 333 335 336 336 338 336 334 332 333 332 332 334 336 339 338 341 342 340 339 339 340 340 338 338 336 338 335 331 332 330 329 331 332 336 338 339 338 338 340